[[{"header":{"parameterUnit":"m.s-1","parameterCategory":1,"la1":30.6,"la2":29.2853,"lo1":-89.7004,"lo2":-87.6739,"dy":0.0162,"dx":0.0183,"nx":112,"ny":82,"refTime":"2023-11-02T18:00:00:Z","depth":0,"parameterNumber":2,"parameterNumberName":"U-component_of_WINDS"},"data":[0.0,0.0,0.0,0.0,0.0,0.0,0.0,0.0,0.0,0.0,0.0,0.0,0.0,0.0,0.0,0.0,0.0,0.0,0.0,0.0,0.0,0.0,0.0,0.0,0.0,0.0,0.0,0.0,0.0,0.0,0.0,0.0,0.0,0.0,0.0,0.0,0.0,0.0,0.0,0.0,0.0,0.0,0.0,0.0,0.0,0.0,0.0,0.0,0.0,0.0,0.0,0.0,0.0,0.0,0.0,0.0,0.0,0.0,0.0,0.0,0.0,0.0,0.0,0.0,0.0,0.0,0.0,0.0,0.0,0.0,0.0,0.0,0.0,0.0,0.0,0.0,0.0,0.0,0.0,0.0,0.0,0.0,0.0,0.0,0.0,0.0,0.0,0.0,0.0,0.0,-3.0696,-3.0707,-3.0777,-3.0798,-3.0806,-3.0792,-3.0512,-2.9844,0.0,0.0,0.0,0.0,0.0,0.0,0.0,0.0,0.0,0.0,0.0,0.0,0.0,0.0,0.0,0.0,0.0,0.0,0.0,0.0,0.0,0.0,0.0,0.0,0.0,0.0,0.0,0.0,0.0,0.0,0.0,0.0,0.0,0.0,0.0,0.0,0.0,0.0,0.0,0.0,0.0,0.0,0.0,0.0,0.0,0.0,0.0,0.0,0.0,0.0,0.0,0.0,0.0,0.0,0.0,0.0,0.0,0.0,0.0,0.0,0.0,0.0,0.0,0.0,0.0,0.0,0.0,0.0,0.0,0.0,0.0,0.0,0.0,0.0,0.0,0.0,0.0,0.0,0.0,0.0,0.0,0.0,0.0,0.0,0.0,0.0,0.0,0.0,0.0,0.0,0.0,0.0,0.0,0.0,0.0,0.0,0.0,0.0,0.0,0.0,0.0,0.0,0.0,0.0,-3.0661,-3.0776,-3.0798,-3.0801,-3.0798,-3.0803,-3.0512,-2.9844,0.0,0.0,0.0,0.0,0.0,0.0,0.0,0.0,0.0,0.0,0.0,0.0,0.0,0.0,0.0,0.0,0.0,0.0,0.0,0.0,0.0,0.0,0.0,0.0,0.0,0.0,0.0,0.0,0.0,0.0,0.0,0.0,0.0,0.0,0.0,0.0,0.0,0.0,0.0,0.0,0.0,0.0,0.0,0.0,0.0,0.0,0.0,0.0,0.0,0.0,0.0,0.0,0.0,0.0,0.0,0.0,0.0,0.0,0.0,0.0,0.0,0.0,0.0,0.0,0.0,0.0,0.0,0.0,0.0,0.0,0.0,0.0,0.0,0.0,0.0,0.0,0.0,0.0,0.0,0.0,0.0,0.0,0.0,0.0,0.0,0.0,0.0,0.0,0.0,0.0,0.0,0.0,0.0,0.0,0.0,0.0,0.0,0.0,0.0,0.0,0.0,0.0,0.0,-3.0696,-3.0722,-3.0749,-3.0753,-3.0752,-3.08,-3.0798,-3.0617,-3.0206,-2.9751,0.0,0.0,0.0,0.0,0.0,0.0,0.0,0.0,0.0,0.0,0.0,0.0,0.0,0.0,0.0,0.0,0.0,0.0,0.0,0.0,0.0,0.0,0.0,0.0,0.0,0.0,0.0,0.0,0.0,0.0,0.0,0.0,0.0,0.0,0.0,0.0,0.0,0.0,0.0,0.0,0.0,0.0,0.0,0.0,0.0,0.0,0.0,0.0,0.0,0.0,0.0,0.0,0.0,0.0,0.0,0.0,0.0,0.0,0.0,0.0,0.0,0.0,0.0,0.0,0.0,0.0,0.0,0.0,0.0,0.0,0.0,0.0,0.0,0.0,0.0,0.0,0.0,0.0,0.0,0.0,0.0,0.0,0.0,0.0,0.0,0.0,0.0,0.0,0.0,0.0,0.0,0.0,0.0,0.0,0.0,0.0,0.0,0.0,0.0,0.0,0.0,0.0,-3.0752,-3.0732,-3.0706,-3.068,-3.0693,-3.0778,-3.0742,-3.0656,-3.048,-2.9971,0.0,0.0,0.0,0.0,0.0,0.0,0.0,0.0,0.0,0.0,0.0,0.0,0.0,0.0,0.0,0.0,0.0,0.0,0.0,0.0,0.0,0.0,0.0,0.0,0.0,0.0,0.0,0.0,0.0,0.0,0.0,0.0,0.0,0.0,0.0,0.0,0.0,0.0,0.0,0.0,0.0,0.0,0.0,0.0,0.0,0.0,0.0,0.0,0.0,0.0,0.0,0.0,0.0,0.0,0.0,0.0,0.0,0.0,0.0,0.0,0.0,0.0,0.0,0.0,0.0,0.0,0.0,0.0,0.0,0.0,0.0,0.0,0.0,0.0,0.0,0.0,0.0,0.0,0.0,0.0,0.0,0.0,0.0,0.0,0.0,0.0,0.0,0.0,0.0,0.0,0.0,0.0,0.0,0.0,0.0,0.0,0.0,0.0,0.0,0.0,0.0,0.0,-3.0618,-3.0649,-3.0685,-3.0586,-3.0568,-3.0697,-3.0598,-3.0498,-3.0412,-2.9897,0.0,0.0,0.0,0.0,0.0,0.0,0.0,0.0,0.0,0.0,0.0,0.0,0.0,0.0,0.0,0.0,0.0,0.0,0.0,0.0,0.0,0.0,0.0,0.0,0.0,0.0,0.0,0.0,0.0,0.0,0.0,0.0,0.0,0.0,0.0,0.0,0.0,0.0,0.0,0.0,0.0,0.0,0.0,0.0,0.0,0.0,0.0,0.0,0.0,0.0,0.0,0.0,0.0,0.0,0.0,0.0,0.0,0.0,0.0,0.0,0.0,0.0,0.0,0.0,0.0,0.0,0.0,0.0,0.0,0.0,0.0,0.0,0.0,0.0,0.0,0.0,0.0,0.0,0.0,0.0,0.0,0.0,0.0,0.0,0.0,0.0,0.0,0.0,0.0,0.0,0.0,0.0,0.0,0.0,0.0,0.0,0.0,0.0,0.0,0.0,0.0,0.0,-3.0638,-3.0586,0.0,-3.0527,-3.0513,-3.0561,-3.0538,-3.048,-3.0402,0.0,0.0,0.0,0.0,0.0,0.0,0.0,0.0,0.0,0.0,0.0,0.0,0.0,0.0,0.0,0.0,0.0,0.0,0.0,0.0,0.0,0.0,0.0,0.0,0.0,0.0,0.0,0.0,0.0,0.0,0.0,0.0,0.0,0.0,0.0,0.0,0.0,0.0,0.0,0.0,0.0,0.0,0.0,0.0,0.0,0.0,0.0,0.0,0.0,0.0,0.0,0.0,0.0,0.0,0.0,0.0,0.0,0.0,0.0,0.0,0.0,0.0,0.0,0.0,0.0,0.0,0.0,0.0,0.0,0.0,0.0,0.0,0.0,0.0,0.0,0.0,0.0,0.0,0.0,0.0,0.0,0.0,0.0,0.0,0.0,0.0,0.0,0.0,0.0,0.0,0.0,0.0,0.0,0.0,0.0,0.0,0.0,0.0,0.0,0.0,0.0,0.0,-3.0705,-3.0642,-3.0595,0.0,-3.0511,-3.0482,-3.0505,-3.0434,-3.0386,-3.0333,0.0,0.0,0.0,0.0,0.0,0.0,0.0,0.0,0.0,0.0,0.0,0.0,0.0,0.0,0.0,0.0,0.0,0.0,0.0,0.0,0.0,0.0,0.0,0.0,0.0,0.0,0.0,0.0,0.0,0.0,0.0,0.0,0.0,0.0,0.0,0.0,0.0,0.0,0.0,0.0,0.0,0.0,0.0,0.0,0.0,0.0,0.0,0.0,0.0,0.0,0.0,0.0,0.0,0.0,0.0,0.0,0.0,0.0,0.0,0.0,0.0,0.0,0.0,0.0,0.0,0.0,0.0,0.0,0.0,0.0,0.0,0.0,0.0,0.0,0.0,0.0,0.0,0.0,0.0,0.0,0.0,0.0,0.0,0.0,0.0,0.0,0.0,0.0,0.0,0.0,0.0,0.0,0.0,0.0,0.0,0.0,0.0,0.0,0.0,0.0,0.0,0.0,-3.0689,-3.0641,-3.0615,-3.068,-3.0525,-3.0436,-3.0487,-3.031,-3.0201,0.0,0.0,0.0,0.0,0.0,0.0,0.0,0.0,0.0,0.0,0.0,0.0,0.0,0.0,0.0,0.0,0.0,0.0,0.0,0.0,0.0,0.0,0.0,0.0,0.0,0.0,0.0,0.0,0.0,0.0,0.0,0.0,0.0,0.0,0.0,0.0,0.0,0.0,0.0,0.0,0.0,0.0,0.0,0.0,0.0,0.0,0.0,0.0,0.0,0.0,0.0,0.0,0.0,0.0,0.0,0.0,0.0,0.0,0.0,0.0,0.0,0.0,0.0,0.0,0.0,0.0,0.0,0.0,0.0,0.0,0.0,0.0,0.0,0.0,0.0,0.0,0.0,0.0,0.0,0.0,0.0,0.0,0.0,0.0,0.0,0.0,0.0,0.0,0.0,0.0,0.0,0.0,0.0,0.0,0.0,0.0,0.0,0.0,0.0,0.0,0.0,0.0,0.0,-3.0287,-3.0251,-3.0215,-3.0132,-3.0298,-3.0367,-3.0299,-3.024,-3.022,-3.0262,0.0,0.0,0.0,0.0,0.0,0.0,0.0,0.0,0.0,0.0,0.0,0.0,0.0,0.0,0.0,0.0,0.0,0.0,0.0,0.0,0.0,0.0,0.0,0.0,0.0,0.0,0.0,0.0,0.0,0.0,0.0,0.0,0.0,0.0,0.0,0.0,0.0,0.0,0.0,0.0,0.0,0.0,0.0,0.0,0.0,0.0,0.0,0.0,0.0,0.0,0.0,0.0,0.0,0.0,0.0,0.0,0.0,0.0,0.0,0.0,0.0,0.0,0.0,0.0,0.0,0.0,0.0,0.0,0.0,0.0,0.0,0.0,0.0,0.0,0.0,0.0,0.0,0.0,0.0,0.0,0.0,0.0,0.0,0.0,0.0,0.0,0.0,0.0,0.0,0.0,0.0,0.0,0.0,0.0,0.0,0.0,0.0,0.0,0.0,0.0,0.0,0.0,-3.0146,-3.0075,-3.0004,-2.9953,-3.017,-3.0299,-3.0235,-3.0219,-3.0237,-3.0327,0.0,0.0,0.0,0.0,0.0,0.0,0.0,0.0,0.0,0.0,0.0,0.0,0.0,0.0,0.0,0.0,0.0,0.0,0.0,0.0,0.0,0.0,0.0,0.0,0.0,0.0,0.0,0.0,0.0,0.0,0.0,0.0,0.0,0.0,0.0,0.0,0.0,0.0,0.0,0.0,0.0,0.0,0.0,0.0,0.0,0.0,0.0,0.0,0.0,0.0,0.0,0.0,0.0,0.0,0.0,0.0,0.0,0.0,0.0,0.0,0.0,0.0,0.0,0.0,0.0,0.0,0.0,0.0,0.0,0.0,0.0,0.0,0.0,0.0,0.0,0.0,0.0,0.0,0.0,0.0,0.0,0.0,0.0,0.0,0.0,0.0,0.0,0.0,0.0,0.0,0.0,0.0,0.0,0.0,0.0,0.0,0.0,0.0,0.0,0.0,0.0,0.0,-3.0133,-2.9956,-2.9863,-2.9942,-3.0079,-3.0209,-3.0278,-3.0221,-3.0249,-3.0379,0.0,0.0,0.0,0.0,0.0,0.0,0.0,0.0,0.0,0.0,0.0,0.0,0.0,0.0,0.0,0.0,0.0,0.0,0.0,0.0,0.0,0.0,0.0,0.0,0.0,0.0,0.0,0.0,0.0,0.0,0.0,0.0,0.0,0.0,0.0,0.0,0.0,0.0,0.0,0.0,0.0,0.0,0.0,0.0,0.0,0.0,0.0,0.0,0.0,0.0,0.0,0.0,0.0,0.0,0.0,0.0,0.0,0.0,0.0,0.0,-3.2966,0.0,0.0,0.0,0.0,0.0,0.0,0.0,0.0,0.0,0.0,0.0,0.0,0.0,0.0,0.0,0.0,0.0,0.0,0.0,0.0,0.0,0.0,0.0,0.0,0.0,0.0,0.0,0.0,0.0,0.0,0.0,0.0,0.0,0.0,0.0,0.0,0.0,0.0,0.0,0.0,0.0,-2.9733,-2.9466,-2.9344,-2.9504,-2.9786,-3.003,-3.0207,-3.0206,-3.0239,-3.032,-3.0362,0.0,0.0,0.0,0.0,0.0,0.0,0.0,0.0,0.0,0.0,0.0,0.0,0.0,0.0,0.0,0.0,0.0,0.0,0.0,0.0,0.0,0.0,0.0,0.0,0.0,0.0,0.0,0.0,0.0,0.0,0.0,0.0,0.0,0.0,0.0,0.0,0.0,0.0,0.0,0.0,0.0,0.0,0.0,0.0,0.0,0.0,0.0,0.0,0.0,0.0,0.0,0.0,0.0,0.0,0.0,0.0,0.0,0.0,0.0,0.0,-3.4683,0.0,0.0,0.0,0.0,0.0,0.0,0.0,0.0,0.0,0.0,0.0,0.0,0.0,0.0,0.0,0.0,0.0,0.0,0.0,0.0,0.0,0.0,0.0,0.0,0.0,0.0,0.0,0.0,0.0,0.0,0.0,0.0,0.0,0.0,0.0,0.0,0.0,0.0,0.0,0.0,-2.9383,-2.918,-2.9078,-2.9204,-2.957,-2.9848,-3.0,-3.0135,-3.0235,-3.0337,-3.0414,0.0,0.0,0.0,0.0,0.0,0.0,0.0,0.0,0.0,0.0,0.0,0.0,0.0,0.0,0.0,0.0,0.0,0.0,0.0,0.0,0.0,0.0,0.0,0.0,0.0,0.0,0.0,0.0,0.0,0.0,0.0,0.0,0.0,0.0,0.0,0.0,0.0,0.0,0.0,0.0,0.0,0.0,0.0,0.0,0.0,0.0,0.0,0.0,0.0,0.0,0.0,0.0,0.0,-3.3487,-3.3854,-3.3882,-3.4741,-3.5172,-3.5278,-3.5575,-3.5268,-3.4603,-3.527,0.0,0.0,0.0,0.0,0.0,0.0,0.0,0.0,0.0,0.0,0.0,0.0,0.0,0.0,0.0,0.0,0.0,0.0,0.0,0.0,0.0,0.0,0.0,0.0,-3.0643,-3.0657,0.0,0.0,0.0,0.0,0.0,0.0,0.0,0.0,0.0,0.0,0.0,0.0,-2.9142,-2.8997,-2.8962,-2.9031,-2.9409,-2.9705,-2.9834,-3.0072,-3.0241,-3.0367,-3.0461,-3.0474,0.0,0.0,0.0,0.0,0.0,0.0,0.0,0.0,0.0,0.0,0.0,0.0,0.0,0.0,0.0,0.0,0.0,0.0,0.0,0.0,0.0,0.0,0.0,0.0,0.0,0.0,0.0,0.0,0.0,0.0,0.0,0.0,-3.0035,-3.0056,0.0,0.0,0.0,0.0,0.0,0.0,0.0,0.0,0.0,0.0,0.0,0.0,0.0,-3.2316,-3.2268,-3.3012,-3.3384,-3.3384,-3.4117,-3.4478,-3.4488,-3.4746,-3.4961,-3.5146,-3.5294,0.0,-3.5466,-3.4781,0.0,0.0,0.0,0.0,0.0,0.0,0.0,0.0,0.0,0.0,0.0,0.0,0.0,0.0,0.0,0.0,0.0,0.0,0.0,0.0,0.0,0.0,-3.0678,-3.0625,-3.0601,-3.0529,0.0,-3.021,-3.0257,-3.0266,-3.0025,0.0,0.0,0.0,0.0,0.0,0.0,0.0,-2.9142,-2.8825,-2.8809,-2.9217,-2.9369,-2.9616,-3.003,-3.015,-3.0206,-3.024,-3.0391,-3.039,-3.0155,-3.0462,0.0,0.0,0.0,0.0,0.0,0.0,0.0,0.0,0.0,0.0,0.0,0.0,0.0,0.0,0.0,0.0,0.0,0.0,0.0,0.0,0.0,0.0,0.0,0.0,0.0,0.0,0.0,0.0,0.0,-3.0163,-3.0115,-3.0121,-3.0163,-3.0241,0.0,0.0,0.0,0.0,0.0,0.0,0.0,0.0,0.0,-3.1855,-3.2646,-3.3013,-3.2912,-3.3711,-3.4033,-3.3903,-3.421,-3.4393,-3.4374,-3.463,-3.4841,-3.5005,-3.5255,-3.547,-3.5611,-3.5243,-3.5126,-3.5178,0.0,0.0,0.0,0.0,-3.1982,-3.1122,-3.0778,-3.0663,0.0,-3.0663,0.0,0.0,0.0,0.0,0.0,0.0,0.0,0.0,0.0,0.0,-3.0587,-3.0371,-3.032,-3.0229,-2.9881,-2.9688,-2.9634,0.0,-2.989,-2.9978,-3.0111,0.0,0.0,0.0,0.0,-2.9204,-2.8854,-2.8688,-2.8682,-2.8879,-2.9183,-2.9438,-2.9687,-2.9984,-3.0164,-3.0204,-3.0393,-3.0453,-3.0324,-3.0459,-3.0474,0.0,0.0,0.0,0.0,0.0,0.0,0.0,0.0,0.0,0.0,0.0,0.0,0.0,0.0,0.0,0.0,0.0,0.0,0.0,0.0,0.0,0.0,0.0,0.0,0.0,0.0,0.0,0.0,-3.0169,-3.0122,-3.0121,-3.0122,-3.0177,0.0,0.0,0.0,0.0,0.0,0.0,-3.1538,-3.1775,-3.2143,-3.2686,-3.3458,-3.38,-3.37,-3.4296,-3.4495,-3.4293,-3.4233,-3.4197,-3.4209,-3.4534,-3.4754,-3.4916,-3.5219,-3.543,-3.5601,-3.5655,-3.5685,-3.5702,-3.5697,-3.495,-3.3813,-3.3357,-3.2374,-3.1243,-3.0886,-3.0731,-3.0734,-3.0748,0.0,-3.0689,-3.0652,0.0,0.0,0.0,0.0,-3.0596,-3.0541,-3.0492,-3.0419,-3.0158,-3.002,-2.9878,-2.9538,-2.9344,-2.9276,0.0,-2.9609,-2.9734,-2.9832,0.0,0.0,0.0,0.0,-2.8975,-2.8644,-2.86,-2.8625,-2.87,-2.9053,-2.9349,-2.9467,-2.9859,-3.0123,-3.0204,-3.0371,-3.0474,-3.0505,-3.0484,-3.0531,-3.065,0.0,0.0,0.0,0.0,0.0,0.0,0.0,0.0,0.0,0.0,0.0,0.0,0.0,0.0,0.0,0.0,0.0,0.0,0.0,0.0,0.0,0.0,0.0,0.0,0.0,0.0,0.0,0.0,0.0,-2.9918,-2.9918,0.0,0.0,0.0,0.0,-3.1262,-3.1156,-3.1504,-3.2565,-3.2987,-3.3314,-3.3543,-3.4192,-3.4643,-3.4813,-3.468,-3.4583,-3.4591,-3.4316,-3.4197,-3.4209,-3.4484,-3.4703,-3.4916,-3.5117,-3.5355,-3.5604,-3.5601,-3.5635,-3.5698,-3.571,-3.568,-3.5471,-3.3952,-3.3284,-3.2953,-3.1423,-3.0857,-3.0808,-3.0878,-3.0794,-3.0716,-3.0777,-3.0698,0.0,0.0,-3.0609,-3.0592,-3.0606,-3.0365,-3.0113,-3.0093,-2.9863,-2.952,-2.9204,-2.9363,-2.9494,0.0,-2.8877,-2.8773,-2.9098,0.0,-2.914,-2.914,-2.9101,-2.8975,-2.8644,-2.86,-2.87,-2.8945,-2.918,-2.9409,-2.9651,-2.9942,-3.0123,-3.0204,-3.0329,-3.0434,-3.0502,-3.0615,-3.0639,-3.0506,-3.0492,0.0,0.0,0.0,0.0,0.0,0.0,0.0,0.0,0.0,0.0,0.0,0.0,0.0,0.0,0.0,0.0,0.0,0.0,0.0,0.0,0.0,0.0,0.0,0.0,0.0,0.0,0.0,0.0,-3.0118,-2.9807,0.0,-2.9939,-2.9851,-3.0158,-3.1067,-3.1203,-3.1811,-3.3134,-3.3355,-3.3771,-3.4488,-3.4571,-3.4751,-3.5027,-3.4732,-3.4612,-3.4602,-3.4328,-3.4293,-3.4473,-3.468,-3.4898,-3.5105,-3.5312,-3.5462,-3.5547,-3.554,-3.5581,-3.5639,-3.5679,-3.5066,-3.4052,-3.3488,-3.2578,-3.1556,-3.1017,-3.0798,-3.0734,-3.0767,-3.077,-3.076,-3.0732,-3.0677,-3.0597,-3.0599,-3.0597,-3.0607,-3.0597,-3.0361,-3.0053,-2.984,-2.9511,-2.9184,-2.886,-2.8865,-2.8922,-2.8808,-2.886,-2.8972,-2.9087,-2.8915,-2.8842,-2.9066,-2.8934,-2.8731,-2.8625,-2.86,-2.8637,-2.8737,-2.8962,-2.9201,-2.9418,-2.9696,-2.9934,-3.0116,-3.0306,-3.0425,-3.0502,-3.0541,-3.0614,-3.0689,-3.0646,-3.0562,0.0,0.0,0.0,0.0,0.0,0.0,0.0,0.0,0.0,0.0,0.0,0.0,0.0,0.0,0.0,0.0,0.0,0.0,0.0,0.0,0.0,0.0,0.0,0.0,0.0,0.0,-3.0041,-3.0273,-2.9899,-2.9677,-2.9872,-2.9741,-2.9982,-3.0838,-3.1013,-3.1673,-3.2997,-3.3053,-3.3403,-3.4122,-3.3989,-3.4027,-3.4331,-3.4027,-3.3892,-3.3892,-3.3666,-3.3663,-3.384,-3.4027,-3.4196,-3.4331,-3.4534,-3.4616,-3.4623,-3.4655,-3.4686,-3.4766,-3.5104,-3.439,-3.3139,-3.2854,-3.2034,-3.1044,-3.081,-3.072,-3.0709,-3.0709,-3.0728,-3.0764,-3.0717,-3.065,-3.0593,-3.0593,-3.0595,-3.0564,-3.0465,-3.019,-2.9848,-2.9502,-2.9174,-2.8865,-2.8644,-2.86,-2.86,-2.86,-2.8785,-2.8927,-2.8927,-2.8755,-2.8676,-2.89,-2.8743,-2.86,-2.86,-2.86,-2.86,-2.86,-2.8839,-2.9079,-2.9279,-2.9542,-2.9817,-3.0079,-3.0241,-3.0356,-3.0428,-3.0481,-3.0578,-3.0759,-3.0742,-3.0669,-3.0496,0.0,0.0,0.0,0.0,0.0,0.0,0.0,0.0,0.0,0.0,0.0,0.0,0.0,0.0,0.0,0.0,0.0,0.0,0.0,0.0,0.0,0.0,0.0,-3.0305,-3.0286,-3.0286,-3.0305,-3.0099,-2.9904,-2.9722,-2.9589,-2.9839,-3.0645,-3.0718,-3.1145,-3.2147,-3.2185,-3.2278,-3.2474,-3.2488,-3.2588,-3.2792,-3.2595,-3.2499,-3.2499,-3.2352,-3.2298,-3.2316,-3.2512,-3.2596,-3.2611,-3.2826,-3.291,-3.291,-3.2967,-3.2979,-3.3043,-3.3927,-3.3763,-3.2956,-3.2171,-3.1833,-3.1656,-3.0871,-3.0639,-3.0709,-3.0684,-3.0706,-3.0706,-3.0704,-3.0645,-3.059,-3.059,-3.0591,-3.052,-3.019,-2.9855,-2.9521,-2.9184,-2.883,-2.86,-2.86,-2.86,-2.86,-2.86,-2.86,-2.86,-2.86,-2.86,-2.86,-2.86,-2.86,0.0,-2.86,-2.86,-2.86,-2.8612,-2.8839,-2.9079,-2.9289,-2.9542,-2.9809,-3.0087,-3.0169,-3.0222,-3.0295,-3.042,-3.0543,-3.0688,-3.0741,-3.0698,-3.0474,0.0,0.0,0.0,0.0,0.0,0.0,0.0,0.0,0.0,0.0,0.0,0.0,0.0,0.0,0.0,0.0,0.0,0.0,0.0,0.0,0.0,0.0,-3.0227,-3.0227,-3.0099,-3.0063,-3.0206,-2.9918,-2.976,-2.9836,-2.9813,-3.0074,-3.0781,-3.0979,-3.1364,-3.209,-3.2027,-3.2047,-3.2213,-3.226,-3.2386,-3.2583,-3.2523,-3.2499,-3.2499,-3.2316,-3.2325,-3.2518,-3.2523,-3.2627,-3.2811,-3.2871,-3.2891,-3.2897,-3.291,-3.2576,-3.214,-3.3028,-3.2874,-3.2125,-3.1908,-3.1458,-3.089,-3.0622,-3.0576,-3.0625,-3.0568,-3.0595,-3.0635,-3.063,-3.0602,-3.06,-3.06,-3.0601,-3.052,-3.019,-2.9855,-2.9521,-2.9184,-2.883,-2.86,-2.86,-2.86,-2.86,-2.86,-2.86,-2.86,-2.86,-2.86,-2.86,-2.86,-2.86,0.0,-2.86,-2.86,-2.8675,-2.8863,-2.8957,-2.9141,-2.9494,-2.9626,-2.9786,-3.0014,-3.0102,-3.0162,-3.0224,-3.0226,-3.0246,-3.0333,-3.045,-3.0333,0.0,0.0,0.0,0.0,0.0,0.0,0.0,0.0,0.0,0.0,0.0,0.0,0.0,0.0,0.0,0.0,0.0,0.0,0.0,0.0,0.0,0.0,-3.018,-3.0173,-3.0082,-3.006,-3.0075,-3.0178,-2.9984,-2.9853,-2.9888,-2.9897,-3.003,-3.0321,-3.046,-3.0685,-3.1035,-3.1063,-3.1101,-3.1176,-3.13,-3.142,-3.1538,-3.1535,-3.1535,-3.1535,-3.142,-3.1445,-3.1596,-3.1588,-3.1666,0.0,-3.1821,-3.1808,-3.1802,-3.1808,-3.1552,0.0,0.0,0.0,0.0,0.0,-3.0965,-3.0544,-3.0505,-3.0525,-3.0556,-3.0516,-3.0525,-3.0567,-3.0559,-3.0569,-3.054,-3.0449,-3.0474,-3.0417,-3.0009,-2.9704,-2.943,-2.9135,-2.8827,-2.86,-2.86,-2.86,-2.86,-2.86,-2.86,0.0,-2.86,-2.86,-2.86,-2.86,-2.86,-2.86,-2.86,-2.86,-2.8662,-2.8822,-2.8827,-2.9007,-2.9445,-2.9504,0.0,0.0,0.0,-3.0135,-3.0207,-3.0158,0.0,0.0,0.0,-3.0234,-2.9923,0.0,0.0,0.0,-2.9323,-2.8808,0.0,0.0,0.0,0.0,0.0,0.0,0.0,0.0,0.0,0.0,0.0,0.0,0.0,0.0,0.0,0.0,-3.0019,-3.0064,-2.9888,-3.0042,-3.0171,-3.0204,-3.0211,-3.0135,-2.9937,-2.9921,-2.9855,-2.9653,-2.9635,-2.9626,-2.9608,0.0,0.0,0.0,0.0,-3.0317,-3.0317,-3.0426,-3.0472,-3.0472,-3.048,-3.0494,-3.0501,-3.0547,-3.0567,-3.0573,-3.0573,-3.0574,-3.0586,-3.0592,-3.0642,-3.0754,-3.1333,-3.1076,-3.0411,-3.0463,-3.0493,-3.0493,-3.0493,0.0,0.0,-3.0499,-3.0499,-3.0499,-3.0504,-3.0504,-3.0463,-3.0291,-3.0316,-3.0299,-2.9777,-2.9559,-2.941,-2.9104,-2.8845,-2.8657,-2.8687,-2.8637,-2.86,-2.8637,-2.8625,-2.86,-2.86,-2.86,-2.86,-2.86,-2.86,-2.86,-2.86,-2.86,-2.8625,-2.8669,0.0,0.0,-2.9334,-2.9368,-2.9523,-2.988,-3.0014,-3.0107,-3.0161,-3.0167,-3.0218,-3.0343,-3.0315,-3.021,-3.0011,-2.9689,-2.9412,-2.9177,-2.9342,-2.8741,0.0,0.0,0.0,0.0,0.0,0.0,0.0,0.0,0.0,0.0,0.0,0.0,0.0,0.0,0.0,-2.9912,-2.9801,-2.9707,-2.9662,-2.9839,-3.0019,-3.0171,-3.0211,-3.0178,-3.0142,-3.0142,-3.0057,-2.9855,-2.9847,-2.976,-2.9617,-2.9635,-2.9662,-2.9662,-3.0534,-3.1013,-3.1013,-3.1798,-3.2222,-3.2222,0.0,0.0,-3.23,-3.2251,-3.2259,-3.2314,-3.2314,-3.2316,-3.2312,-3.2365,-3.2466,-3.2457,-3.1162,-3.0544,-3.0396,-3.0402,-3.0421,-3.0421,-3.0421,-3.0421,-3.0427,-3.0417,-3.0422,-3.0428,-3.0474,-3.0504,0.0,-3.0458,-3.0458,-3.0394,-3.0016,-2.9905,-2.9793,-2.9409,-2.9156,-2.9038,-2.9137,-2.8868,-2.8662,-2.8875,-2.8761,-2.86,-2.86,-2.86,-2.86,-2.86,-2.86,-2.86,-2.86,-2.86,-2.8755,-2.9123,-2.9166,-2.9326,-2.9742,-2.9777,-2.9811,-2.9888,-2.9913,-2.9945,-2.9962,-2.9969,-2.9973,-3.0006,-2.9847,-2.9689,-2.9532,-2.9245,-2.8883,-2.8413,-2.8769,-2.822,0.0,0.0,0.0,0.0,0.0,0.0,0.0,0.0,0.0,0.0,0.0,-2.9992,0.0,0.0,-2.9668,-2.956,-2.9523,-2.9456,-2.9358,-2.9644,-2.9905,-3.0034,-3.0049,-3.0098,-3.0178,-3.0113,-3.0049,-3.0049,-2.9964,-2.9897,-2.9905,-3.0227,-3.0445,-3.0549,-3.1456,-3.196,-3.196,-3.2451,-3.2699,-3.2699,-3.2699,-3.2726,-3.2748,-3.2726,-3.2726,-3.2748,-3.2748,-3.2783,-3.2865,-3.2979,-3.3026,-3.2916,-3.2086,-3.1469,-3.1102,-3.1068,-3.0769,-3.0404,-3.0404,-3.0404,-3.0404,-3.0402,-3.0408,-3.0414,-3.045,-3.0455,-3.0425,-3.0322,-3.0348,-3.0355,-3.0102,-2.9999,-2.9897,-2.966,-2.9476,-2.9353,-2.936,-2.9221,-2.913,-2.9272,-2.92,-2.9098,-2.9098,-2.9098,-2.8994,-2.8657,-2.86,-2.8669,-2.8825,-2.886,-2.8994,-2.94,-2.9448,-2.9559,-2.9869,-3.0019,-3.003,-2.9905,-2.9953,-2.9961,-2.9897,-2.9897,-2.9897,-2.9897,-2.9805,-2.9617,-2.9353,-2.922,-2.8814,-2.8156,-2.8347,-2.7731,0.0,0.0,0.0,0.0,0.0,0.0,0.0,0.0,-3.0004,-2.9845,-2.9732,-2.9635,-2.9561,-2.9494,-2.9368,-2.922,-2.9243,-2.9225,-2.906,-2.9408,-2.9678,-2.9742,-2.9872,-3.0019,-3.0164,-3.0011,-2.9988,-3.0178,-3.0171,-3.0242,-3.0445,-3.1104,-3.1564,-3.1725,-3.2527,-3.2947,-3.2947,-3.3119,-3.3196,-3.3196,-3.3196,-3.3196,-3.3196,-3.3196,-3.3196,-3.3196,-3.3203,-3.3271,-3.3419,-3.3563,-3.3543,-3.3458,-3.3528,-3.3059,-3.2299,-3.2061,-3.1523,-3.0931,-3.094,-3.0948,-3.0926,-3.0926,-3.0923,-3.094,-3.0902,-3.0793,-3.0633,-3.0458,-3.0362,-3.0292,-3.018,-3.0085,-3.0034,-3.014,-3.0046,-2.996,-3.0035,-2.995,-2.9853,-2.9906,-2.9748,-2.9609,-2.9609,-2.9609,-2.942,-2.8883,-2.8796,-2.8888,-2.9163,-2.9204,-2.9315,-2.9626,-2.966,-2.9745,-2.9965,-3.0188,-3.0213,-2.9984,-3.0087,-3.0087,-2.9937,-2.9929,-2.9921,-2.9897,-2.9864,-2.9681,-2.9365,-2.9272,-2.883,-2.8084,-2.7879,-2.7178,-3.0381,-3.0235,-3.003,-2.9971,-2.9975,-2.9896,0.0,0.0,-2.9754,-2.9505,-2.9438,-2.9418,-2.9418,-2.9277,-2.9129,-2.9107,-2.8966,-2.8851,-2.8846,-2.9027,-2.9183,-2.9183,-2.9767,-3.0157,-3.0116,-2.9977,-2.9988,-3.0178,-3.073,-3.1151,-3.1343,-3.2092,-3.255,-3.2565,-3.3394,-3.3853,-3.3853,-3.456,-3.4915,-3.4915,-3.4915,-3.4915,-3.4915,-3.4915,-3.4915,-3.4923,-3.4982,-3.5091,-3.5219,-3.5161,-3.5255,-3.5383,-3.527,-3.4806,-3.4097,-3.3239,-3.2889,-3.2808,-3.2865,-3.2859,-3.2792,-3.2792,-3.2841,-3.2846,-3.2675,-3.2152,-3.1622,-3.1543,-3.0969,-3.0392,-3.038,-3.0402,-3.0593,-3.1232,-3.1294,-3.1432,-3.2244,-3.1545,-3.082,-3.0988,-3.0257,-2.9609,-2.9609,-2.9609,-2.9564,-2.9503,-2.9494,-2.9512,-2.9548,-2.9538,-2.9626,-2.9832,-2.9874,-2.9972,-3.0234,-3.0279,-3.0279,-3.0253,-3.0266,-3.0226,-3.0087,-3.0087,-3.0015,-2.9897,-2.9725,-2.9617,-2.957,-2.9217,-2.8682,-2.7986,-2.7091,-2.647,-3.0013,-2.9909,-2.9796,0.0,-2.9614,-2.9579,-2.9428,-2.9408,-2.9349,-2.9256,-2.9137,-2.9056,-2.9056,-2.8955,-2.8862,0.0,-2.8767,-2.8675,-2.8675,-2.8885,-2.9038,-2.9034,-2.9447,-2.9722,-2.9696,-2.9533,-2.9786,-3.0663,-3.0949,-3.14,-3.21,-3.2935,-3.3393,-3.3393,-3.4238,-3.4694,-3.4694,-3.5037,-3.5209,-3.5209,-3.5209,-3.5209,-3.5209,-3.5209,-3.5209,-3.5209,-3.5315,-3.5367,-3.5395,-3.5552,-3.5579,-3.5531,-3.5588,-3.5456,-3.5087,-3.4091,-3.3465,-3.3108,-3.3136,-3.3122,-3.3113,-3.3158,-3.3184,-3.3173,-3.3044,-3.2796,-3.2522,-3.2428,-3.2141,-3.1852,-3.1896,-3.1953,-3.2077,-3.23,-3.2397,-3.2535,-3.2851,-3.2526,-3.2211,-3.2282,-3.1943,-3.1635,-3.1635,-3.1635,-3.1463,-3.0957,-3.0141,-2.9677,-2.9871,-2.9886,-2.9992,-3.029,-3.0308,-3.0321,-3.0359,-3.0425,-3.0414,-3.0318,-3.0343,-3.0311,-3.0226,-3.0226,-3.0152,-3.0026,-2.9918,-2.9794,-2.9608,-2.9435,-2.899,-2.8288,-2.7664,-2.7163,-2.975,-2.9634,0.0,-2.9299,-2.9258,-2.9268,-2.9204,-2.9118,-2.906,-2.8971,-2.8845,-2.8737,-2.8737,-2.8712,-2.8669,-2.8669,-2.8637,-2.86,-2.86,-2.8773,-2.8885,-2.8887,-2.906,-2.9275,-2.9479,-2.9451,-2.9861,-3.0885,-3.1346,-3.1939,-3.2778,-3.372,-3.4238,-3.4266,-3.4871,-3.5193,-3.5209,-3.5209,-3.5209,-3.5209,-3.5209,-3.5209,-3.5209,-3.5209,-3.5209,-3.5209,-3.5304,-3.5355,-3.5409,-3.5621,-3.5611,-3.5483,-3.5605,-3.5663,-3.5599,-3.483,-3.4279,-3.3865,-3.3865,-3.3865,-3.3874,-3.3925,-3.3955,-3.3952,-3.3841,-3.3664,-3.3451,-3.3315,-3.312,-3.2977,-3.3012,-3.3088,-3.3167,-3.3283,-3.3455,-3.3615,-3.3717,-3.3631,-3.3507,-3.3507,-3.3313,-3.3158,-3.3158,-3.3158,-3.2949,-3.2309,-3.1303,-3.0535,-3.0269,-3.0252,-3.0355,-3.0572,-3.0621,-3.0589,-3.0467,-3.0549,-3.0535,-3.0392,-3.0433,-3.0425,-3.0378,-3.0354,-3.026,-3.0157,-3.0126,-2.9984,-2.9742,-2.9653,-2.9289,-2.8658,-2.8291,-2.7883,-2.9689,-2.9456,-2.9237,-2.89,-2.8918,-2.8936,-2.8682,-2.8815,-2.8925,-2.8669,-2.8612,-2.86,-2.86,-2.86,-2.86,-2.86,-2.86,-2.86,-2.86,-2.86,-2.8612,-2.8612,-2.8625,-2.8927,0.0,-3.0082,-3.0365,-3.0609,-3.2126,-3.313,-3.3364,-3.4442,-3.51,-3.5162,-3.5181,-3.5206,-3.5209,-3.5209,-3.5209,-3.5209,-3.5209,-3.5209,-3.5209,-3.5209,-3.5209,-3.5209,-3.519,-3.5357,-3.559,-3.5532,-3.5585,-3.5684,-3.5541,-3.559,-3.5685,-3.5516,-3.562,-3.5825,-3.5825,-3.5825,-3.5828,-3.5828,-3.5862,-3.5878,-3.5686,-3.508,-3.4427,-3.4303,-3.3692,-3.3083,-3.3098,-3.3157,-3.3388,-3.4179,-3.4451,-3.4745,-3.5461,-3.5061,-3.4547,-3.4547,-3.387,-3.3288,-3.3288,-3.3288,-3.3288,-3.3268,-3.3225,-3.2558,-3.081,-3.0645,-3.0661,-3.062,-3.0653,-3.0664,-3.0597,-3.059,-3.0609,-3.0586,-3.0589,-3.0589,-3.0594,-3.0472,-3.0365,-3.0295,-3.0177,-3.0101,-3.0068,-2.976,-2.9419,-2.9066,-2.8669,-2.8301,-2.9474,-2.9346,-2.9212,-2.8827,-2.8773,-2.8737,-2.8523,-2.8569,-2.8639,-2.8543,-2.8574,-2.86,-2.86,-2.86,-2.86,-2.86,-2.86,-2.86,-2.86,-2.86,-2.86,-2.86,-2.86,0.0,0.0,0.0,0.0,-3.2076,-3.2721,-3.3446,-3.4415,-3.484,-3.5066,-3.5138,-3.5183,-3.5206,-3.5209,-3.5209,-3.5209,-3.5209,-3.5209,-3.5209,-3.5209,-3.5209,-3.5209,-3.5209,-3.5209,-3.5243,-3.535,-3.5494,-3.556,-3.5574,-3.562,-3.5696,-3.5748,-3.5621,-3.5729,-3.5953,-3.5921,-3.5908,-3.5916,-3.5947,-3.5983,-3.5985,-3.5864,-3.5645,-3.5399,-3.5273,-3.5033,-3.4829,-3.4839,-3.4915,-3.5059,-3.5285,-3.541,-3.5518,-3.5716,-3.5563,-3.5404,-3.5404,-3.5154,-3.4959,-3.4959,-3.4959,-3.4776,-3.4238,-3.3189,-3.2211,-3.1604,-3.1033,-3.0684,-3.0664,-3.0699,-3.0682,-3.0664,-3.0661,-3.0661,-3.0661,-3.0661,-3.0664,-3.0669,-3.063,-3.0545,-3.0428,-3.0384,-3.0319,-3.0233,-3.003,-2.9817,-2.955,-2.9103,-2.8773,-2.9241,-2.9107,-2.9004,-2.8657,-2.8619,-2.8644,-2.8463,-2.8497,-2.8543,-2.8484,-2.8523,-2.8562,-2.8523,-2.8549,-2.8562,-2.8523,-2.8549,-2.8562,-2.8562,-2.8587,-2.86,-2.86,-2.86,-2.9016,0.0,0.0,0.0,-3.2588,-3.3153,-3.3795,-3.4663,-3.4879,-3.5011,-3.5092,-3.5138,-3.5189,-3.5201,-3.5209,-3.5209,-3.5209,-3.5209,-3.5209,-3.5209,-3.5209,-3.5223,-3.5266,-3.5266,-3.5307,-3.5399,-3.5565,-3.5621,-3.5618,-3.5697,-3.5756,-3.5798,-3.5709,-3.5814,-3.5988,-3.5926,-3.5921,-3.594,-3.5986,-3.5992,-3.5988,-3.5945,-3.5924,-3.588,-3.5797,-3.5764,-3.5771,-3.5778,-3.5853,-3.5921,-3.5848,-3.5884,-3.5921,-3.5843,-3.5849,-3.5862,-3.5862,-3.5862,-3.5862,-3.5862,-3.5862,-3.5693,-3.5183,-3.3887,-3.2742,-3.2122,-3.1565,-3.1118,-3.0773,-3.0764,-3.0767,-3.0734,-3.0732,-3.0732,-3.0732,-3.0717,-3.0724,-3.077,-3.0691,-3.0647,-3.062,-3.0544,-3.0463,-3.0375,-3.0203,-3.0052,-2.9902,-2.9448,-2.918,-2.8975,-2.8795,-2.8646,-2.8388,-2.8492,-2.865,-2.8432,-2.8549,-2.8637,-2.8432,-2.8458,-2.8497,0.0,0.0,-2.8497,-2.8406,-2.8458,-2.8479,-2.8479,-2.8549,-2.8587,0.0,0.0,0.0,0.0,0.0,0.0,-3.2198,0.0,-3.4185,-3.4221,-3.463,-3.4945,-3.5111,-3.5092,-3.5136,-3.5201,-3.5209,-3.5209,-3.5209,-3.5209,-3.5209,-3.5209,-3.5209,-3.5266,-3.5398,-3.5398,-3.5504,-3.5689,-3.5693,-3.5733,-3.5795,-3.5795,-3.5801,-3.5813,-3.581,-3.5892,-3.5988,-3.5931,-3.5945,-3.5992,-3.5992,-3.5992,-3.5992,-3.5992,-3.5968,-3.5914,-3.5914,-3.5914,-3.5919,-3.5906,-3.5956,-3.5988,-3.5911,-3.5949,-3.5975,-3.5914,-3.597,-3.5996,-3.5996,-3.5996,-3.5996,-3.5996,-3.5996,-3.5996,-3.5996,-3.5293,-3.414,-3.2447,-3.2204,-3.1854,-3.0961,-3.0896,-3.0878,-3.0805,-3.0803,-3.0803,-3.0803,-3.0757,-3.077,-3.0898,-3.072,-3.0667,-3.08,-3.0601,-3.0511,-3.0507,-3.0307,-3.0184,-3.0109,-2.9708,-2.9522,-2.8857,-2.8791,-2.8719,-2.8505,-2.8492,-2.851,-2.8304,-2.8327,-2.8393,-2.834,-2.851,-2.8612,0.0,0.0,0.0,-2.8437,-2.8406,0.0,-2.8419,-2.8484,0.0,-2.8536,0.0,-2.9233,-3.0853,-3.0998,0.0,0.0,-3.3602,-3.4074,-3.4484,-3.4615,-3.482,-3.5084,-3.5092,-3.5136,-3.5201,-3.5209,-3.5209,-3.5209,-3.5209,-3.5209,-3.5209,-3.5209,-3.5266,-3.5398,-3.5398,-3.5495,-3.5635,-3.5687,-3.5733,-3.5799,-3.579,-3.5858,-3.5942,-3.5897,-3.5938,-3.5991,-3.5983,-3.5986,-3.5992,-3.5992,-3.5992,-3.5992,-3.5992,-3.5986,-3.596,-3.596,-3.596,-3.5965,-3.5961,-3.5987,-3.5992,-3.5974,-3.5995,-3.5996,-3.5975,-3.5995,-3.5996,-3.5996,-3.5996,-3.5996,-3.5996,-3.5953,-3.5924,-3.5924,-3.5692,-3.517,-3.416,-3.2968,-3.2109,-3.1874,-3.1289,-3.0898,-3.0878,-3.0878,-3.0878,-3.0878,-3.0856,-3.0857,-3.0898,-3.0855,-3.0826,-3.08,-3.0691,-3.063,-3.0571,-3.0414,-3.034,-3.0318,-3.0,-2.9849,-2.8669,-2.8607,-2.8505,-2.8393,-2.8427,-2.8458,-2.825,-2.8367,-2.8492,-2.8419,-2.8594,-2.8706,-2.8484,-2.8562,-2.8587,0.0,0.0,0.0,-2.8353,-2.8419,-2.8458,0.0,-2.883,0.0,-3.0835,-3.1297,-3.2053,0.0,-3.3643,-3.3985,-3.4397,-3.4528,-3.473,-3.5057,-3.5066,-3.511,-3.5196,-3.5193,-3.5209,-3.5209,-3.5209,-3.5209,-3.5209,-3.5209,-3.5304,-3.5489,0.0,-3.5588,-3.5728,-3.5764,-3.5811,-3.5843,-3.5886,-3.5936,-3.5999,-3.5966,-3.5976,-3.5992,-3.5992,-3.5992,-3.5992,-3.5992,-3.5992,-3.5992,-3.5992,-3.5992,-3.5992,-3.5992,-3.5992,-3.5996,-3.6009,-3.5991,-3.5992,-3.5995,-3.5996,-3.5996,-3.5996,-3.5996,-3.5996,-3.5996,-3.5952,-3.5924,-3.5951,-3.5896,-3.5851,-3.5851,-3.5809,-3.5658,-3.5232,-3.4025,-3.3068,-3.2716,-3.1924,-3.142,-3.142,-3.1093,-3.0898,-3.0898,-3.0898,-3.0898,-3.0898,-3.0877,-3.0855,-3.0834,-3.0773,-3.0713,-3.0649,-3.0505,-3.0404,-3.0342,-3.0111,-2.9984,-2.8471,-2.8327,-2.8196,-2.8196,-2.8327,-2.8419,-2.8237,-2.8492,-2.8725,-2.8543,-2.8731,-2.8851,-2.8556,-2.8574,-2.8536,-2.825,0.0,-2.8286,-2.8286,-2.834,-2.8398,-2.8398,-2.9161,-3.0026,-3.082,-3.1685,-3.2524,-3.3339,-3.3619,-3.3868,-3.4185,-3.4427,-3.4689,-3.4992,-3.5011,-3.5084,-3.52,-3.5204,-3.5209,-3.5209,-3.5209,-3.5209,-3.5209,-3.5209,-3.534,-3.5566,-3.5566,0.0,-3.5866,-3.5867,-3.5877,-3.5885,-3.597,-3.5999,-3.6002,-3.6009,-3.5992,-3.5992,-3.5992,-3.5992,-3.5992,-3.5992,-3.5992,-3.5992,-3.5992,-3.5992,-3.5992,-3.5992,-3.5992,-3.5996,-3.6008,-3.5991,-3.5992,-3.5995,-3.5996,-3.5996,-3.5996,-3.5996,-3.5996,-3.5996,-3.5896,-3.5836,-3.589,-3.5838,-3.58,-3.58,-3.5791,-3.5788,-3.5788,-3.5037,-3.4225,-3.354,-3.274,-3.2214,-3.2097,-3.1456,-3.0995,-3.0898,-3.0898,-3.0898,-3.0898,-3.0834,-3.0833,-3.0898,-3.0831,-3.0764,-3.0718,-3.0591,-3.0453,-3.0321,-3.0136,-3.0037,-2.825,-2.8223,-2.8196,-2.8196,-2.8223,-2.8237,-2.8196,-2.8435,0.0,-2.8531,-2.8857,-2.9012,-2.8582,-2.8644,-2.8644,-2.8264,-2.8209,-2.8209,-2.8209,-2.8291,-2.8313,0.0,-2.9134,-3.0026,-3.082,-3.1685,0.0,0.0,0.0,-3.3684,-3.4173,-3.4245,-3.448,-3.4992,-3.512,-3.5183,-3.52,-3.5204,-3.5209,-3.5209,-3.5209,-3.5209,-3.5209,-3.5209,-3.53,-3.5432,-3.5432,0.0,-3.5655,-3.5717,-3.5767,-3.5824,-3.5953,-3.5997,-3.5991,-3.5992,-3.5992,-3.5992,-3.5992,-3.5992,-3.5992,-3.5992,-3.5992,-3.5992,-3.5992,-3.5992,-3.5992,-3.5992,-3.5992,-3.5995,-3.6003,-3.6009,-3.5994,-3.5934,-3.5955,-3.5976,-3.5927,-3.5954,-3.5996,-3.5996,-3.5948,-3.5889,-3.5893,-3.5805,-3.5722,-3.5722,-3.5717,-3.5723,-3.5723,-3.4994,-3.4442,-3.4303,-3.3568,-3.2793,-3.2077,-3.1891,-3.1521,-3.0864,-3.0826,-3.0833,-3.0898,-3.0898,-3.0898,-3.0898,-3.0828,-3.0791,-3.0785,-3.0691,-3.0625,-3.054,-3.0345,-3.019,-2.8196,-2.8196,-2.8196,-2.8196,-2.8196,-2.8209,-2.825,0.0,0.0,-2.8556,-2.8809,-2.8927,-2.8569,-2.8582,0.0,-2.825,-2.8196,-2.8196,-2.8196,-2.8223,-2.825,-2.825,-2.9457,-3.0418,0.0,-3.205,-3.2977,-3.3375,0.0,-3.3577,-3.3972,-3.4257,-3.4539,-3.4781,-3.503,-3.5147,-3.5147,-3.5176,-3.5209,-3.5209,-3.5209,-3.5209,-3.5209,-3.5209,-3.5266,-3.5398,-3.5398,0.0,-3.565,-3.5693,-3.5745,-3.5804,-3.5837,-3.5889,-3.5945,-3.5945,-3.5978,-3.5992,-3.5992,-3.5992,-3.5992,-3.5992,-3.5992,-3.5992,-3.5992,-3.5992,-3.5992,-3.5992,-3.5963,-3.5951,-3.5986,-3.5993,-3.5976,-3.593,-3.5929,-3.5948,-3.5917,-3.5895,-3.5918,-3.5949,-3.588,-3.5817,-3.5838,-3.5764,-3.5703,-3.5709,-3.5694,-3.5704,-3.5704,-3.5364,-3.5126,-3.5126,-3.44,-3.3761,-3.3333,-3.2494,-3.1843,-3.1455,-3.0991,-3.0773,-3.0853,-3.0856,-3.0858,-3.0898,-3.0872,-3.082,-3.0758,-3.0711,-3.0681,-3.0591,-3.0507,-3.0404,-2.8223,-2.8237,-2.8237,-2.8196,-2.8209,-2.8237,-2.8286,-2.8466,0.0,-2.8625,-2.8791,-2.8863,-2.8594,-2.8543,-2.8484,0.0,-2.8223,-2.8223,-2.8223,-2.8209,-2.8196,0.0,-2.9596,0.0,-3.079,-3.2235,0.0,-3.3393,0.0,0.0,-3.3793,-3.4257,-3.4517,-3.4517,-3.484,-3.5011,-3.5011,-3.5143,-3.5209,-3.5209,-3.5209,-3.5209,-3.5209,-3.5209,-3.5262,-3.5369,-3.5369,0.0,0.0,-3.564,-3.5706,-3.5781,-3.5733,-3.5807,-3.5926,-3.5926,-3.5949,-3.5992,-3.5992,-3.5992,-3.5992,-3.5992,-3.5992,-3.5992,-3.5992,-3.5992,-3.5992,-3.5992,-3.5951,-3.5918,-3.5987,-3.5995,-3.597,-3.5925,-3.59,-3.5895,-3.5895,-3.5861,-3.5851,-3.5892,-3.5791,-3.5721,-3.5775,-3.5728,-3.5703,-3.5702,-3.5699,-3.5692,-3.5709,-3.5704,-3.5704,-3.5704,-3.5132,-3.4689,-3.4495,-3.3101,-3.2168,-3.1988,-3.1169,-3.073,-3.0801,-3.0811,-3.0858,-3.0897,-3.0895,-3.0845,-3.0735,-3.0734,-3.068,-3.0593,-3.0593,-3.056,-2.8313,-2.8345,-2.8358,-2.8223,-2.825,-2.8286,-2.83,0.0,-2.8682,-2.8694,-2.8897,-2.8993,-2.8743,-2.8682,-2.8625,-2.8406,-2.8327,-2.8286,-2.8286,-2.825,-2.8196,-2.8196,0.0,0.0,-3.0736,-3.1729,0.0,0.0,0.0,0.0,-3.3793,-3.4074,-3.4233,-3.4233,-3.4567,-3.4743,-3.4743,-3.5044,-3.5209,-3.5209,-3.5209,-3.5209,-3.5209,-3.5209,-3.5218,-3.5215,-3.5215,0.0,0.0,-3.5483,-3.563,-3.5804,-3.5798,-3.5866,-3.5988,-3.5988,-3.5989,-3.5992,-3.5992,-3.5992,-3.5992,-3.5992,-3.5992,-3.5992,-3.5992,-3.5992,-3.5992,-3.5992,-3.5951,-3.5917,-3.598,-3.5994,-3.5989,-3.5918,-3.5895,-3.5895,-3.5895,-3.5949,-3.5974,-3.5918,-3.5838,-3.5778,-3.5722,-3.5698,-3.5697,-3.5697,-3.5694,-3.5693,-3.5701,-3.5704,-3.5704,-3.5704,-3.5637,-3.5275,-3.4482,-3.3538,-3.2686,-3.1953,-3.1145,-3.0734,-3.0808,-3.0859,-3.0897,-3.0895,-3.0891,-3.0888,-3.0885,-3.0821,-3.0724,-3.0593,-3.0593,-3.0527,-2.8384,-2.8367,-2.8398,-2.8331,-2.8345,-2.8367,-2.8419,0.0,-2.857,-2.8582,-2.8663,-2.8682,-2.8549,-2.8523,-2.8497,-2.8406,-2.8367,0.0,-2.8353,-2.8345,-2.8318,-2.8318,-2.9107,0.0,0.0,0.0,-3.2524,0.0,0.0,0.0,-3.3549,-3.3802,-3.3972,-3.4023,-3.4461,-3.4733,-3.4763,-3.5044,-3.5209,-3.5209,-3.5209,-3.5209,-3.5209,-3.5281,-3.5326,-3.5326,-3.5417,0.0,0.0,-3.5629,-3.5693,-3.5798,-3.5767,-3.5827,-3.5938,-3.5938,-3.5974,-3.5992,-3.5992,-3.5992,-3.5992,-3.5992,-3.5992,-3.5992,-3.5992,-3.5992,-3.5992,-3.5992,-3.5951,-3.5918,-3.5935,-3.5911,-3.586,-3.5853,-3.5875,-3.5896,-3.5845,-3.5861,-3.5869,-3.5847,-3.5797,-3.5737,-3.5702,-3.5698,-3.5704,-3.5708,-3.5704,-3.5698,-3.569,-3.5704,-3.5704,-3.5704,-3.5704,-3.5549,-3.5206,-3.4429,-3.3583,-3.2738,-3.193,-3.1285,-3.0828,-3.0838,-3.0859,-3.0891,-3.0866,-3.0844,-3.0844,-3.0765,-3.0717,-3.0675,-3.1158,-3.1323,-2.8458,-2.8445,-2.8463,-2.8411,-2.8406,-2.8445,0.0,0.0,-2.8523,-2.8536,-2.8536,-2.8523,-2.8458,-2.8458,-2.8458,-2.8458,0.0,-2.8432,-2.8432,-2.8406,-2.8411,-2.8411,0.0,-3.0026,0.0,-3.1902,-3.2795,0.0,0.0,0.0,-3.3393,-3.3577,-3.3712,-3.378,-3.4244,-3.4559,-3.4674,-3.4973,-3.5132,-3.5209,-3.5209,-3.5215,-3.5251,-3.5369,-3.5418,-3.5464,-3.5554,0.0,0.0,-3.5741,-3.5753,-3.585,-3.5797,-3.582,-3.5931,-3.5931,-3.5953,-3.5992,-3.5992,-3.5992,-3.5992,-3.5992,-3.5992,-3.5992,-3.5992,-3.5992,-3.5992,-3.5992,-3.5966,-3.5936,-3.5937,-3.5886,-3.5845,-3.583,-3.5886,-3.5907,-3.5824,-3.5825,-3.5836,-3.5777,-3.5758,-3.5722,-3.5706,-3.57,-3.5709,-3.5702,-3.5704,-3.5702,-3.569,-3.5704,-3.5704,-3.5704,-3.5704,-3.5704,-3.5704,-3.4956,-3.4233,-3.3627,-3.2618,-3.1774,-3.1204,-3.0956,-3.0838,-3.0866,-3.0822,-3.0937,-3.1172,-3.1118,-3.1205,-3.144,-3.1988,-3.2328,-2.8582,-2.8549,-2.8562,-2.8419,-2.8445,-2.8492,0.0,-2.8492,-2.8505,-2.8587,-2.86,-2.86,-2.86,-2.8587,-2.8587,-2.8587,-2.8549,0.0,-2.8492,-2.8445,-2.8411,0.0,0.0,-3.0026,-3.082,-3.2408,0.0,0.0,0.0,0.0,-3.3393,-3.3393,-3.3437,-3.3491,-3.3829,-3.4142,-3.4401,-3.4743,-3.501,-3.5209,-3.5209,-3.5278,-3.5398,-3.5398,-3.547,0.0,0.0,0.0,0.0,-3.5741,-3.5826,-3.5995,-3.5924,-3.594,-3.5992,-3.5992,-3.5992,-3.5992,-3.5992,-3.5992,-3.5992,-3.5992,-3.5992,-3.5992,-3.5992,-3.5992,-3.5992,-3.5992,-3.5992,-3.6,-3.5996,-3.5996,-3.5975,-3.5911,-3.5956,-3.5956,-3.5836,-3.5902,-3.5933,-3.5732,-3.5746,-3.5788,-3.5707,-3.5694,-3.5706,-3.5706,-3.5698,-3.5702,-3.5701,-3.5704,-3.5704,-3.5704,-3.5704,-3.5704,-3.5704,-3.4954,-3.4489,-3.4489,-3.2971,-3.2107,-3.2089,-3.1325,-3.0866,-3.08,-3.08,-3.1211,-3.2091,-3.203,-3.2402,-3.3173,-3.304,-3.3415,-2.8904,-2.8863,-2.8815,-2.8587,-2.8549,-2.8574,-2.8574,-2.8574,-2.8574,-2.8587,-2.86,-2.86,-2.86,-2.86,-2.86,-2.86,-2.8574,-2.8574,0.0,0.0,0.0,-2.8536,-2.9755,-3.0686,0.0,0.0,0.0,0.0,0.0,0.0,-3.3393,-3.3393,-3.3452,-3.3563,-3.3842,-3.4142,-3.4476,-3.4762,-3.4992,-3.5206,-3.5193,-3.5215,-3.5278,-3.5369,-3.547,0.0,0.0,0.0,0.0,-3.5903,-3.5948,-3.6007,-3.598,-3.5983,-3.5992,-3.5992,-3.5992,-3.5992,-3.5992,-3.5992,-3.5992,-3.5992,-3.5992,-3.5992,-3.5992,-3.5992,-3.5992,-3.5992,-3.5966,-3.5936,-3.5937,-3.5935,-3.5928,-3.5916,-3.5912,-3.5917,-3.5879,-3.5908,-3.5912,-3.5849,-3.5824,-3.5785,-3.5715,-3.5696,-3.5706,-3.5701,-3.5697,-3.5707,-3.569,-3.5704,-3.5704,-3.5704,-3.5694,-3.5696,-3.5697,-3.5502,-3.5159,-3.4607,-3.3573,-3.2711,-3.2124,-3.1277,-3.0822,-3.08,-3.1387,-3.1816,-3.2091,-3.2621,-3.3245,-3.3955,-3.3859,-3.4276,-2.9191,-2.9101,-2.9052,-2.8803,-2.8743,0.0,-2.8625,-2.86,-2.86,-2.86,-2.86,-2.86,-2.86,-2.86,-2.86,-2.86,-2.86,-2.86,0.0,0.0,0.0,-2.8977,0.0,0.0,0.0,0.0,0.0,0.0,0.0,0.0,-3.3393,-3.3393,-3.3452,-3.3563,-3.3753,-3.4023,-3.4374,-3.463,-3.486,-3.5084,-3.516,-3.5223,-3.5274,-3.5357,-3.547,0.0,0.0,0.0,0.0,-3.5977,-3.5995,-3.6007,-3.5991,-3.5992,-3.5992,-3.5992,-3.5992,-3.5992,-3.5992,-3.5992,-3.5992,-3.5992,-3.5992,-3.5992,-3.5992,-3.5992,-3.5992,-3.5992,-3.5965,-3.5934,-3.5934,-3.5937,-3.5934,-3.5932,-3.5937,-3.5937,-3.5912,-3.5915,-3.5915,-3.5874,-3.5843,-3.5819,-3.5725,-3.5718,-3.5725,-3.5698,-3.5708,-3.5708,-3.5708,-3.5702,-3.5706,-3.5704,-3.5698,-3.5719,-3.5761,-3.5808,-3.5623,-3.513,-3.4021,-3.3168,-3.2602,-3.1447,-3.0956,-3.1289,-3.1816,-3.2416,-3.3046,-3.3796,-3.4378,-3.4741,-3.47,-3.4988,0.0,-2.9328,-2.9272,-2.906,-2.9003,-2.8934,-2.8662,-2.86,0.0,-2.86,-2.86,-2.86,-2.86,-2.86,-2.86,-2.86,-2.86,-2.86,0.0,-2.86,0.0,0.0,-3.0473,0.0,0.0,0.0,0.0,0.0,0.0,0.0,-3.3393,-3.3393,-3.3437,-3.352,-3.3591,-3.3807,-3.4173,-3.4394,-3.4632,-3.4879,-3.5098,-3.527,-3.5385,-3.5385,-3.5457,0.0,0.0,0.0,0.0,-3.5936,-3.5988,-3.6001,-3.6009,-3.5992,-3.5992,-3.5992,-3.5992,-3.5992,-3.5992,-3.5992,-3.5992,-3.5992,-3.5992,-3.5992,-3.5992,-3.5992,-3.5992,-3.5992,-3.5992,-3.5992,-3.5992,-3.5999,-3.6003,-3.6003,-3.6003,-3.597,-3.5917,-3.5957,-3.5957,-3.5832,-3.5867,-3.5863,-3.5746,-3.5765,-3.5785,-3.5709,-3.5709,-3.5705,-3.5698,-3.5708,-3.5704,-3.5706,-3.5709,-3.5752,-3.5891,-3.5896,-3.5878,-3.5819,-3.431,-3.3377,-3.3318,-3.1698,-3.1211,-3.2071,-3.2225,-3.3064,-3.4689,-3.5296,-3.5564,-3.5514,-3.5507,-3.55,-2.967,0.0,-2.9513,-2.9097,-2.9003,-2.8934,0.0,0.0,0.0,0.0,0.0,-2.86,-2.86,-2.86,-2.86,-2.86,-2.86,-2.86,-2.86,0.0,0.0,-2.9606,-3.0473,0.0,0.0,0.0,0.0,0.0,0.0,-3.3393,-3.3393,-3.3393,-3.352,-3.3807,-3.3815,-3.3868,-3.3972,-3.4272,-3.4529,-3.4753,-3.5053,-3.5226,-3.5246,-3.5246,-3.5319,0.0,0.0,0.0,-3.5799,-3.5833,-3.5899,-3.6001,-3.6009,-3.5992,-3.5992,-3.5992,-3.5992,-3.5992,-3.5992,-3.5992,-3.5992,-3.5992,-3.5992,-3.5992,-3.5992,-3.5992,-3.5992,-3.5992,-3.5992,-3.5992,-3.5992,-3.5994,-3.5995,-3.5995,-3.5995,-3.5999,-3.5971,-3.5989,-3.599,-3.5957,-3.5914,-3.5884,-3.5858,-3.5816,-3.5792,-3.579,-3.5788,-3.575,-3.5705,-3.5746,-3.5752,-3.5702,-3.5797,-3.5864,-3.5896,-3.5897,-3.5644,-3.5015,-3.3989,-3.3103,-3.2422,-3.1368,-3.1211,-3.2071,-3.3368,-3.4472,-3.5434,-3.5553,-3.559,-3.5581,-3.5515,-3.55,-2.9644,-2.9617,-2.9465,-2.909,-2.8996,-2.8934,-2.8662,0.0,0.0,0.0,0.0,-2.86,-2.86,-2.8574,-2.8562,-2.8587,-2.8574,0.0,0.0,0.0,-2.9148,-2.9155,-3.0564,0.0,0.0,0.0,0.0,0.0,0.0,-3.3393,-3.3393,-3.3393,-3.3495,-3.3657,-3.3671,-3.382,-3.4124,-3.4439,-3.4643,-3.4753,-3.5044,-3.5209,-3.5209,-3.5209,-3.5239,0.0,0.0,0.0,-3.5706,-3.5768,-3.588,-3.5994,-3.6002,-3.6009,-3.5992,-3.5992,-3.5992,-3.5992,-3.5992,-3.5992,-3.5992,-3.5992,-3.5992,-3.5992,-3.5992,-3.5992,-3.5992,-3.5992,-3.5992,-3.5992,-3.5992,-3.5992,-3.5992,-3.5992,-3.5992,-3.5994,-3.5999,-3.6002,-3.6004,-3.6004,-3.5976,-3.5934,-3.5915,-3.587,-3.5844,-3.5841,-3.584,-3.5833,-3.5808,-3.5802,-3.5802,-3.5784,-3.5863,-3.5917,-3.5935,-3.5954,-3.558,-3.475,-3.3887,-3.3007,-3.215,-3.1238,-3.1338,-3.2582,-3.3851,-3.4886,-3.5655,-3.5579,-3.5559,-3.5559,-3.5521,-3.55,-2.9484,-2.9385,-2.9259,-2.9049,-2.9,-2.8934,-2.8662,0.0,0.0,0.0,0.0,-2.86,-2.86,-2.8562,0.0,0.0,0.0,0.0,-2.8492,-2.9083,-2.926,-2.8582,0.0,0.0,0.0,0.0,0.0,0.0,0.0,-3.3393,-3.3393,-3.3393,-3.3408,-3.3466,-3.3509,-3.3802,-3.4409,-3.463,-3.4714,-3.4733,-3.5044,-3.5209,-3.5209,-3.5209,-3.5209,-3.5218,0.0,0.0,-3.5571,-3.5693,-3.5824,-3.5975,-3.5968,-3.5981,-3.5992,-3.5992,-3.5992,-3.5992,-3.5992,-3.5992,-3.5992,-3.5992,-3.5992,-3.5992,-3.5992,-3.5992,-3.5992,-3.5992,-3.5992,-3.5992,-3.5992,-3.5992,-3.5992,-3.5992,-3.5992,-3.5992,-3.5992,-3.5998,-3.6001,-3.5994,-3.5992,-3.5976,-3.5937,-3.5918,-3.5918,-3.5918,-3.5918,-3.5918,-3.5897,-3.5865,-3.584,-3.5896,-3.5917,-3.5936,-3.5995,-3.5875,-3.5426,-3.4569,-3.3806,-3.2947,-3.1934,-3.126,-3.1615,-3.3173,-3.3972,-3.4773,-3.5579,-3.5522,-3.55,-3.55,-3.55,-3.5486,-2.9283,-2.9119,-2.891,-2.8971,-2.9004,-2.8932,-2.8657,0.0,0.0,0.0,0.0,0.0,0.0,-2.8587,-2.8587,0.0,0.0,-2.837,0.0,0.0,-2.8269,0.0,0.0,0.0,0.0,0.0,0.0,0.0,0.0,-3.3393,-3.3393,-3.3393,-3.3491,-3.3726,-3.3959,-3.4233,-3.458,-3.445,-3.4379,-3.4379,-3.4944,-3.5209,-3.5209,-3.5209,-3.5209,-3.5209,0.0,-3.5304,-3.5432,-3.545,-3.5616,-3.582,-3.5836,-3.5897,-3.5992,-3.5992,-3.5992,-3.5992,-3.5992,-3.5992,-3.5992,-3.5992,-3.5992,-3.5992,-3.5992,-3.5992,-3.5992,-3.5992,-3.5992,-3.5992,-3.5992,-3.5992,-3.5992,-3.5992,-3.5992,-3.5992,-3.5992,-3.5994,-3.5994,-3.5992,-3.5996,-3.6,-3.598,-3.5979,-3.5979,-3.598,-3.598,-3.5969,-3.5917,-3.5937,-3.5956,-3.5898,-3.5956,-3.5986,-3.5994,-3.533,-3.453,-3.365,-3.3474,-3.2674,-3.1074,-3.1512,-3.2235,-3.318,-3.3926,-3.4704,-3.5515,-3.5514,-3.55,-3.55,-3.55,-3.541,-2.9104,-2.8991,-2.8815,-2.8658,-2.87,-2.8694,-2.8404,0.0,0.0,0.0,0.0,0.0,0.0,0.0,-2.8471,-2.8445,0.0,-2.8322,-2.7954,-2.8283,0.0,0.0,0.0,0.0,0.0,0.0,0.0,0.0,0.0,0.0,-3.3393,-3.3393,-3.3452,-3.3577,-3.3698,-3.3895,-3.4173,-3.4225,-3.4412,-3.4743,-3.5044,-3.5209,-3.5209,-3.5209,-3.5209,-3.5209,0.0,-3.5285,-3.5398,-3.5399,-3.5546,-3.5741,-3.5797,-3.5867,-3.5947,-3.5986,-3.5992,-3.5992,-3.5992,-3.5992,-3.5992,-3.5992,-3.5992,-3.5992,-3.5992,-3.5992,-3.5992,-3.5992,-3.5992,-3.5992,-3.5992,-3.5992,-3.5992,-3.5992,-3.5992,-3.5988,-3.5949,-3.598,-3.5988,-3.5949,-3.598,-3.5992,-3.5992,-3.5992,-3.5992,-3.5992,-3.5992,-3.5998,-3.5951,-3.5985,-3.5983,-3.5952,-3.5985,-3.5996,-3.5992,-3.5209,-3.4135,-3.2773,-3.2264,-3.1606,-3.0721,-3.1076,-3.1638,-3.2376,-3.3179,-3.4,-3.4795,-3.5153,-3.5339,-3.5339,-3.5226,-3.5124,-2.9005,-2.894,-2.8803,-2.8489,0.0,0.0,0.0,0.0,0.0,0.0,0.0,0.0,0.0,-2.8255,0.0,-2.8313,-2.8286,-2.8146,-2.78,0.0,0.0,0.0,0.0,0.0,0.0,0.0,0.0,0.0,0.0,0.0,-3.2832,-3.2832,-3.2832,-3.2832,-3.3085,-3.3299,-3.3513,-3.3969,-3.4456,-3.5011,-3.5134,-3.5193,-3.5209,-3.5209,-3.5209,-3.5209,-3.5209,-3.5262,-3.5343,-3.5343,-3.5464,-3.563,-3.57,-3.5783,-3.5855,-3.5947,-3.5981,-3.5981,-3.5989,-3.5992,-3.5992,-3.5992,-3.5992,-3.5992,-3.5992,-3.5992,-3.5992,-3.5992,-3.5992,-3.5992,-3.5992,-3.5992,-3.5992,-3.5992,-3.5986,-3.5953,-3.5919,-3.5912,-3.5921,-3.5894,-3.594,-3.5983,-3.5991,-3.5992,-3.5992,-3.5992,-3.5992,-3.5992,-3.5992,-3.5992,-3.5992,-3.5992,-3.5991,-3.5811,-3.5373,-3.4568,-3.3393,-3.1829,-3.1108,-3.0706,-3.0586,-3.0623,-3.0987,-3.169,-3.2532,-3.3369,-3.4179,-3.4852,-3.5174,-3.5166,-3.4992,-3.4879,-2.9005,-2.8912,-2.8798,-2.8773,-2.8737,0.0,-2.7872,-2.794,0.0,-2.7786,0.0,0.0,0.0,-2.7648,-2.7751,-2.8295,-2.8091,-2.7698,0.0,0.0,0.0,0.0,0.0,0.0,0.0,0.0,0.0,0.0,0.0,0.0,-3.1179,-3.1179,-3.1179,-3.1179,-3.214,-3.2669,-3.2682,-3.3691,-3.4379,-3.4743,-3.5038,-3.5206,-3.5209,-3.5209,-3.5209,-3.5209,-3.5209,-3.5218,-3.5207,-3.5207,-3.5292,-3.5432,-3.5494,-3.5605,-3.5737,-3.5852,-3.5914,-3.5921,-3.5981,-3.5992,-3.5992,-3.5992,-3.5992,-3.5992,-3.5992,-3.5992,-3.5992,-3.5992,-3.5992,-3.5992,-3.5992,-3.5992,-3.5992,-3.5992,-3.5947,-3.5914,-3.5892,-3.5804,-3.5756,-3.588,-3.5892,-3.5931,-3.5988,-3.5992,-3.5992,-3.5992,-3.5992,-3.5992,-3.5992,-3.5992,-3.5992,-3.5992,-3.6006,-3.5281,-3.3549,-3.2656,-3.1737,-3.0684,-3.0614,-3.0591,-3.0506,-3.0519,-3.0887,-3.1675,-3.2423,-3.324,-3.4103,-3.477,-3.5105,-3.5105,-3.4963,-3.4762,-2.894,-2.8725,-2.8476,-2.8443,-2.8391,0.0,0.0,-2.7911,-2.7964,-2.7489,-2.755,0.0,0.0,0.0,-2.738,-2.7627,-2.7537,-2.7384,0.0,0.0,0.0,0.0,0.0,0.0,0.0,0.0,0.0,0.0,0.0,0.0,-3.0998,-3.0998,-3.0998,-3.0998,-3.1397,-3.1689,-3.1862,-3.2262,-3.2637,-3.2964,-3.432,-3.5038,-3.5206,-3.5193,-3.5209,-3.5209,-3.5209,-3.5209,-3.5209,-3.5209,-3.5254,-3.534,-3.5457,-3.5581,-3.5729,-3.5846,-3.5843,-3.5801,-3.5953,-3.598,-3.5942,-3.5986,-3.5992,-3.5992,-3.5992,-3.5992,-3.5992,-3.5992,-3.5992,-3.5992,-3.5992,-3.5992,-3.5992,-3.5992,-3.5945,-3.5878,-3.5794,-3.5741,-3.5689,-3.5711,-3.5753,-3.5774,-3.582,-3.5804,-3.5839,-3.5934,-3.5869,-3.5853,-3.5986,-3.5955,-3.5949,-3.601,-3.5442,-3.4536,-3.3258,-3.2286,-3.1366,-3.0437,-3.0475,-3.052,-3.0429,-3.0433,-3.0554,-3.0815,-3.1642,-3.2459,-3.3283,-3.38,-3.433,-3.4832,-3.4505,-3.4286,-2.8761,-2.8451,-2.8125,-2.8088,0.0,0.0,-2.7609,-2.7768,-2.7794,-2.7164,-2.7213,-2.7321,-2.7255,0.0,0.0,0.0,-2.7133,0.0,0.0,0.0,0.0,0.0,0.0,0.0,0.0,0.0,0.0,0.0,0.0,0.0,0.0,-3.0242,-3.0242,-3.0242,-3.0477,-3.0711,-3.0893,-3.1137,-3.144,-3.1756,-3.3098,-3.394,-3.4293,-3.4603,-3.4759,-3.4846,-3.5095,-3.5209,-3.5209,-3.5209,-3.5242,-3.5304,-3.5418,-3.5535,-3.5655,-3.5757,-3.5749,-3.5696,-3.5844,-3.5904,-3.5916,-3.5949,-3.5985,-3.5992,-3.5992,-3.5992,-3.5992,-3.5992,-3.5992,-3.5992,-3.5992,-3.5992,-3.5992,-3.5992,-3.5914,-3.5804,-3.571,-3.5669,-3.5635,-3.5593,-3.5645,-3.5683,-3.5693,-3.5698,-3.5737,-3.5811,-3.5756,-3.5756,-3.5887,-3.5864,-3.5755,-3.5515,-3.4622,-3.3677,-3.2721,-3.176,-3.0939,-3.0311,-3.0356,-3.0388,-3.0344,-3.035,-3.0285,-3.0173,-3.104,-3.1832,-3.2572,-3.3063,-3.3732,-3.4559,-3.4179,-3.3985,-2.8407,-2.8116,-2.7811,-2.7811,0.0,0.0,-2.7276,-2.7461,-2.7504,-2.6841,-2.664,-2.6657,-2.6856,-2.6556,0.0,-2.7194,0.0,0.0,0.0,0.0,0.0,0.0,0.0,0.0,0.0,0.0,0.0,0.0,0.0,0.0,0.0,-2.86,-2.86,-2.86,-2.9373,-2.9784,-2.9784,-3.0581,-3.1109,-3.1366,-3.144,-3.1759,-3.2333,-3.3268,-3.38,-3.4025,-3.4846,-3.519,-3.519,-3.5209,-3.5239,-3.5315,-3.5372,-3.5446,-3.552,-3.5581,-3.5607,-3.5604,-3.5687,-3.579,-3.5908,-3.5908,-3.5942,-3.5992,-3.5992,-3.5992,-3.5992,-3.5992,-3.5992,-3.5992,-3.5992,-3.5992,-3.5992,-3.5992,-3.5844,-3.5698,-3.5698,-3.559,-3.5521,-3.5585,-3.5607,-3.562,-3.57,-3.5693,-3.5693,-3.5693,-3.5693,-3.5693,-3.5693,-3.5698,-3.5355,-3.4486,-3.3615,-3.2687,-3.1682,-3.0868,-3.0348,-3.0199,-3.0211,-3.0204,-3.0204,-3.0194,-3.0104,-2.9897,-3.0747,-3.1485,-3.2086,-3.2761,-3.3503,-3.4274,-3.4099,-3.3959,-2.8407,-2.8057,0.0,-2.7742,0.0,0.0,0.0,-2.7197,0.0,0.0,-2.6469,-2.64,-2.647,0.0,0.0,-2.6487,0.0,0.0,0.0,0.0,0.0,0.0,0.0,0.0,0.0,0.0,0.0,0.0,0.0,0.0,0.0,-2.8574,-2.86,-2.86,-2.8835,-2.8962,-2.8962,-2.9179,-2.9357,-2.9428,-2.9503,-3.0404,-3.2039,-3.2496,-3.2774,-3.2928,-3.392,-3.435,-3.4407,-3.498,-3.5239,-3.5308,-3.5323,-3.5405,-3.552,-3.5581,-3.557,-3.556,-3.566,-3.5696,-3.5706,-3.584,-3.5899,-3.5938,-3.5986,-3.5992,-3.5992,-3.5992,-3.5992,-3.5992,-3.5992,-3.5992,-3.5986,-3.594,-3.5814,-3.57,-3.5631,-3.5552,-3.5514,-3.5541,-3.5528,-3.5541,-3.5559,-3.5565,-3.5575,-3.5625,-3.5585,-3.5581,-3.5625,-3.5145,-3.4669,-3.4351,-3.2956,-3.1909,-3.1558,-3.0759,-3.0246,-3.0192,-3.0211,-3.0135,-2.9996,-2.9984,-2.9886,-2.9689,-2.9943,-3.0462,-3.1251,-3.1829,-3.2548,-3.3385,-3.3714,-3.3842,-2.8043,-2.766,0.0,-2.7303,-2.7133,-2.6924,-2.6808,0.0,0.0,0.0,-2.6365,-2.6295,-2.6259,-2.6239,0.0,0.0,0.0,0.0,0.0,0.0,0.0,0.0,0.0,0.0,0.0,0.0,0.0,0.0,0.0,0.0,0.0,-2.8549,-2.8574,-2.86,-2.86,-2.86,-2.86,-2.86,-2.86,-2.86,-2.865,-2.935,-3.0654,-3.1371,-3.1741,-3.1826,-3.29,-3.3606,-3.4033,-3.4518,-3.4959,-3.5304,-3.5342,-3.5398,-3.5474,-3.5534,-3.5534,-3.5508,-3.5585,-3.5604,-3.5609,-3.5732,-3.5827,-3.5916,-3.5945,-3.5981,-3.5992,-3.5992,-3.5992,-3.5992,-3.5992,-3.5983,-3.5947,-3.5916,-3.5797,-3.5672,-3.5614,-3.5547,-3.55,-3.55,-3.55,-3.55,-3.55,-3.55,-3.5508,-3.5559,-3.5541,-3.5373,-3.5045,-3.4577,-3.3997,-3.328,-3.2141,-3.128,-3.0905,-3.0319,-2.9961,-2.9961,-2.9961,-2.9861,-2.9672,-2.9822,-2.9779,-2.9494,-2.9484,-2.9856,-3.0613,-3.1276,-3.2009,-3.2853,-3.3363,-3.3611,-2.7485,-2.7067,-2.6741,-2.6708,-2.6657,0.0,-2.6348,-2.6399,-2.645,-2.6329,0.0,-2.6277,-2.6203,-2.6202,-2.6202,0.0,0.0,0.0,0.0,0.0,0.0,0.0,0.0,0.0,0.0,0.0,0.0,0.0,0.0,0.0,0.0,-2.8479,-2.8536,-2.8587,-2.8587,-2.86,-2.86,-2.86,-2.86,-2.86,-2.86,-2.8637,-2.8743,-3.0055,-3.0703,-3.0855,-3.1835,-3.2862,-3.3856,-3.3857,-3.4378,-3.5185,-3.5254,-3.5321,-3.5405,-3.546,-3.5493,-3.5493,-3.55,-3.5547,-3.559,-3.5602,-3.572,-3.5875,-3.588,-3.5938,-3.5988,-3.5988,-3.5988,-3.5988,-3.5988,-3.594,-3.5861,-3.5777,-3.5725,-3.5678,-3.5618,-3.5534,-3.55,-3.55,-3.55,-3.55,-3.55,-3.55,-3.55,-3.55,-3.5423,-3.507,-3.4209,-3.3964,-3.3269,-3.1642,-3.1229,-3.0739,-2.9929,-2.9707,-2.9608,-2.9608,-2.9608,-2.9513,-2.9304,-2.9653,-2.9662,-2.9272,-2.9262,-2.9533,-3.0075,-3.095,-3.1757,-3.2483,-3.3037,-3.3258,-2.7485,-2.7258,0.0,-2.6775,-2.6606,-2.6468,-2.633,-2.6293,-2.6257,-2.6239,-2.6221,-2.6221,-2.6203,-2.6202,0.0,0.0,0.0,0.0,0.0,0.0,0.0,0.0,0.0,0.0,0.0,0.0,0.0,0.0,0.0,0.0,-2.7947,-2.8291,-2.8523,-2.8505,-2.8574,-2.86,-2.86,-2.86,-2.86,0.0,-2.86,-2.86,-2.8637,-2.9211,-2.9971,-3.0894,-3.1111,-3.1797,-3.275,-3.274,-3.3361,-3.4278,-3.4301,-3.4726,-3.5323,-3.5405,-3.542,-3.542,-3.5474,-3.5501,-3.5528,-3.5574,-3.562,-3.5674,-3.5725,-3.5837,-3.5926,-3.5926,-3.5926,-3.5926,-3.5926,-3.5824,-3.5554,-3.4826,-3.5137,-3.5593,-3.5541,-3.5501,-3.55,-3.55,-3.55,-3.55,-3.55,-3.55,-3.55,-3.55,-3.493,-3.4378,-3.4133,-3.2947,-3.1912,-3.1329,-3.0606,-3.0036,-2.9699,-2.9626,-2.9608,-2.9608,-2.9608,-2.9513,-2.9304,-2.9385,-2.9293,-2.8991,-2.8991,-2.9025,-2.9089,-3.0544,-3.1329,-3.1516,-3.2625,-3.295,-2.7289,0.0,0.0,-2.6657,0.0,-2.645,-2.6293,-2.6239,-2.6202,-2.6202,-2.6202,-2.6202,-2.6202,-2.6202,0.0,0.0,0.0,0.0,0.0,0.0,0.0,0.0,0.0,0.0,0.0,0.0,0.0,0.0,0.0,-2.7774,-2.7803,-2.8169,-2.8427,-2.851,-2.8518,-2.8574,-2.86,-2.86,-2.86,-2.86,-2.86,-2.8612,-2.8644,-2.8857,-2.9421,-3.0236,-3.0158,-3.0724,-3.1693,-3.1782,-3.2378,-3.3274,-3.3808,-3.4274,-3.4737,-3.5189,-3.5372,-3.5405,-3.5446,-3.5467,-3.5514,-3.5528,-3.5575,-3.5618,-3.5636,-3.5717,-3.5801,-3.5801,-3.5801,-3.5726,-3.5321,-3.5127,-3.4807,-3.3925,-3.4374,-3.4839,-3.436,-3.425,-3.425,-3.425,-3.425,-3.425,-3.425,-3.425,-3.425,-3.425,-3.3872,-3.3417,-3.296,-3.206,-3.1218,-3.0644,-2.9996,-2.958,-2.9474,-2.9365,-2.9322,-2.9322,-2.9322,-2.927,-2.9171,-2.9119,-2.903,-2.8887,-2.8707,-2.8596,-2.8558,-2.9665,-3.039,-3.0743,-3.14,-3.1775,-2.7055,-2.6859,-2.6674,-2.6537,-2.6502,0.0,-2.6256,-2.6202,-2.6202,-2.6202,-2.6202,-2.6202,-2.6202,0.0,0.0,0.0,0.0,0.0,0.0,0.0,0.0,0.0,0.0,0.0,0.0,0.0,0.0,0.0,0.0,-2.758,-2.7701,-2.8035,-2.8282,-2.8453,-2.8479,-2.8536,-2.8574,-2.8587,-2.86,-2.86,-2.86,-2.8637,-2.87,-2.8749,-2.9019,-2.9388,-2.9293,-2.9766,-3.064,-3.0808,-3.1386,-3.227,-3.3176,-3.3616,-3.3869,-3.4749,-3.5112,-3.5206,-3.5348,-3.5434,-3.55,-3.55,-3.5541,-3.5574,-3.5574,-3.5635,-3.5653,-3.5497,-3.5459,-3.5269,-3.4442,-3.4158,-3.3859,-3.3053,-3.3381,-3.3677,-3.3031,-3.2891,-3.2891,-3.2891,-3.2891,-3.2891,-3.2891,-3.2891,-3.2891,-3.2891,-3.2769,-3.2423,-3.1686,-3.1286,-3.0752,-2.992,-2.9523,-2.9283,-2.9241,-2.906,-2.8929,-2.8929,-2.8881,-2.8839,-2.8839,-2.8779,-2.8725,-2.8725,-2.8433,-2.8246,-2.8192,-2.8774,-2.9437,-3.0172,-3.0231,-3.0595,-2.7024,0.0,-2.6674,0.0,-2.6502,-2.645,0.0,0.0,-2.6202,0.0,-2.6202,-2.6202,0.0,0.0,0.0,0.0,0.0,0.0,0.0,0.0,0.0,0.0,0.0,0.0,0.0,0.0,0.0,0.0,-2.6624,-2.6955,-2.726,-2.7639,-2.8003,-2.8327,-2.8427,-2.8492,-2.8505,-2.8574,-2.86,-2.86,-2.86,-2.86,-2.8612,-2.8669,-2.8815,-2.8991,-2.9033,-2.9215,-2.9512,-2.9543,-3.0274,-3.137,-3.1509,-3.2102,-3.2982,-3.385,-3.422,-3.4371,-3.5149,-3.5434,-3.55,-3.55,-3.5514,-3.5508,-3.5508,-3.5571,-3.5454,-3.4703,-3.4496,-3.4293,-3.3412,-3.3139,-3.2877,-3.2069,-3.1973,-3.2204,-3.2782,-3.2891,-3.2891,-3.2891,-3.2891,-3.2891,-3.2891,-3.2891,-3.2891,-3.2891,-3.2257,-3.1725,-3.1609,-3.0715,-2.9972,-2.9662,-2.9445,-2.9238,-2.9055,-2.8803,-2.8639,-2.8639,-2.8373,-2.8224,-2.8224,-2.8088,-2.8037,-2.8037,-2.8143,-2.8061,-2.7786,-2.8549,-2.9308,-3.0033,-3.0387,-3.05,-2.6975,-2.6825,-2.6691,0.0,-2.6537,-2.645,-2.6293,-2.6239,-2.6202,-2.6202,-2.6202,-2.6202,0.0,0.0,0.0,0.0,0.0,0.0,0.0,0.0,0.0,0.0,0.0,0.0,0.0,0.0,0.0,0.0,-2.6674,-2.7037,-2.7197,-2.7716,-2.8109,-2.83,-2.8367,-2.8419,-2.8445,-2.851,-2.8562,-2.86,-2.86,-2.86,-2.86,-2.8675,-2.8743,-2.8846,-2.8917,-2.9021,-2.9149,-2.9241,-2.962,-3.0199,-3.08,-3.1376,-3.1963,-3.2806,-3.3226,-3.3442,-3.3815,-3.3984,-3.4038,-3.4038,-3.4045,-3.4038,-3.4038,-3.4058,-3.4012,-3.3583,-3.3467,-3.3262,-3.242,-3.2198,-3.1968,-3.1154,-3.0962,-3.1077,-3.1423,-3.15,-3.15,-3.15,-3.15,-3.15,-3.15,-3.15,-3.15,-3.15,-3.1136,-3.0829,-3.0715,-3.0132,-2.966,-2.9446,-2.9259,-2.9037,-2.8791,-2.8669,-2.8525,-2.8334,-2.8183,-2.8088,-2.8051,-2.7954,-2.7779,-2.756,-2.7604,-2.7562,-2.743,-2.7588,-2.806,-2.8767,-2.8863,-2.9082,0.0,0.0,-2.6742,-2.6623,-2.6554,-2.6468,0.0,0.0,-2.6008,0.0,-2.5917,0.0,0.0,0.0,0.0,0.0,0.0,0.0,0.0,0.0,0.0,0.0,0.0,0.0,0.0,0.0,0.0,0.0,-2.6657,-2.7021,-2.7181,-2.7674,-2.8053,-2.8259,-2.8286,-2.8327,-2.8367,-2.8458,-2.8536,-2.8574,-2.8587,-2.86,-2.86,-2.8644,-2.8724,-2.8773,-2.8846,-2.8905,-2.8952,-2.913,-2.922,-2.9368,-3.0166,-3.0631,-3.0896,-3.1728,-3.2178,-3.2423,-3.2649,-3.2783,-3.2871,-3.2885,-3.2891,-3.2885,-3.2884,-3.289,-3.2826,-3.2542,-3.2485,-3.23,-3.145,-3.1252,-3.113,-3.0508,-3.0361,-3.0386,-3.0398,-3.0404,-3.0404,-3.0404,-3.0404,-3.0404,-3.0404,-3.0404,-3.0379,-3.0373,-3.0329,-3.0215,-3.0007,-2.9754,-2.9514,-2.9324,-2.9071,-2.8822,-2.8614,-2.843,-2.8228,-2.7992,-2.788,-2.7811,-2.7757,-2.7683,-2.7502,-2.7211,-2.7004,-2.6956,-2.7054,-2.6792,-2.6977,-2.7577,-2.7453,-2.7784,0.0,-2.6925,0.0,-2.6657,-2.6554,-2.6468,0.0,0.0,0.0,0.0,-2.5125,0.0,0.0,0.0,0.0,0.0,0.0,0.0,0.0,0.0,0.0,0.0,0.0,0.0,0.0,0.0,0.0,0.0,-2.6221,-2.6521,-2.7165,-2.7228,-2.7537,-2.8182,-2.8277,-2.83,-2.8313,-2.8427,-2.8492,-2.8523,-2.8574,-2.86,-2.86,-2.86,-2.865,-2.8706,-2.8773,-2.8798,-2.8828,-2.8893,-2.903,-2.9209,-2.9349,-2.9501,-2.9795,-3.0669,-3.1117,-3.1407,-3.2232,-3.2646,-3.2825,-3.2871,-3.2864,-3.2825,-3.289,-3.2857,-3.2638,-3.1811,-3.1614,-3.1443,-3.0514,-3.0324,-3.035,-3.0312,-3.0318,-3.0311,-3.0392,-3.0404,-3.0404,-3.0404,-3.0404,-3.0404,-3.0404,-3.0404,-3.0373,-3.031,-3.0299,-3.0188,-2.9935,-2.9741,-2.9514,-2.9324,-2.8897,-2.8632,-2.8601,-2.8027,-2.7639,-2.7642,-2.7261,-2.7056,-2.7056,-2.6991,-2.6925,-2.6926,-2.6366,-2.6243,-2.6623,-2.6606,-2.6715,-2.6956,-2.6951,-2.7243,0.0,0.0,0.0,-2.6708,-2.6349,-2.603,-2.5977,-2.5538,-2.5102,-2.5102,-2.4891,0.0,0.0,0.0,0.0,0.0,0.0,0.0,0.0,0.0,0.0,0.0,0.0,0.0,0.0,0.0,0.0,0.0,0.0,-2.6624,-2.6874,-2.7289,-2.7627,-2.7879,-2.8109,-2.8264,-2.83,-2.8393,-2.8458,-2.8492,-2.8574,-2.86,-2.86,-2.86,-2.8612,-2.8637,-2.8662,-2.8712,-2.8798,-2.8881,-2.8934,-2.9007,-2.9082,-2.9228,-2.9453,-2.9751,-2.9992,-3.024,-3.0688,-3.0879,-3.0963,-3.1173,-3.1226,-3.1193,-3.118,-3.1148,-3.1076,-3.0755,-3.0679,-3.0616,-3.0284,-3.0221,-3.026,-3.0286,-3.0292,-3.0318,-3.0337,-3.0343,-3.0343,-3.0343,-3.0343,-3.0342,-3.0342,-3.0342,-3.0336,-3.031,-3.0143,-2.9977,-2.9792,-2.9551,-2.9324,-2.9127,-2.8922,-2.8639,-2.8259,-2.7971,-2.7624,-2.723,-2.7088,-2.6992,-2.6942,-2.6909,-2.6725,-2.6331,-2.6103,-2.6067,-2.6208,-2.587,-2.5745,-2.5818,-2.5991,-2.6177,-2.7055,0.0,0.0,0.0,-2.6401,-2.603,-2.5834,0.0,-2.4902,-2.4739,-2.4482,0.0,0.0,0.0,0.0,0.0,0.0,0.0,0.0,0.0,0.0,0.0,0.0,0.0,0.0,0.0,0.0,0.0,0.0,0.0,-2.6691,-2.7227,-2.7642,-2.7864,-2.8081,-2.8223,-2.8277,-2.8371,-2.8419,-2.8471,-2.8562,-2.86,-2.86,-2.86,-2.86,-2.86,-2.86,-2.865,-2.8737,-2.881,-2.8858,-2.887,-2.894,-2.906,-2.9195,-2.9195,-2.9324,-2.9523,-2.9722,-2.984,-2.9939,-3.0194,-3.0266,-3.0253,-3.0214,-3.0147,-3.0097,-3.0094,-3.0049,-2.9992,-2.9996,-3.006,-3.009,-3.0075,-3.0123,-3.0159,-3.0159,-3.024,-3.0292,-3.0292,-3.0292,-3.0311,-3.0311,-3.0311,-3.0267,-3.017,-3.0011,-2.9823,-2.9579,-2.9395,-2.9195,-2.8987,-2.8743,-2.8404,-2.7996,-2.771,-2.74,-2.6991,-2.6792,-2.6674,-2.6624,-2.6504,-2.6227,-2.5797,-2.5631,-2.5503,-2.5449,-2.524,-2.5047,-2.4902,-2.5071,-2.512,0.0,0.0,0.0,0.0,-2.6725,0.0,-2.5923,0.0,-2.4867,-2.439,-2.3882,0.0,0.0,0.0,0.0,0.0,0.0,0.0,0.0,0.0,0.0,0.0,0.0,0.0,0.0,0.0,0.0,0.0,-2.5992,-2.6207,-2.6657,-2.7005,-2.7524,-2.8168,-2.8196,-2.8196,-2.8196,-2.8331,-2.8411,-2.8411,-2.8536,-2.86,-2.86,-2.86,-2.86,-2.86,-2.86,-2.86,-2.86,-2.8669,-2.8749,-2.8798,-2.8881,-2.894,-2.8994,-2.9005,-2.9127,-2.9324,-2.9523,-2.9716,-2.9913,-3.0118,-3.018,-3.0178,-3.0187,-3.0045,-2.9888,-2.9888,-2.9742,-2.9608,-2.9608,-2.9742,-2.9847,-2.9644,-2.9742,-2.9888,-2.9888,-3.0101,-3.0279,-3.0286,-3.0305,-3.0305,-3.0305,-3.0286,-3.0207,-2.9935,-2.9896,-2.9738,-2.9336,-2.9241,-2.913,-2.891,-2.8313,-2.7911,-2.7897,-2.7276,-2.6909,-2.6893,-2.6384,-2.6104,-2.6104,-2.5707,-2.5446,-2.5368,-2.4863,-2.4527,-2.4369,-2.4772,-2.4708,-2.4281,-2.4261,-2.4113,-2.7135,0.0,0.0,0.0,0.0,0.0,-2.5977,-2.5446,-2.4871,-2.4466,-2.4147,0.0,0.0,0.0,0.0,0.0,0.0,0.0,0.0,0.0,0.0,0.0,0.0,0.0,0.0,0.0,0.0,0.0,-2.5956,-2.6099,-2.6329,-2.6891,-2.7524,-2.8168,-2.8196,-2.8196,-2.8196,-2.8273,-2.834,-2.8411,-2.8484,-2.8562,-2.86,-2.86,-2.86,-2.86,-2.86,-2.86,-2.86,-2.8669,-2.8706,-2.8749,-2.8839,-2.8917,-2.8929,-2.8982,-2.9051,-2.9104,-2.9304,-2.9425,-2.9504,-2.9697,-2.9777,-2.9769,-2.9777,-2.9734,-2.9681,-2.9681,-2.9644,-2.9608,-2.9608,-2.9644,-2.9672,-2.9617,-2.9644,-2.9681,-2.9681,-2.9742,-2.9878,-3.0178,-3.0233,-3.0227,-3.0227,-3.0107,-2.9992,-2.9912,-2.9642,-2.9426,-2.9314,-2.9119,-2.8968,-2.8917,-2.8425,-2.8034,-2.7855,-2.7382,-2.7006,-2.6758,-2.6297,-2.6033,-2.6033,-2.5559,-2.5086,-2.4672,-2.4532,-2.4241,-2.3815,-2.3943,-2.3921,-2.3782,-2.3443,-2.3029,0.0,0.0,0.0,0.0,0.0,0.0,-2.585,-2.5462,-2.4985,0.0,-2.4105,0.0,0.0,0.0,0.0,0.0,0.0,0.0,0.0,0.0,0.0,0.0,0.0,0.0,0.0,-2.5656,-2.5733,-2.5897,-2.5936,-2.6152,-2.6589,-2.6989,-2.7524,-2.8168,-2.8196,-2.8196,-2.8196,-2.8277,-2.8327,-2.8411,-2.8471,-2.8549,-2.86,-2.86,-2.86,-2.86,-2.86,-2.86,-2.86,-2.865,-2.8669,-2.8706,-2.8779,-2.8839,-2.8887,-2.894,-2.8982,-2.9021,-2.9238,-2.9304,-2.9334,-2.9523,-2.9608,-2.9608,-2.9608,-2.9551,-2.9465,-2.9465,-2.9415,-2.9363,-2.9363,-2.9415,-2.9455,-2.9365,-2.9415,-2.9465,-2.9465,-2.9465,-2.958,-2.9897,-2.9942,-2.9958,-2.9958,-2.9859,-2.9748,-2.9651,-2.9456,-2.9251,-2.9152,-2.885,-2.8645,-2.8608,-2.8102,-2.7725,-2.7562,-2.7211,-2.6907,-2.6708,-2.6086,-2.5742,-2.5742,-2.5063,-2.4542,-2.4152,-2.4152,-2.3879,-2.3312,-2.3312,-2.3187,-2.2965,-2.2694,-2.2305,0.0,0.0,0.0,0.0,-2.6958,0.0,-2.576,-2.5572,-2.5291,-2.441,-2.412,-2.3958,0.0,0.0,0.0,0.0,0.0,0.0,0.0,0.0,0.0,0.0,0.0,0.0,-2.5616,-2.5616,-2.5694,-2.5862,-2.5899,-2.6278,-2.7101,-2.7181,-2.7491,-2.8126,-2.8182,-2.8196,-2.8196,-2.8246,-2.8327,-2.8411,-2.8458,-2.8536,-2.86,-2.86,-2.86,-2.86,-2.86,-2.86,-2.86,-2.86,-2.8637,-2.8682,-2.8694,-2.8785,-2.8893,-2.8905,-2.894,-2.904,-2.9206,-2.928,-2.9293,-2.9474,-2.9532,-2.9532,-2.9532,-2.9415,-2.928,-2.928,-2.9138,-2.9005,-2.9005,-2.9138,-2.9228,-2.9044,-2.9138,-2.928,-2.928,-2.928,-2.9314,-2.9504,-2.957,-2.9608,-2.9608,-2.9589,-2.9513,-2.9324,-2.9272,-2.9155,-2.8887,-2.8527,-2.8259,-2.817,-2.7577,-2.7197,-2.7197,-2.6891,-2.6674,-2.6641,-2.5852,-2.5349,-2.531,-2.4436,-2.3903,-2.3782,-2.3717,-2.3399,-2.2822,-2.2822,-2.2535,-2.2011,-2.2011,-2.1766,0.0,0.0,0.0,0.0,0.0,0.0,-2.6657,-2.6521,-2.6297,-2.5723,-2.5503,-2.5275,0.0,0.0,0.0,0.0,0.0,0.0,0.0,0.0,0.0,0.0,0.0,0.0,-2.5698,-2.568,-2.5717,-2.5754,-2.5883,-2.6225,-2.6775,-2.7053,-2.7384,-2.7774,-2.8053,-2.8196,-2.8196,-2.8209,-2.8277,-2.8411,-2.8406,-2.8471,-2.86,-2.86,-2.86,-2.86,-2.86,-2.86,-2.86,-2.86,-2.86,-2.8625,-2.8669,-2.8761,-2.8822,-2.8881,-2.894,-2.9005,-2.9044,-2.9055,-2.9067,-2.9093,-2.9123,-2.9123,-2.9123,-2.91,-2.9055,-2.9055,-2.9021,-2.9005,-2.9005,-2.9021,-2.9044,-2.9017,-2.9021,-2.9055,-2.9055,-2.9055,-2.9067,-2.9112,-2.9375,-2.9608,-2.9608,-2.9474,-2.9345,-2.9304,-2.9171,-2.8915,-2.8552,-2.8376,-2.8192,-2.7908,-2.7474,-2.7197,-2.7197,-2.6891,-2.6556,-2.6245,-2.5598,-2.5086,-2.4764,-2.4048,-2.3674,-2.3653,-2.3268,-2.2807,-2.2244,-2.2244,-2.2002,-2.153,-2.153,-2.1302,0.0,0.0,0.0,-2.7069,0.0,0.0,0.0,-2.6572,-2.6383,-2.5941,-2.5721,-2.5462,-2.4981,0.0,-2.5368,0.0,0.0,0.0,0.0,0.0,0.0,0.0,0.0,0.0,-2.5809,-2.5738,-2.5701,-2.5701,-2.5954,-2.6259,-2.6573,-2.6971,-2.7353,-2.7701,-2.8025,-2.8196,-2.8196,-2.8196,-2.825,-2.834,-2.838,-2.845,-2.8497,-2.8562,-2.8574,-2.8549,-2.8587,-2.86,-2.86,-2.86,-2.86,-2.86,-2.8637,-2.87,-2.8761,-2.8834,-2.8893,-2.8952,-2.8994,-2.9005,-2.9005,-2.9005,-2.9005,-2.9005,-2.9005,-2.9005,-2.9005,-2.9005,-2.9005,-2.9005,-2.9005,-2.9005,-2.9005,-2.9005,-2.9005,-2.9005,-2.9005,-2.8893,-2.8791,-2.8791,-2.8825,-2.8949,-2.9251,-2.9217,-2.9097,-2.8978,-2.8868,-2.8639,-2.821,-2.7974,-2.7762,-2.7517,-2.7164,-2.6857,-2.6674,-2.6674,-2.6436,-2.5797,-2.5392,-2.4989,-2.4527,-2.3921,-2.3486,-2.3268,-2.3024,-2.2489,-2.1657,-2.1366,-2.1026,-2.0709,-2.0635,-2.0334,0.0,0.0,0.0,0.0,0.0,-2.6607,0.0,0.0,0.0,-2.6012,-2.5813,0.0,0.0,0.0,0.0,0.0,0.0,0.0,0.0,0.0,0.0,0.0,0.0,0.0,0.0,-2.5791,-2.5719,-2.5738,-2.5972,-2.6189,-2.6385,-2.6824,-2.7227,-2.758,-2.7864,-2.8071,-2.8196,-2.814,-2.8164,-2.83,-2.8367,-2.8411,-2.8393,-2.8523,-2.8549,-2.8492,-2.8562,-2.8562,-2.8505,-2.8574,-2.8562,-2.8505,-2.8574,-2.865,-2.8706,-2.8773,-2.8846,-2.8917,-2.8982,-2.9005,-2.9005,-2.9005,-2.9005,-2.8994,-2.8929,-2.897,-2.9005,-2.9005,-2.9005,-2.9005,-2.9005,-2.8994,-2.8982,-2.8982,-2.897,-2.894,-2.8875,-2.87,-2.852,-2.8487,-2.8242,-2.8224,-2.8737,-2.8815,-2.8743,-2.8525,-2.8469,-2.8313,-2.7855,-2.7545,-2.7303,-2.7117,-2.6791,-2.6453,-2.6139,-2.6315,-2.6139,-2.5349,-2.5179,-2.4851,-2.4343,-2.3694,-2.3187,-2.2785,-2.2521,-2.1889,-2.0917,-2.0281,-1.994,-1.9888,-1.9657,-1.9305,0.0,0.0,0.0,0.0,-2.647,0.0,0.0,0.0,-2.6674,-2.6825,0.0,-2.6674,0.0,0.0,0.0,0.0,0.0,0.0,-2.6312,0.0,0.0,0.0,0.0,0.0,0.0,-2.5811,-2.5738,-2.5862,-2.5809,-2.5848,-2.6046,-2.6385,-2.6791,-2.7244,-2.7291,-2.7615,-2.8182,-2.7908,-2.7933,-2.83,-2.8367,-2.8411,-2.8393,-2.8484,-2.8523,-2.8492,-2.8505,-2.8383,-2.817,-2.8479,-2.8422,-2.8201,-2.8492,-2.865,-2.8706,-2.8773,-2.8846,-2.8917,-2.8982,-2.9005,-2.9005,-2.9005,-2.9005,-2.897,-2.8718,-2.8803,-2.9005,-2.9005,-2.9005,-2.9005,-2.9005,-2.897,-2.8917,-2.8917,-2.887,-2.8743,-2.8433,-2.835,-2.8259,-2.8037,-2.7954,-2.7978,-2.817,-2.8161,-2.8093,-2.8065,-2.8024,-2.784,-2.7409,-2.7332,-2.7162,-2.6808,-2.6402,-2.6157,-2.6087,-2.5817,-2.5446,-2.4981,-2.4784,-2.4477,-2.4051,-2.3024,-2.2409,-2.2363,-2.1083,-2.0231,-1.9876,-1.9192,-1.9085,-1.9449,-1.8898,-1.8632,0.0,0.0,0.0,0.0,0.0,0.0,-2.6708,0.0,-2.6758,0.0,0.0,0.0,0.0,0.0,0.0,0.0,-2.6417,0.0,0.0,0.0,-2.6364,0.0,0.0,0.0,0.0,0.0,0.0,0.0,-2.597,-2.599,-2.5992,-2.6384,-2.6708,-2.6907,-2.7291,-2.7627,-2.7908,-2.7774,-2.7876,-2.825,-2.8105,-2.8132,-2.8291,-2.8393,-2.8335,-2.8165,-2.8414,-2.8264,-2.7883,-2.8192,-2.8151,-2.7869,-2.8014,-2.8304,-2.8619,-2.8533,-2.8651,-2.8858,-2.897,-2.9005,-2.8964,-2.8822,-2.8639,-2.8495,-2.8576,-2.8682,-2.8791,-2.897,-2.8964,-2.894,-2.894,-2.8893,-2.8846,-2.8846,-2.8676,-2.8476,-2.8324,-2.8012,-2.7747,-2.7634,-2.7472,-2.74,-2.7444,-2.7725,-2.7883,-2.7678,-2.7619,-2.7472,-2.7101,-2.6857,-2.6641,-2.6367,-2.598,-2.567,-2.5427,-2.5465,-2.5179,-2.4431,-2.39,-2.3435,-2.3024,-2.2271,-2.1578,-2.1035,-2.0703,-2.0092,-1.9113,-1.8811,-1.8466,-1.8124,-1.8054,-1.7859,-2.6365,0.0,0.0,0.0,0.0,0.0,0.0,0.0,0.0,0.0,0.0,0.0,0.0,0.0,0.0,0.0,0.0,-2.6674,0.0,-2.6555,0.0,0.0,0.0,0.0,0.0,0.0,0.0,-2.5936,-2.6059,-2.6079,-2.5992,-2.6314,-2.6573,-2.6691,-2.7084,-2.7384,-2.7567,-2.7474,-2.7597,-2.7908,-2.7745,-2.776,-2.794,-2.8049,-2.7971,-2.7751,-2.8051,-2.7943,-2.755,-2.7869,-2.7826,-2.755,-2.755,-2.789,-2.8349,-2.821,-2.836,-2.8657,-2.8779,-2.8827,-2.881,-2.843,-2.8228,-2.8129,-2.8313,-2.8404,-2.8495,-2.87,-2.8767,-2.8767,-2.8676,-2.8718,-2.8737,-2.8582,-2.8386,-2.8206,-2.8029,-2.7646,-2.7288,-2.7065,-2.689,-2.6708,-2.6624,-2.718,-2.7502,-2.7145,-2.7066,-2.6921,-2.6556,-2.6261,-2.6049,-2.5961,-2.5577,-2.5218,-2.4922,-2.5059,-2.4744,-2.3818,-2.3113,-2.2589,-2.2262,-2.153,-2.0803,-2.0118,-2.0117,-1.9569,-1.8444,-1.8278,-1.7818,-1.7073,-1.714,-1.6927,0.0,0.0,0.0,-2.5694,0.0,0.0,0.0,0.0,-2.6573,0.0,0.0,0.0,0.0,0.0,0.0,0.0,0.0,0.0,0.0,0.0,0.0,0.0,0.0,0.0,0.0,0.0,-2.5992,-2.6008,-2.5936,-2.5936,-2.6008,-2.601,-2.6226,-2.6691,-2.6416,-2.6555,-2.7213,-2.6891,-2.6907,-2.7228,-2.7305,-2.7289,-2.7228,-2.7303,-2.7317,-2.7317,-2.7394,-2.7321,-2.7149,-2.7552,-2.7522,-2.7213,-2.7213,-2.743,-2.7745,-2.7797,-2.7978,-2.8224,-2.8298,-2.8399,-2.8427,-2.7815,-2.784,-2.8047,-2.78,-2.7911,-2.8129,-2.8129,-2.8313,-2.844,-2.8124,-2.8352,-2.8551,-2.7968,-2.7978,-2.795,-2.7367,-2.7228,-2.7004,-2.6281,-2.6123,-2.5998,-2.5615,-2.6331,-2.6809,-2.64,-2.621,-2.5998,-2.5596,-2.554,-2.5521,-2.5521,-2.516,-2.4902,-2.4902,-2.4487,-2.3919,-2.3172,-2.2626,-2.2244,-2.2105,-2.0828,-2.013,-2.0092,-1.8845,-1.8057,-1.7739,-1.7412,-1.7106,-1.6818,-1.6105,-1.5759,0.0,0.0,-2.6171,-2.5712,0.0,0.0,0.0,0.0,0.0,0.0,0.0,0.0,0.0,0.0,0.0,0.0,0.0,0.0,0.0,0.0,0.0,0.0,0.0,0.0,0.0,0.0,0.0,-2.5406,-2.5833,-2.6114,-2.6115,-2.6115,-2.6205,-2.6364,-2.6469,-2.664,-2.6874,-2.6758,-2.6874,-2.7197,-2.6988,-2.7004,-2.7197,-2.7211,-2.7132,-2.6988,-2.727,-2.7164,-2.6792,-2.7197,-2.7181,-2.6874,-2.6874,-2.694,-2.7068,-2.7348,-2.7663,-2.7936,-2.8006,-2.7922,-2.7739,-2.7532,-2.7457,-2.7457,-2.758,-2.7728,-2.7855,-2.7996,-2.8065,-2.8069,-2.7911,-2.794,-2.7986,-2.7786,-2.7624,-2.7459,-2.7244,-2.6824,-2.6402,-2.6157,-2.589,-2.567,-2.5521,-2.5762,-2.5924,-2.5797,-2.5726,-2.5652,-2.5521,-2.5275,-2.5102,-2.5102,-2.4699,-2.4287,-2.3927,-2.3304,-2.283,-2.2581,-2.2039,-2.1551,-2.1248,-2.022,-1.9514,-1.9226,-1.8479,-1.7986,-1.7711,-1.7407,-1.7099,-1.6779,-1.6048,-1.5701,-2.564,-2.5807,0.0,-2.5675,-2.5731,0.0,-2.599,0.0,0.0,0.0,0.0,0.0,0.0,0.0,0.0,0.0,0.0,0.0,0.0,-2.6038,0.0,0.0,0.0,0.0,0.0,0.0,-2.5244,-2.551,-2.5938,-2.6202,0.0,0.0,-2.6202,-2.6202,-2.6399,-2.6504,-2.6504,-2.6504,-2.6624,-2.6842,-2.6624,-2.664,-2.6842,-2.6842,-2.6758,-2.6607,-2.6889,-2.6841,-2.6589,-2.6875,-2.6858,-2.6691,-2.6691,-2.6691,-2.6725,-2.7004,-2.7303,-2.7592,-2.7636,-2.7532,-2.735,-2.7258,-2.7149,-2.7103,-2.7324,-2.7432,-2.7476,-2.7609,-2.7651,-2.7648,-2.7519,-2.758,-2.7639,-2.7398,-2.7258,-2.7133,-2.6873,-2.6436,-2.6033,-2.5726,-2.5465,-2.5237,-2.5102,-2.5063,-2.5121,-2.5275,-2.5294,-2.5237,-2.5082,-2.4839,-2.4655,-2.4655,-2.4338,-2.3897,-2.3334,-2.2535,-2.2025,-2.1978,-2.1458,-2.1033,-2.0772,-1.9901,-1.9375,-1.9314,-1.8503,-1.8066,-1.7969,-1.7495,-1.7088,-1.6779,-1.5836,-1.543]},{"header":{"parameterUnit":"m.s-1","parameterCategory":1,"la1":30.6,"la2":29.2853,"lo1":-89.7004,"lo2":-87.6739,"dy":0.0162,"dx":0.0183,"nx":112,"ny":82,"refTime":"2023-11-02T18:00:00:Z","depth":0,"parameterNumber":3,"parameterNumberName":"V-component_of_WINDS"},"data":[0.0,0.0,0.0,0.0,0.0,0.0,0.0,0.0,0.0,0.0,0.0,0.0,0.0,0.0,0.0,0.0,0.0,0.0,0.0,0.0,0.0,0.0,0.0,0.0,0.0,0.0,0.0,0.0,0.0,0.0,0.0,0.0,0.0,0.0,0.0,0.0,0.0,0.0,0.0,0.0,0.0,0.0,0.0,0.0,0.0,0.0,0.0,0.0,0.0,0.0,0.0,0.0,0.0,0.0,0.0,0.0,0.0,0.0,0.0,0.0,0.0,0.0,0.0,0.0,0.0,0.0,0.0,0.0,0.0,0.0,0.0,0.0,0.0,0.0,0.0,0.0,0.0,0.0,0.0,0.0,0.0,0.0,0.0,0.0,0.0,0.0,0.0,0.0,0.0,0.0,-0.1273,-0.0972,-0.0504,-0.0403,-0.0941,-0.1715,-0.3241,-0.5632,0.0,0.0,0.0,0.0,0.0,0.0,0.0,0.0,0.0,0.0,0.0,0.0,0.0,0.0,0.0,0.0,0.0,0.0,0.0,0.0,0.0,0.0,0.0,0.0,0.0,0.0,0.0,0.0,0.0,0.0,0.0,0.0,0.0,0.0,0.0,0.0,0.0,0.0,0.0,0.0,0.0,0.0,0.0,0.0,0.0,0.0,0.0,0.0,0.0,0.0,0.0,0.0,0.0,0.0,0.0,0.0,0.0,0.0,0.0,0.0,0.0,0.0,0.0,0.0,0.0,0.0,0.0,0.0,0.0,0.0,0.0,0.0,0.0,0.0,0.0,0.0,0.0,0.0,0.0,0.0,0.0,0.0,0.0,0.0,0.0,0.0,0.0,0.0,0.0,0.0,0.0,0.0,0.0,0.0,0.0,0.0,0.0,0.0,0.0,0.0,0.0,0.0,0.0,0.0,-0.1171,0.0537,0.0403,0.0034,-0.037,-0.1513,-0.3241,-0.5632,0.0,0.0,0.0,0.0,0.0,0.0,0.0,0.0,0.0,0.0,0.0,0.0,0.0,0.0,0.0,0.0,0.0,0.0,0.0,0.0,0.0,0.0,0.0,0.0,0.0,0.0,0.0,0.0,0.0,0.0,0.0,0.0,0.0,0.0,0.0,0.0,0.0,0.0,0.0,0.0,0.0,0.0,0.0,0.0,0.0,0.0,0.0,0.0,0.0,0.0,0.0,0.0,0.0,0.0,0.0,0.0,0.0,0.0,0.0,0.0,0.0,0.0,0.0,0.0,0.0,0.0,0.0,0.0,0.0,0.0,0.0,0.0,0.0,0.0,0.0,0.0,0.0,0.0,0.0,0.0,0.0,0.0,0.0,0.0,0.0,0.0,0.0,0.0,0.0,0.0,0.0,0.0,0.0,0.0,0.0,0.0,0.0,0.0,0.0,0.0,0.0,0.0,0.0,-0.067,0.0201,0.141,0.1309,0.0772,-0.0202,-0.1176,-0.2544,-0.4548,-0.6392,0.0,0.0,0.0,0.0,0.0,0.0,0.0,0.0,0.0,0.0,0.0,0.0,0.0,0.0,0.0,0.0,0.0,0.0,0.0,0.0,0.0,0.0,0.0,0.0,0.0,0.0,0.0,0.0,0.0,0.0,0.0,0.0,0.0,0.0,0.0,0.0,0.0,0.0,0.0,0.0,0.0,0.0,0.0,0.0,0.0,0.0,0.0,0.0,0.0,0.0,0.0,0.0,0.0,0.0,0.0,0.0,0.0,0.0,0.0,0.0,0.0,0.0,0.0,0.0,0.0,0.0,0.0,0.0,0.0,0.0,0.0,0.0,0.0,0.0,0.0,0.0,0.0,0.0,0.0,0.0,0.0,0.0,0.0,0.0,0.0,0.0,0.0,0.0,0.0,0.0,0.0,0.0,0.0,0.0,0.0,0.0,0.0,0.0,0.0,0.0,0.0,0.0,0.1343,0.1745,0.2147,0.2246,0.1743,0.0436,-0.0168,-0.1305,-0.317,-0.515,0.0,0.0,0.0,0.0,0.0,0.0,0.0,0.0,0.0,0.0,0.0,0.0,0.0,0.0,0.0,0.0,0.0,0.0,0.0,0.0,0.0,0.0,0.0,0.0,0.0,0.0,0.0,0.0,0.0,0.0,0.0,0.0,0.0,0.0,0.0,0.0,0.0,0.0,0.0,0.0,0.0,0.0,0.0,0.0,0.0,0.0,0.0,0.0,0.0,0.0,0.0,0.0,0.0,0.0,0.0,0.0,0.0,0.0,0.0,0.0,0.0,0.0,0.0,0.0,0.0,0.0,0.0,0.0,0.0,0.0,0.0,0.0,0.0,0.0,0.0,0.0,0.0,0.0,0.0,0.0,0.0,0.0,0.0,0.0,0.0,0.0,0.0,0.0,0.0,0.0,0.0,0.0,0.0,0.0,0.0,0.0,0.0,0.0,0.0,0.0,0.0,0.0,0.2007,0.3052,0.309,0.3282,0.3078,0.2281,0.2006,0.0765,-0.186,-0.3638,0.0,0.0,0.0,0.0,0.0,0.0,0.0,0.0,0.0,0.0,0.0,0.0,0.0,0.0,0.0,0.0,0.0,0.0,0.0,0.0,0.0,0.0,0.0,0.0,0.0,0.0,0.0,0.0,0.0,0.0,0.0,0.0,0.0,0.0,0.0,0.0,0.0,0.0,0.0,0.0,0.0,0.0,0.0,0.0,0.0,0.0,0.0,0.0,0.0,0.0,0.0,0.0,0.0,0.0,0.0,0.0,0.0,0.0,0.0,0.0,0.0,0.0,0.0,0.0,0.0,0.0,0.0,0.0,0.0,0.0,0.0,0.0,0.0,0.0,0.0,0.0,0.0,0.0,0.0,0.0,0.0,0.0,0.0,0.0,0.0,0.0,0.0,0.0,0.0,0.0,0.0,0.0,0.0,0.0,0.0,0.0,0.0,0.0,0.0,0.0,0.0,0.0,0.2277,0.3282,0.0,0.3951,0.3747,0.3145,0.2772,0.1297,-0.1693,0.0,0.0,0.0,0.0,0.0,0.0,0.0,0.0,0.0,0.0,0.0,0.0,0.0,0.0,0.0,0.0,0.0,0.0,0.0,0.0,0.0,0.0,0.0,0.0,0.0,0.0,0.0,0.0,0.0,0.0,0.0,0.0,0.0,0.0,0.0,0.0,0.0,0.0,0.0,0.0,0.0,0.0,0.0,0.0,0.0,0.0,0.0,0.0,0.0,0.0,0.0,0.0,0.0,0.0,0.0,0.0,0.0,0.0,0.0,0.0,0.0,0.0,0.0,0.0,0.0,0.0,0.0,0.0,0.0,0.0,0.0,0.0,0.0,0.0,0.0,0.0,0.0,0.0,0.0,0.0,0.0,0.0,0.0,0.0,0.0,0.0,0.0,0.0,0.0,0.0,0.0,0.0,0.0,0.0,0.0,0.0,0.0,0.0,0.0,0.0,0.0,0.0,0.1508,0.2714,0.3553,0.0,0.4356,0.442,0.3813,0.3905,0.2492,-0.1059,0.0,0.0,0.0,0.0,0.0,0.0,0.0,0.0,0.0,0.0,0.0,0.0,0.0,0.0,0.0,0.0,0.0,0.0,0.0,0.0,0.0,0.0,0.0,0.0,0.0,0.0,0.0,0.0,0.0,0.0,0.0,0.0,0.0,0.0,0.0,0.0,0.0,0.0,0.0,0.0,0.0,0.0,0.0,0.0,0.0,0.0,0.0,0.0,0.0,0.0,0.0,0.0,0.0,0.0,0.0,0.0,0.0,0.0,0.0,0.0,0.0,0.0,0.0,0.0,0.0,0.0,0.0,0.0,0.0,0.0,0.0,0.0,0.0,0.0,0.0,0.0,0.0,0.0,0.0,0.0,0.0,0.0,0.0,0.0,0.0,0.0,0.0,0.0,0.0,0.0,0.0,0.0,0.0,0.0,0.0,0.0,0.0,0.0,0.0,0.0,0.0,0.0,0.181,0.3322,0.403,0.3326,0.4528,0.5093,0.4386,0.5583,0.4581,0.0,0.0,0.0,0.0,0.0,0.0,0.0,0.0,0.0,0.0,0.0,0.0,0.0,0.0,0.0,0.0,0.0,0.0,0.0,0.0,0.0,0.0,0.0,0.0,0.0,0.0,0.0,0.0,0.0,0.0,0.0,0.0,0.0,0.0,0.0,0.0,0.0,0.0,0.0,0.0,0.0,0.0,0.0,0.0,0.0,0.0,0.0,0.0,0.0,0.0,0.0,0.0,0.0,0.0,0.0,0.0,0.0,0.0,0.0,0.0,0.0,0.0,0.0,0.0,0.0,0.0,0.0,0.0,0.0,0.0,0.0,0.0,0.0,0.0,0.0,0.0,0.0,0.0,0.0,0.0,0.0,0.0,0.0,0.0,0.0,0.0,0.0,0.0,0.0,0.0,0.0,0.0,0.0,0.0,0.0,0.0,0.0,0.0,0.0,0.0,0.0,0.0,0.0,0.3819,0.4893,0.5668,0.5994,0.565,0.5491,0.5752,0.6152,0.4719,0.0825,0.0,0.0,0.0,0.0,0.0,0.0,0.0,0.0,0.0,0.0,0.0,0.0,0.0,0.0,0.0,0.0,0.0,0.0,0.0,0.0,0.0,0.0,0.0,0.0,0.0,0.0,0.0,0.0,0.0,0.0,0.0,0.0,0.0,0.0,0.0,0.0,0.0,0.0,0.0,0.0,0.0,0.0,0.0,0.0,0.0,0.0,0.0,0.0,0.0,0.0,0.0,0.0,0.0,0.0,0.0,0.0,0.0,0.0,0.0,0.0,0.0,0.0,0.0,0.0,0.0,0.0,0.0,0.0,0.0,0.0,0.0,0.0,0.0,0.0,0.0,0.0,0.0,0.0,0.0,0.0,0.0,0.0,0.0,0.0,0.0,0.0,0.0,0.0,0.0,0.0,0.0,0.0,0.0,0.0,0.0,0.0,0.0,0.0,0.0,0.0,0.0,0.0,0.4808,0.5778,0.6515,0.6743,0.6104,0.5752,0.598,0.6251,0.4857,0.1225,0.0,0.0,0.0,0.0,0.0,0.0,0.0,0.0,0.0,0.0,0.0,0.0,0.0,0.0,0.0,0.0,0.0,0.0,0.0,0.0,0.0,0.0,0.0,0.0,0.0,0.0,0.0,0.0,0.0,0.0,0.0,0.0,0.0,0.0,0.0,0.0,0.0,0.0,0.0,0.0,0.0,0.0,0.0,0.0,0.0,0.0,0.0,0.0,0.0,0.0,0.0,0.0,0.0,0.0,0.0,0.0,0.0,0.0,0.0,0.0,0.0,0.0,0.0,0.0,0.0,0.0,0.0,0.0,0.0,0.0,0.0,0.0,0.0,0.0,0.0,0.0,0.0,0.0,0.0,0.0,0.0,0.0,0.0,0.0,0.0,0.0,0.0,0.0,0.0,0.0,0.0,0.0,0.0,0.0,0.0,0.0,0.0,0.0,0.0,0.0,0.0,0.0,0.5245,0.6367,0.6963,0.6433,0.6256,0.6009,0.5543,0.6046,0.5028,0.1758,0.0,0.0,0.0,0.0,0.0,0.0,0.0,0.0,0.0,0.0,0.0,0.0,0.0,0.0,0.0,0.0,0.0,0.0,0.0,0.0,0.0,0.0,0.0,0.0,0.0,0.0,0.0,0.0,0.0,0.0,0.0,0.0,0.0,0.0,0.0,0.0,0.0,0.0,0.0,0.0,0.0,0.0,0.0,0.0,0.0,0.0,0.0,0.0,0.0,0.0,0.0,0.0,0.0,0.0,0.0,0.0,0.0,0.0,0.0,0.0,0.0396,0.0,0.0,0.0,0.0,0.0,0.0,0.0,0.0,0.0,0.0,0.0,0.0,0.0,0.0,0.0,0.0,0.0,0.0,0.0,0.0,0.0,0.0,0.0,0.0,0.0,0.0,0.0,0.0,0.0,0.0,0.0,0.0,0.0,0.0,0.0,0.0,0.0,0.0,0.0,0.0,0.0,0.7173,0.8345,0.8901,0.8425,0.753,0.6761,0.6214,0.6317,0.5536,0.3555,0.2023,0.0,0.0,0.0,0.0,0.0,0.0,0.0,0.0,0.0,0.0,0.0,0.0,0.0,0.0,0.0,0.0,0.0,0.0,0.0,0.0,0.0,0.0,0.0,0.0,0.0,0.0,0.0,0.0,0.0,0.0,0.0,0.0,0.0,0.0,0.0,0.0,0.0,0.0,0.0,0.0,0.0,0.0,0.0,0.0,0.0,0.0,0.0,0.0,0.0,0.0,0.0,0.0,0.0,0.0,0.0,0.0,0.0,0.0,0.0,0.0,0.0568,0.0,0.0,0.0,0.0,0.0,0.0,0.0,0.0,0.0,0.0,0.0,0.0,0.0,0.0,0.0,0.0,0.0,0.0,0.0,0.0,0.0,0.0,0.0,0.0,0.0,0.0,0.0,0.0,0.0,0.0,0.0,0.0,0.0,0.0,0.0,0.0,0.0,0.0,0.0,0.0,0.8634,0.9551,0.9977,0.9665,0.8409,0.7442,0.7064,0.6646,0.5774,0.4331,0.2627,0.0,0.0,0.0,0.0,0.0,0.0,0.0,0.0,0.0,0.0,0.0,0.0,0.0,0.0,0.0,0.0,0.0,0.0,0.0,0.0,0.0,0.0,0.0,0.0,0.0,0.0,0.0,0.0,0.0,0.0,0.0,0.0,0.0,0.0,0.0,0.0,0.0,0.0,0.0,0.0,0.0,0.0,0.0,0.0,0.0,0.0,0.0,0.0,0.0,0.0,0.0,0.0,0.0,0.7847,0.8245,0.8213,0.7147,0.6678,0.6538,0.4014,0.2698,0.2116,0.05,0.0,0.0,0.0,0.0,0.0,0.0,0.0,0.0,0.0,0.0,0.0,0.0,0.0,0.0,0.0,0.0,0.0,0.0,0.0,0.0,0.0,0.0,0.0,0.0,0.1572,0.2009,0.0,0.0,0.0,0.0,0.0,0.0,0.0,0.0,0.0,0.0,0.0,0.0,0.9539,1.0268,1.0541,1.0174,0.8956,0.7994,0.7577,0.6839,0.5947,0.4912,0.3168,0.143,0.0,0.0,0.0,0.0,0.0,0.0,0.0,0.0,0.0,0.0,0.0,0.0,0.0,0.0,0.0,0.0,0.0,0.0,0.0,0.0,0.0,0.0,0.0,0.0,0.0,0.0,0.0,0.0,0.0,0.0,0.0,0.0,0.6556,0.6457,0.0,0.0,0.0,0.0,0.0,0.0,0.0,0.0,0.0,0.0,0.0,0.0,0.0,0.7275,0.7487,0.8154,0.8517,0.8517,0.9261,0.9643,0.9605,0.8945,0.8152,0.731,0.6342,0.0,0.3142,0.2089,0.0,0.0,0.0,0.0,0.0,0.0,0.0,0.0,0.0,0.0,0.0,0.0,0.0,0.0,0.0,0.0,0.0,0.0,0.0,0.0,0.0,0.0,0.1977,0.2679,0.2947,0.3445,0.0,0.4111,0.3047,0.3148,0.402,0.0,0.0,0.0,0.0,0.0,0.0,0.0,0.9539,1.0742,1.0951,0.9564,0.9084,0.8318,0.6933,0.6581,0.6317,0.6152,0.3934,0.1892,0.0263,-0.1663,0.0,0.0,0.0,0.0,0.0,0.0,0.0,0.0,0.0,0.0,0.0,0.0,0.0,0.0,0.0,0.0,0.0,0.0,0.0,0.0,0.0,0.0,0.0,0.0,0.0,0.0,0.0,0.0,0.0,0.6137,0.6367,0.6437,0.6137,0.5741,0.0,0.0,0.0,0.0,0.0,0.0,0.0,0.0,0.0,0.7537,0.7838,0.8231,0.8703,0.9191,0.9638,1.0083,1.0418,1.0556,1.055,0.9604,0.8727,0.7961,0.6973,0.5777,0.4373,0.3432,0.2495,0.1613,0.0,0.0,0.0,0.0,-0.2096,-0.2074,-0.195,-0.1909,0.0,-0.1909,0.0,0.0,0.0,0.0,0.0,0.0,0.0,0.0,0.0,0.0,0.308,0.4505,0.4836,0.5262,0.6796,0.7025,0.6739,0.0,0.581,0.5556,0.514,0.0,0.0,0.0,0.0,0.9348,1.0609,1.1264,1.1334,1.0654,0.9729,0.886,0.8059,0.7129,0.6515,0.642,0.4069,0.2397,0.1689,-0.133,-0.3405,0.0,0.0,0.0,0.0,0.0,0.0,0.0,0.0,0.0,0.0,0.0,0.0,0.0,0.0,0.0,0.0,0.0,0.0,0.0,0.0,0.0,0.0,0.0,0.0,0.0,0.0,0.0,0.0,0.6207,0.6334,0.6437,0.6334,0.6071,0.0,0.0,0.0,0.0,0.0,0.0,0.7173,0.719,0.7421,0.7923,0.8381,0.8859,0.9306,0.9713,1.0218,1.0812,1.0999,1.1111,1.1074,0.9943,0.9069,0.8342,0.7246,0.6247,0.5321,0.4496,0.3908,0.3359,0.2144,0.145,0.0996,-0.0364,-0.0742,-0.0648,-0.0876,-0.0838,-0.0704,-0.0906,0.0,-0.1441,-0.2076,0.0,0.0,0.0,0.0,0.1336,0.227,0.3239,0.4309,0.576,0.6347,0.6898,0.8088,0.8832,0.9055,0.0,0.7899,0.7414,0.7093,0.0,0.0,0.0,0.0,1.0154,1.1428,1.1591,1.1529,1.1341,1.011,0.9148,0.8763,0.7479,0.6609,0.642,0.437,0.3035,0.2702,-0.0532,-0.2403,-0.2614,0.0,0.0,0.0,0.0,0.0,0.0,0.0,0.0,0.0,0.0,0.0,0.0,0.0,0.0,0.0,0.0,0.0,0.0,0.0,0.0,0.0,0.0,0.0,0.0,0.0,0.0,0.0,0.0,0.0,0.7321,0.7321,0.0,0.0,0.0,0.0,0.6609,0.7265,0.7491,0.6959,0.8569,0.9161,0.8285,0.9282,0.9485,0.8761,0.9496,0.9916,0.996,1.0738,1.1111,1.1074,1.0255,0.9339,0.8342,0.7544,0.6553,0.5559,0.5321,0.4652,0.3791,0.3675,0.3161,0.2325,0.1482,0.1562,0.1907,0.0446,0.0404,0.0874,0.0168,-0.0638,-0.1274,-0.1209,-0.124,0.0,0.0,0.147,0.2374,0.3792,0.5047,0.599,0.6088,0.6963,0.8152,0.9348,0.8768,0.8318,0.0,1.0546,1.0937,0.9736,0.0,0.9609,0.9609,0.9666,1.0154,1.1428,1.1591,1.1341,1.0643,0.9799,0.8956,0.8118,0.7223,0.6609,0.642,0.5143,0.3905,0.2736,0.1337,-0.0602,-0.3105,-0.3239,0.0,0.0,0.0,0.0,0.0,0.0,0.0,0.0,0.0,0.0,0.0,0.0,0.0,0.0,0.0,0.0,0.0,0.0,0.0,0.0,0.0,0.0,0.0,0.0,0.0,0.0,0.0,0.0,0.6539,0.7605,0.0,0.7153,0.7512,0.7729,0.7638,0.7491,0.7637,0.8146,0.8782,0.8813,0.82,0.9304,0.9311,0.8127,0.9306,0.9884,0.9922,1.07,1.0812,1.0293,0.9496,0.8661,0.7783,0.6984,0.6293,0.5789,0.5709,0.5318,0.4771,0.4618,0.3995,0.3166,0.2893,0.2528,0.2034,0.1049,0.1176,0.1712,0.1444,0.0839,0.0336,0.0805,0.1272,0.1704,0.2274,0.298,0.3623,0.4164,0.5183,0.6285,0.7061,0.8184,0.9412,1.0647,1.0577,1.042,1.0843,1.0647,1.0224,0.9768,1.0382,1.064,0.9831,1.0388,1.1101,1.1529,1.1591,1.1498,1.1247,1.0541,0.9735,0.8924,0.8027,0.7256,0.6642,0.5276,0.3972,0.2736,0.227,0.0802,-0.181,-0.1037,-0.1635,0.0,0.0,0.0,0.0,0.0,0.0,0.0,0.0,0.0,0.0,0.0,0.0,0.0,0.0,0.0,0.0,0.0,0.0,0.0,0.0,0.0,0.0,0.0,0.0,0.0,0.0,0.6798,0.5987,0.7316,0.8021,0.7344,0.7934,0.8385,0.8516,0.8165,0.8191,0.8687,0.8779,0.8522,0.7878,0.8672,0.8523,0.7297,0.8523,0.9121,0.9121,0.9853,0.9932,0.9385,0.8523,0.7816,0.7297,0.6479,0.6026,0.5872,0.5799,0.561,0.5351,0.5207,0.468,0.3996,0.3743,0.3332,0.2818,0.2053,0.1946,0.2114,0.2114,0.1812,0.1511,0.198,0.2614,0.3215,0.3215,0.3723,0.4398,0.4791,0.58,0.7028,0.8216,0.9444,1.0577,1.1428,1.1591,1.1591,1.1591,1.0905,1.035,1.035,1.1038,1.1296,1.0483,1.1069,1.1591,1.1591,1.1591,1.1591,1.1591,1.0926,1.0155,0.9372,0.8506,0.7642,0.6806,0.5741,0.4604,0.3467,0.2969,0.1703,-0.0403,-0.0067,-0.0937,-0.3205,0.0,0.0,0.0,0.0,0.0,0.0,0.0,0.0,0.0,0.0,0.0,0.0,0.0,0.0,0.0,0.0,0.0,0.0,0.0,0.0,0.0,0.0,0.0,0.5925,0.5921,0.5921,0.5925,0.6535,0.7214,0.7929,0.8554,0.9016,0.9187,0.9282,0.9078,0.8464,0.8699,0.8423,0.746,0.7575,0.7225,0.6337,0.7189,0.7615,0.7615,0.8216,0.8503,0.8433,0.7469,0.7003,0.6932,0.6158,0.5803,0.5803,0.5591,0.5519,0.5492,0.5411,0.5197,0.4778,0.4021,0.405,0.4343,0.3551,0.2748,0.2114,0.2179,0.2147,0.2147,0.2181,0.2681,0.3249,0.3249,0.3756,0.4561,0.58,0.6996,0.8222,0.9412,1.0672,1.1591,1.1591,1.1591,1.1591,1.1591,1.1591,1.1591,1.1591,1.1591,1.1591,1.1591,1.1591,0.0,1.1591,1.1591,1.1591,1.156,1.0926,1.0155,0.934,0.8506,0.7674,0.6946,0.6585,0.5943,0.4866,0.3533,0.2236,0.0971,-0.0302,-0.1642,-0.3035,0.0,0.0,0.0,0.0,0.0,0.0,0.0,0.0,0.0,0.0,0.0,0.0,0.0,0.0,0.0,0.0,0.0,0.0,0.0,0.0,0.0,0.0,0.6115,0.6115,0.6535,0.6699,0.6317,0.7321,0.7939,0.7647,0.7814,0.8199,0.8863,0.8446,0.8367,0.8824,0.9335,0.9265,0.8594,0.8418,0.8,0.7335,0.7509,0.7615,0.7615,0.8357,0.8322,0.7619,0.7509,0.7047,0.6341,0.6129,0.6022,0.5986,0.5803,0.5671,0.5559,0.5342,0.4803,0.4229,0.452,0.4351,0.4032,0.427,0.3551,0.2679,0.3618,0.3553,0.3186,0.3591,0.3825,0.3995,0.3995,0.4131,0.4561,0.58,0.6996,0.8222,0.9412,1.0672,1.1591,1.1591,1.1591,1.1591,1.1591,1.1591,1.1591,1.1591,1.1591,1.1591,1.1591,1.1591,0.0,1.1591,1.1591,1.1404,1.0863,1.0611,1.0034,0.8807,0.8355,0.7842,0.7171,0.6881,0.6239,0.5058,0.55,0.5163,0.3926,0.2664,0.1523,0.0,0.0,0.0,0.0,0.0,0.0,0.0,0.0,0.0,0.0,0.0,0.0,0.0,0.0,0.0,0.0,0.0,0.0,0.0,0.0,0.0,0.0,0.6346,0.6379,0.6704,0.6802,0.6736,0.6449,0.7129,0.7582,0.7521,0.7489,0.7836,0.8623,0.8269,0.8258,0.8753,0.887,0.8735,0.839,0.7913,0.7507,0.7173,0.7099,0.7099,0.7099,0.7507,0.7404,0.6824,0.6858,0.6587,0.0,0.6005,0.5967,0.5894,0.5752,0.5634,0.0,0.0,0.0,0.0,0.0,0.4628,0.4259,0.4661,0.4256,0.3718,0.4459,0.4392,0.4092,0.4431,0.45,0.4564,0.4891,0.4861,0.509,0.6584,0.7613,0.8543,0.9748,1.085,1.1591,1.1591,1.1591,1.1591,1.1591,1.1591,0.0,1.1591,1.1591,1.1591,1.1591,1.1591,1.1591,1.1591,1.1591,1.1435,1.1028,1.0958,1.0415,0.9037,0.8775,0.0,0.0,0.0,0.6371,0.5157,0.576,0.0,0.0,0.0,0.3078,0.2848,0.0,0.0,0.0,0.3665,0.3985,0.0,0.0,0.0,0.0,0.0,0.0,0.0,0.0,0.0,0.0,0.0,0.0,0.0,0.0,0.0,0.0,0.6896,0.6872,0.7521,0.697,0.6482,0.642,0.6387,0.6646,0.7326,0.7391,0.7652,0.8328,0.8393,0.8425,0.849,0.0,0.0,0.0,0.0,0.6548,0.6548,0.6502,0.6477,0.6477,0.634,0.6273,0.624,0.6111,0.6011,0.5977,0.5977,0.5874,0.5703,0.567,0.5506,0.5319,0.5525,0.541,0.5123,0.4927,0.4864,0.4864,0.4864,0.0,0.0,0.4831,0.4831,0.4831,0.4797,0.4797,0.4927,0.558,0.555,0.5752,0.7562,0.8232,0.8747,1.0021,1.0856,1.1397,1.1373,1.1498,1.1591,1.1498,1.1529,1.1591,1.1591,1.1591,1.1591,1.1591,1.1591,1.1591,1.1591,1.1591,1.1529,1.1365,0.0,0.0,0.939,0.9154,0.864,0.7554,0.7171,0.6502,0.542,0.5387,0.4854,0.3692,0.3756,0.4111,0.4787,0.6582,0.7881,0.8573,0.5339,0.5262,0.0,0.0,0.0,0.0,0.0,0.0,0.0,0.0,0.0,0.0,0.0,0.0,0.0,0.0,0.0,0.7181,0.7707,0.8134,0.8296,0.7717,0.7068,0.6482,0.6387,0.6449,0.6613,0.6613,0.6905,0.7652,0.7684,0.7939,0.8458,0.8393,0.8296,0.8296,0.7755,0.7446,0.7446,0.7086,0.6886,0.6886,0.0,0.0,0.6608,0.6745,0.671,0.6538,0.6538,0.6428,0.6244,0.6072,0.5506,0.4815,0.525,0.5386,0.5326,0.5292,0.5296,0.5296,0.5296,0.5296,0.5263,0.509,0.5057,0.5024,0.4861,0.4797,0.0,0.496,0.496,0.5223,0.6551,0.687,0.7256,0.8886,0.9685,1.0034,0.9926,1.0793,1.1435,1.0832,1.1185,1.1591,1.1591,1.1591,1.1591,1.1591,1.1591,1.1591,1.1591,1.1591,1.1146,1.0028,0.9901,0.9352,0.8004,0.7874,0.7744,0.7521,0.7423,0.7293,0.7055,0.7022,0.692,0.6687,0.72,0.7747,0.8329,0.9221,1.0299,1.148,1.0152,1.0797,0.0,0.0,0.0,0.0,0.0,0.0,0.0,0.0,0.0,0.0,0.0,0.7097,0.0,0.0,0.8054,0.8441,0.864,0.8865,0.9186,0.8291,0.7456,0.7003,0.6937,0.6811,0.6449,0.6745,0.6937,0.6937,0.7297,0.7489,0.7456,0.7852,0.7945,0.7617,0.7443,0.7342,0.7342,0.712,0.6988,0.6988,0.6988,0.6956,0.6849,0.6956,0.6956,0.6849,0.6849,0.6484,0.5832,0.515,0.4973,0.5177,0.5046,0.4949,0.4891,0.5338,0.546,0.5395,0.5395,0.5395,0.5395,0.5292,0.5259,0.5226,0.513,0.5096,0.516,0.5517,0.5488,0.5557,0.6433,0.6719,0.7074,0.8086,0.8592,0.8869,0.9046,0.9424,0.9641,0.9265,0.9488,0.9736,0.9736,0.9736,1.0161,1.1397,1.1591,1.1365,1.0742,1.0647,1.0161,0.8849,0.8688,0.8302,0.7274,0.6896,0.6933,0.7456,0.726,0.7228,0.7489,0.7489,0.7489,0.7489,0.7847,0.8458,0.9396,0.9741,1.0773,1.2389,1.1996,1.3042,0.0,0.0,0.0,0.0,0.0,0.0,0.0,0.0,0.6515,0.7372,0.7967,0.8393,0.8581,0.8807,0.9154,0.9741,0.9608,0.9602,1.0148,0.9026,0.8091,0.8004,0.7587,0.7068,0.6515,0.7101,0.7199,0.6449,0.7104,0.7226,0.6506,0.7145,0.7323,0.678,0.6951,0.7041,0.7041,0.7077,0.7094,0.7094,0.7094,0.7094,0.7094,0.7094,0.7094,0.7094,0.7058,0.643,0.5368,0.453,0.4677,0.5374,0.5048,0.4609,0.4252,0.5078,0.5346,0.5211,0.5039,0.511,0.5245,0.5245,0.514,0.5039,0.5379,0.5326,0.5333,0.6058,0.6039,0.5888,0.6346,0.6601,0.683,0.7236,0.7456,0.7713,0.8118,0.806,0.7894,0.7769,0.7832,0.7899,0.7899,0.7899,0.8575,1.0584,1.0874,1.0514,0.9476,0.9348,0.8928,0.7834,0.7705,0.7451,0.678,0.621,0.6284,0.7129,0.6773,0.6773,0.7326,0.7358,0.7391,0.7489,0.7619,0.8231,0.9294,0.9582,1.0672,1.2504,1.2816,1.4073,0.4948,0.5229,0.5905,0.62,0.6645,0.7246,0.0,0.0,0.773,0.8635,0.886,0.8924,0.8924,0.9442,0.9888,0.9952,1.0471,1.0895,1.0965,1.0243,0.9729,0.9729,0.7837,0.6548,0.6642,0.7162,0.7199,0.6449,0.7201,0.7371,0.6698,0.6931,0.703,0.6959,0.7098,0.7196,0.7196,0.7346,0.7461,0.7461,0.7461,0.7461,0.7461,0.7461,0.7461,0.7423,0.7236,0.6583,0.5617,0.6081,0.5387,0.4149,0.5547,0.5085,0.3697,0.445,0.4695,0.4574,0.3817,0.4035,0.4682,0.4682,0.4178,0.3815,0.5321,0.5128,0.4585,0.5456,0.5565,0.5462,0.5528,0.5292,0.5222,0.5859,0.626,0.6466,0.6487,0.7319,0.7899,0.7297,0.7579,0.7899,0.7899,0.7899,0.7991,0.8286,0.8318,0.8254,0.8125,0.8088,0.7834,0.7093,0.7,0.6748,0.6083,0.5954,0.5954,0.6086,0.602,0.6218,0.6773,0.6773,0.6999,0.7489,0.8069,0.8458,0.8619,0.9811,1.1118,1.2533,1.4028,1.5167,0.6654,0.6939,0.7326,0.0,0.8178,0.8447,0.8892,0.9026,0.9148,0.9506,0.9926,1.0218,1.0218,1.0503,1.0755,0.0,1.1115,1.1404,1.1404,1.0692,1.0212,1.0281,0.8898,0.7929,0.8027,0.8608,0.8506,0.7397,0.7788,0.7756,0.708,0.7189,0.7289,0.7289,0.7356,0.7374,0.7374,0.7447,0.7484,0.7484,0.7484,0.7484,0.7484,0.7484,0.7484,0.7484,0.6865,0.6595,0.644,0.5115,0.4921,0.5389,0.5002,0.4353,0.3804,0.4981,0.5076,0.4543,0.4179,0.4287,0.4506,0.3998,0.3598,0.3523,0.4718,0.4792,0.4643,0.5499,0.5667,0.5616,0.5481,0.4882,0.458,0.555,0.5204,0.4826,0.5571,0.5955,0.6043,0.5765,0.5884,0.6042,0.6042,0.6042,0.6009,0.5947,0.7062,0.764,0.693,0.6865,0.6478,0.5477,0.5378,0.5415,0.5422,0.516,0.5226,0.5859,0.5624,0.5686,0.6218,0.6218,0.6478,0.7036,0.7321,0.7809,0.849,0.9069,1.023,1.1935,1.3047,1.4102,0.7902,0.8253,0.0,0.9308,0.9436,0.9404,0.9665,0.992,1.0148,1.0401,1.0856,1.1247,1.1247,1.131,1.1365,1.1365,1.1498,1.1591,1.1591,1.1045,1.0692,1.08,1.0148,0.976,0.9828,1.0033,0.9666,0.8493,0.8656,0.8483,0.7794,0.7707,0.763,0.7597,0.7571,0.7561,0.7484,0.7484,0.7484,0.7484,0.7484,0.7484,0.7484,0.7484,0.7484,0.7484,0.6822,0.6553,0.6363,0.4611,0.4688,0.5819,0.4727,0.4103,0.3977,0.5322,0.5047,0.4008,0.4008,0.4008,0.3934,0.3267,0.2933,0.297,0.4043,0.4357,0.4478,0.5277,0.5505,0.5408,0.5192,0.4393,0.3926,0.4974,0.4145,0.3422,0.4701,0.4465,0.404,0.404,0.4017,0.3998,0.3998,0.3998,0.3936,0.386,0.5238,0.6074,0.5371,0.513,0.474,0.4059,0.3828,0.3925,0.4519,0.4225,0.4325,0.512,0.499,0.4921,0.5084,0.5455,0.5848,0.617,0.6507,0.7129,0.8004,0.8328,0.934,1.0965,1.1827,1.2854,0.8199,0.8865,0.95,1.0483,1.049,1.0496,1.1334,1.0881,1.0528,1.1365,1.156,1.1591,1.1591,1.1591,1.1591,1.1591,1.1591,1.1591,1.1591,1.1591,1.156,1.156,1.1529,1.1614,0.0,1.106,1.0197,0.9504,0.9822,0.9735,0.8979,0.8388,0.7983,0.7795,0.7799,0.7684,0.7484,0.7484,0.7484,0.7484,0.7484,0.7484,0.7484,0.7484,0.7484,0.7484,0.748,0.6433,0.4844,0.5509,0.516,0.4263,0.5193,0.4844,0.3908,0.4952,0.4137,0.2584,0.2584,0.2584,0.2545,0.2545,0.1997,0.1684,0.3318,0.3687,0.3732,0.4592,0.4735,0.4576,0.4321,0.3485,0.2921,0.3668,0.309,0.262,0.361,0.3067,0.2378,0.2378,0.2257,0.2182,0.2182,0.2182,0.2182,0.2181,0.225,0.2527,0.3204,0.2681,0.248,0.3151,0.2581,0.2447,0.3182,0.3249,0.3251,0.3282,0.3925,0.3925,0.3013,0.435,0.5047,0.4866,0.6071,0.6708,0.6769,0.7939,0.8854,0.9585,1.0933,1.1904,0.8941,0.9288,0.9703,1.085,1.1045,1.1139,1.1778,1.1615,1.1389,1.1677,1.1654,1.1591,1.1591,1.1591,1.1591,1.1591,1.1591,1.1591,1.1591,1.1591,1.1591,1.1591,1.1591,0.0,0.0,0.0,0.0,1.0114,1.0278,0.9907,0.866,0.8405,0.8217,0.7991,0.788,0.7684,0.7484,0.7484,0.7484,0.7484,0.7484,0.7484,0.7484,0.7484,0.7484,0.7484,0.7484,0.713,0.6472,0.5503,0.5196,0.5237,0.4768,0.3988,0.3285,0.4611,0.3677,0.1766,0.2315,0.2511,0.2393,0.1884,0.1532,0.1492,0.2586,0.2884,0.3019,0.3902,0.4108,0.4007,0.3739,0.294,0.2336,0.2971,0.236,0.1861,0.2733,0.2682,0.2437,0.2437,0.2381,0.2368,0.2368,0.2368,0.2165,0.1645,0.1885,0.2182,0.2453,0.2238,0.2179,0.2447,0.2248,0.2213,0.2447,0.248,0.248,0.248,0.2716,0.2683,0.238,0.2848,0.348,0.4243,0.4677,0.5312,0.6185,0.6933,0.7642,0.8334,0.9597,1.0544,0.9678,0.9952,1.0307,1.1397,1.149,1.1428,1.1972,1.184,1.1677,1.1872,1.1778,1.1685,1.1778,1.1716,1.1685,1.1778,1.1716,1.1685,1.1685,1.1622,1.1591,1.1591,1.1591,1.176,0.0,0.0,0.0,1.1301,1.0972,1.0373,0.941,0.8818,0.8365,0.8102,0.7991,0.7761,0.7522,0.7484,0.7484,0.7484,0.7484,0.7484,0.7484,0.7484,0.7326,0.7015,0.7015,0.6703,0.6083,0.488,0.4611,0.4927,0.4146,0.3404,0.2935,0.3871,0.2976,0.1414,0.2237,0.2315,0.2002,0.1453,0.1296,0.1414,0.1923,0.2276,0.2627,0.3171,0.3326,0.3248,0.2934,0.2154,0.1608,0.2232,0.1567,0.1097,0.1996,0.1879,0.1605,0.1605,0.1605,0.1605,0.1605,0.1605,0.1441,0.0921,0.1146,0.143,0.1719,0.1516,0.1461,0.1714,0.1511,0.1444,0.1712,0.1745,0.1745,0.1745,0.198,0.1879,0.1377,0.2079,0.2648,0.2948,0.3649,0.4417,0.5219,0.5939,0.6662,0.7386,0.8688,0.9551,1.0332,1.0766,1.1212,1.205,1.1802,1.1466,1.1996,1.1716,1.1498,1.1996,1.1934,1.184,0.0,0.0,1.184,1.2058,1.1934,1.1833,1.1833,1.1716,1.1622,0.0,0.0,0.0,0.0,0.0,0.0,1.3009,0.0,1.1149,1.1037,0.9604,0.8551,0.8106,0.8102,0.791,0.7522,0.7484,0.7484,0.7484,0.7484,0.7484,0.7484,0.7484,0.7015,0.6202,0.6202,0.5306,0.3869,0.383,0.3638,0.3407,0.3407,0.3132,0.274,0.2779,0.2156,0.1414,0.2158,0.1923,0.1296,0.1296,0.1296,0.1296,0.1296,0.1846,0.2433,0.2433,0.2433,0.2354,0.1921,0.1216,0.0746,0.1372,0.0745,0.0275,0.1293,0.0706,0.0,0.0,0.0,0.0,0.0,-0.0039,-0.0079,-0.0079,-0.0115,0.0149,0.0956,0.0422,0.0278,0.098,0.0404,0.0269,0.0975,0.1042,0.1042,0.1042,0.1646,0.1377,0.0067,0.1946,0.2414,0.1109,0.2947,0.3915,0.3949,0.5038,0.5935,0.6675,0.8204,0.892,1.0825,1.0944,1.1132,1.1771,1.1802,1.1809,1.2344,1.2243,1.2089,1.2212,1.1809,1.156,0.0,0.0,0.0,1.2034,1.2058,0.0,1.2027,1.1872,0.0,1.1747,0.0,1.1848,1.2426,1.2485,0.0,0.0,1.2522,1.1484,1.0255,0.9803,0.9127,0.814,0.8102,0.791,0.7522,0.7484,0.7484,0.7484,0.7484,0.7484,0.7484,0.7484,0.7015,0.6202,0.6202,0.5622,0.4652,0.4066,0.3638,0.3368,0.3249,0.2665,0.1962,0.2392,0.2041,0.1335,0.1532,0.1453,0.1296,0.1296,0.1296,0.1296,0.1296,0.1453,0.1609,0.1609,0.1609,0.1492,0.1059,0.0785,0.055,0.0432,0.0196,0.0079,0.0353,0.0196,0.0,0.0,0.0,0.0,0.0,-0.0549,-0.098,-0.098,-0.148,-0.1343,0.0112,0.0108,0.007,0.0243,0.0102,0.0067,0.0269,0.0269,0.0269,0.0269,0.0438,0.037,0.0,0.0539,0.0908,0.1109,0.2079,0.2848,0.3416,0.4613,0.5418,0.5756,0.7064,0.7754,1.1365,1.1522,1.1771,1.2089,1.1957,1.1934,1.2467,1.2151,1.1802,1.2027,1.1553,1.1272,1.1872,1.1685,1.1622,0.0,0.0,0.0,1.2182,1.2027,1.1934,0.0,1.1905,0.0,1.2576,1.2684,1.295,0.0,1.2746,1.1744,1.0475,1.0105,0.9387,0.8255,0.8217,0.8025,0.7642,0.7561,0.7484,0.7484,0.7484,0.7484,0.7484,0.7484,0.6822,0.5661,0.0,0.5002,0.3873,0.3326,0.3015,0.286,0.2549,0.208,0.1611,0.1885,0.1689,0.1296,0.1296,0.1296,0.1296,0.1296,0.1296,0.1296,0.1296,0.1296,0.1296,0.1296,0.1296,0.1178,0.0707,0.0589,0.051,0.0196,0.0079,0.0039,0.0118,0.0079,0.0,0.0,-0.0588,-0.098,-0.0628,-0.1254,-0.184,-0.184,-0.2229,-0.2142,-0.123,-0.1114,-0.1083,-0.1107,-0.0766,-0.0583,-0.0583,-0.0204,0.0,0.0,0.0,0.0,0.0,0.0303,0.0539,0.0605,0.131,0.2047,0.285,0.3813,0.468,0.5521,0.6572,0.7129,1.1903,1.2243,1.259,1.259,1.2243,1.2027,1.2498,1.1802,1.117,1.1677,1.1209,1.0895,1.1646,1.1654,1.1747,1.2467,0.0,1.2336,1.2336,1.2212,1.2127,1.2127,1.2228,1.2437,1.2766,1.2922,1.314,1.347,1.2863,1.2077,1.1149,1.0443,0.9539,0.8441,0.8365,0.814,0.7804,0.7603,0.7484,0.7484,0.7484,0.7484,0.7484,0.7484,0.663,0.5157,0.5157,0.0,0.2823,0.2547,0.2391,0.2273,0.1806,0.1611,0.1533,0.1375,0.1296,0.1296,0.1296,0.1296,0.1296,0.1296,0.1296,0.1296,0.1296,0.1296,0.1296,0.1296,0.1296,0.1178,0.0746,0.0628,0.051,0.0196,0.0079,0.0,0.0079,0.0039,0.0,0.0,-0.1254,-0.2113,-0.141,-0.2074,-0.266,-0.266,-0.2778,-0.2817,-0.2817,-0.2642,-0.2506,-0.2492,-0.1859,-0.1442,-0.1436,-0.0755,-0.027,-0.0169,-0.0135,-0.0101,0.0,0.0605,0.0639,0.0,0.074,0.1511,0.2249,0.2845,0.3908,0.5415,0.6268,0.6728,1.2467,1.2529,1.259,1.259,1.2529,1.2498,1.259,1.1888,0.0,1.1709,1.0825,1.0345,1.1584,1.1428,1.1428,1.2436,1.256,1.256,1.256,1.2375,1.2274,0.0,1.2292,1.2437,1.2766,1.2922,0.0,0.0,0.0,1.2636,1.1186,1.0962,1.0132,0.8441,0.8068,0.788,0.7804,0.7603,0.7484,0.7484,0.7484,0.7484,0.7484,0.7484,0.6942,0.6009,0.6009,0.0,0.4496,0.3793,0.3287,0.2859,0.212,0.165,0.1335,0.1296,0.1296,0.1296,0.1296,0.1296,0.1296,0.1296,0.1296,0.1296,0.1296,0.1296,0.1296,0.1296,0.1296,0.1218,0.0943,0.0707,0.0393,-0.047,-0.0353,-0.0196,-0.0862,-0.0471,0.0,0.0,-0.0824,-0.1449,-0.1332,-0.2582,-0.3558,-0.3558,-0.4148,-0.4584,-0.4584,-0.337,-0.2484,-0.2512,-0.2384,-0.2257,-0.2138,-0.1985,-0.1617,-0.0943,-0.0908,-0.0639,-0.0034,0.0135,0.0135,0.0,0.0841,0.1344,0.1479,0.2348,0.3286,0.4292,0.5044,0.58,1.259,1.259,1.259,1.259,1.259,1.256,1.2467,0.0,0.0,1.1646,1.0951,1.0636,1.1615,1.1584,0.0,1.2467,1.259,1.259,1.259,1.2529,1.2467,1.2467,1.258,1.2716,0.0,1.3112,1.3323,1.3484,0.0,1.2973,1.1781,1.0925,1.0067,0.9198,0.8369,0.7953,0.7953,0.7638,0.7484,0.7484,0.7484,0.7484,0.7484,0.7484,0.7015,0.6202,0.6202,0.0,0.4377,0.4185,0.3717,0.3093,0.2938,0.251,0.1923,0.1923,0.1649,0.1296,0.1296,0.1296,0.1296,0.1296,0.1296,0.1296,0.1296,0.1296,0.1296,0.1296,0.0981,0.0667,0.0864,0.0432,-0.0157,-0.0745,-0.0784,-0.0784,-0.1215,-0.1293,-0.1176,-0.0745,-0.2037,-0.2937,-0.2074,-0.3326,-0.4265,-0.3871,-0.4501,-0.5018,-0.5018,-0.4303,-0.3808,-0.3808,-0.3426,-0.3139,-0.31,-0.2593,-0.2122,-0.1752,-0.1658,-0.131,-0.0606,-0.0471,-0.0236,0.0135,0.064,0.111,0.1612,0.208,0.2718,0.3587,0.3949,0.4544,1.2529,1.2498,1.2498,1.259,1.256,1.2498,1.2336,1.1864,0.0,1.1529,1.1052,1.0863,1.1553,1.1677,1.1872,0.0,1.2529,1.2529,1.2529,1.256,1.259,0.0,1.2753,0.0,1.299,1.3229,0.0,1.3492,0.0,0.0,1.2342,1.0925,1.0143,1.0143,0.897,0.8365,0.8365,0.7791,0.7484,0.7484,0.7484,0.7484,0.7484,0.7484,0.7134,0.6475,0.6475,0.0,0.0,0.4613,0.4068,0.313,0.3441,0.3054,0.2237,0.2237,0.1845,0.1296,0.1296,0.1296,0.1296,0.1296,0.1296,0.1296,0.1296,0.1296,0.1296,0.1296,0.0667,0.0157,0.0825,0.0196,-0.0667,-0.0941,-0.1136,-0.1293,-0.1293,-0.1644,-0.184,-0.1371,-0.3013,-0.4109,-0.2973,-0.3873,-0.4582,-0.4107,-0.4462,-0.4818,-0.4979,-0.5018,-0.5018,-0.5018,-0.443,-0.4029,-0.4006,-0.326,-0.2744,-0.2553,-0.2248,-0.1779,-0.1076,-0.074,-0.0269,0.0337,0.0472,0.0942,0.1678,0.1712,0.2246,0.3215,0.3215,0.3685,1.2274,1.2251,1.222,1.2529,1.2467,1.2336,1.2305,0.0,1.1118,1.1303,1.0661,1.0338,1.1178,1.1334,1.1529,1.2058,1.2243,1.2336,1.2336,1.2467,1.259,1.259,0.0,0.0,1.2967,1.3021,0.0,0.0,0.0,0.0,1.2342,1.1484,1.0999,1.0999,0.983,0.9188,0.9188,0.805,0.7484,0.7484,0.7484,0.7484,0.7484,0.7484,0.7446,0.7365,0.7365,0.0,0.0,0.5819,0.4691,0.3093,0.2935,0.2272,0.1414,0.1414,0.1375,0.1296,0.1296,0.1296,0.1296,0.1296,0.1296,0.1296,0.1296,0.1296,0.1296,0.1296,0.0667,0.0196,0.106,0.0353,-0.0707,-0.1176,-0.1293,-0.1293,-0.1293,-0.0745,-0.0432,-0.1176,-0.2074,-0.2934,-0.3558,-0.3791,-0.4146,-0.4779,-0.4343,-0.4185,-0.4898,-0.5018,-0.5018,-0.5018,-0.4929,-0.484,-0.4731,-0.4564,-0.4158,-0.3358,-0.2554,-0.1712,-0.0874,-0.0168,0.0303,0.0472,0.0674,0.0809,0.091,0.1076,0.1879,0.3215,0.3215,0.3951,1.2158,1.2151,1.2127,1.2282,1.2251,1.2151,1.2027,0.0,1.1507,1.1584,1.1327,1.1226,1.1716,1.1778,1.184,1.2058,1.2151,0.0,1.2182,1.2251,1.2313,1.2313,1.2355,0.0,0.0,0.0,1.314,0.0,0.0,0.0,1.3046,1.2261,1.1781,1.1632,1.0126,0.9226,0.9112,0.805,0.7484,0.7484,0.7484,0.7484,0.7484,0.6938,0.6707,0.6707,0.6205,0.0,0.0,0.4849,0.4185,0.2935,0.3287,0.282,0.2041,0.2041,0.1728,0.1296,0.1296,0.1296,0.1296,0.1296,0.1296,0.1296,0.1296,0.1296,0.1296,0.1296,0.0667,0.0078,0.0431,-0.0705,-0.2036,-0.2468,-0.2116,-0.1724,-0.1957,-0.1644,-0.1448,-0.1918,-0.2699,-0.3402,-0.3752,-0.3791,-0.391,-0.4226,-0.4423,-0.4621,-0.4976,-0.5018,-0.5018,-0.5018,-0.5018,-0.4996,-0.4909,-0.438,-0.3901,-0.3549,-0.2548,-0.164,-0.0841,-0.0336,0.0168,0.0674,0.0876,0.0976,0.0976,0.1478,0.198,0.2549,0.3069,0.3881,1.1934,1.1965,1.1972,1.2096,1.2058,1.1965,0.0,0.0,1.1778,1.1747,1.1747,1.1778,1.1934,1.1934,1.1934,1.1934,0.0,1.1996,1.1996,1.2058,1.2096,1.2096,0.0,1.2437,0.0,1.3011,1.325,0.0,0.0,0.0,1.3492,1.2973,1.2562,1.2378,1.0838,0.9787,0.9372,0.8356,0.7748,0.7484,0.7484,0.7365,0.7092,0.6475,0.6086,0.5815,0.5234,0.0,0.0,0.4112,0.364,0.2507,0.3171,0.2898,0.2158,0.2158,0.1766,0.1296,0.1296,0.1296,0.1296,0.1296,0.1296,0.1296,0.1296,0.1296,0.1296,0.1296,0.0863,0.0314,0.0,-0.094,-0.1957,-0.2506,-0.192,-0.1489,-0.2309,-0.1956,-0.176,-0.2698,-0.3168,-0.3558,-0.4068,-0.3949,-0.3871,-0.4107,-0.4423,-0.474,-0.4976,-0.5018,-0.5018,-0.5018,-0.5018,-0.5018,-0.5018,-0.4099,-0.3523,-0.3497,-0.2245,-0.1214,-0.0647,-0.0203,0.0303,0.0876,0.1043,0.1114,0.1089,0.1835,0.2285,0.2543,0.3397,0.4184,1.1584,1.1716,1.1685,1.2027,1.1965,1.1802,0.0,1.1802,1.1771,1.1622,1.1591,1.1591,1.1591,1.1622,1.1622,1.1622,1.1716,0.0,1.1802,1.1965,1.2096,0.0,0.0,1.2437,1.2766,1.3217,0.0,0.0,0.0,0.0,1.3492,1.3492,1.3382,1.3193,1.2187,1.1217,1.019,0.9188,0.8284,0.7484,0.7484,0.7057,0.6202,0.6202,0.5777,0.0,0.0,0.0,0.0,0.4112,0.3292,0.169,0.2276,0.2002,0.1296,0.1296,0.1296,0.1296,0.1296,0.1296,0.1296,0.1296,0.1296,0.1296,0.1296,0.1296,0.1296,0.1296,0.1296,0.1061,-0.0039,0.0118,0.0314,-0.0705,-0.0314,-0.0235,-0.2113,-0.1058,-0.0549,-0.3244,-0.3088,-0.3052,-0.4701,-0.4343,-0.4068,-0.4859,-0.4304,-0.4107,-0.4898,-0.5018,-0.5018,-0.5018,-0.5018,-0.5018,-0.5018,-0.3944,-0.3321,-0.3321,-0.1548,-0.042,-0.021,0.0444,0.0876,0.1109,0.1109,0.109,0.1086,0.1959,0.2764,0.3523,0.4313,0.5143,1.0699,1.0863,1.0989,1.1622,1.1716,1.1654,1.1654,1.1654,1.1654,1.1622,1.1591,1.1591,1.1591,1.1591,1.1591,1.1591,1.1654,1.1654,0.0,0.0,0.0,1.1747,1.2173,1.2476,0.0,0.0,0.0,0.0,0.0,0.0,1.3492,1.3492,1.3346,1.301,1.215,1.1217,1.0212,0.9193,0.836,0.7684,0.7561,0.7365,0.7057,0.6475,0.5777,0.0,0.0,0.0,0.0,0.2589,0.2199,0.1415,0.161,0.1532,0.1296,0.1296,0.1296,0.1296,0.1296,0.1296,0.1296,0.1296,0.1296,0.1296,0.1296,0.1296,0.1296,0.1296,0.0863,0.0353,0.0,-0.0392,-0.0823,-0.1254,-0.0627,-0.0196,-0.1175,-0.0823,-0.0666,-0.1879,-0.2309,-0.2856,-0.399,-0.3988,-0.4068,-0.4898,-0.4779,-0.4701,-0.4976,-0.5018,-0.5018,-0.5018,-0.4343,-0.3988,-0.4146,-0.3184,-0.2304,-0.17,-0.033,0.05,0.0561,0.0853,0.1043,0.1109,0.1096,0.1111,0.1086,0.1888,0.2982,0.4395,0.5211,0.5813,0.9767,1.0091,1.0288,1.1021,1.1178,0.0,1.1529,1.1591,1.1591,1.1591,1.1591,1.1591,1.1591,1.1591,1.1591,1.1591,1.1591,1.1591,0.0,0.0,0.0,1.1855,0.0,0.0,0.0,0.0,0.0,0.0,0.0,0.0,1.3492,1.3492,1.3346,1.301,1.2452,1.1632,1.055,0.9604,0.8813,0.814,0.7714,0.7326,0.6976,0.6433,0.5777,0.0,0.0,0.0,0.0,0.2043,0.169,0.1415,0.1335,0.1296,0.1296,0.1296,0.1296,0.1296,0.1296,0.1296,0.1296,0.1296,0.1296,0.1296,0.1296,0.1296,0.1296,0.1296,0.0903,0.051,0.051,0.0,-0.051,-0.0627,-0.0157,0.0118,-0.0627,-0.0431,-0.0431,-0.1331,-0.1996,-0.2662,-0.3519,-0.3597,-0.3715,-0.4304,-0.4384,-0.4384,-0.4384,-0.474,-0.4859,-0.4423,-0.3791,-0.3164,-0.2657,-0.1916,-0.1244,-0.069,0.0371,0.1013,0.0996,0.1064,0.1115,0.1093,0.1111,0.1274,0.1623,0.2734,0.3993,0.5386,0.5885,0.6169,0.0,0.9282,0.9582,1.0326,1.0485,1.0674,1.1435,1.1591,0.0,1.1591,1.1591,1.1591,1.1591,1.1591,1.1591,1.1591,1.1591,1.1591,0.0,1.1591,0.0,0.0,1.2428,0.0,0.0,0.0,0.0,0.0,0.0,0.0,1.3492,1.3492,1.3382,1.3119,1.2936,1.2305,1.1186,1.0351,0.9523,0.8737,0.7902,0.7096,0.6279,0.6279,0.5854,0.0,0.0,0.0,0.0,0.2395,0.1847,0.1572,0.1375,0.1296,0.1296,0.1296,0.1296,0.1296,0.1296,0.1296,0.1296,0.1296,0.1296,0.1296,0.1296,0.1296,0.1296,0.1296,0.1296,0.1296,0.1296,0.11,0.0943,0.0943,0.0943,0.0667,-0.0274,0.0078,0.0157,-0.1408,-0.1919,-0.2311,-0.3088,-0.309,-0.3091,-0.3281,-0.3281,-0.332,-0.3398,-0.4226,-0.4423,-0.3517,-0.3281,-0.25,-0.0744,-0.0392,-0.0274,-0.0234,0.0674,0.1202,0.12,0.1142,0.109,0.1085,0.1161,0.166,0.2578,0.4217,0.5434,0.6222,0.6261,0.63,0.8124,0.0,0.8812,1.0161,1.0485,1.0674,0.0,0.0,0.0,0.0,0.0,1.1591,1.1591,1.1591,1.1591,1.1591,1.1591,1.1591,1.1591,0.0,0.0,1.2226,1.2428,0.0,0.0,0.0,0.0,0.0,0.0,1.3492,1.3492,1.3492,1.3119,1.2305,1.2224,1.2077,1.1781,1.0683,0.982,0.915,0.8012,0.7407,0.7211,0.7211,0.6745,0.0,0.0,0.0,0.3368,0.2978,0.2353,0.1572,0.1375,0.1296,0.1296,0.1296,0.1296,0.1296,0.1296,0.1296,0.1296,0.1296,0.1296,0.1296,0.1296,0.1296,0.1296,0.1296,0.1296,0.1296,0.1296,0.1257,0.1218,0.1218,0.1218,0.11,0.0628,0.0707,0.0667,0.0118,-0.0509,-0.1018,-0.1213,-0.176,-0.2189,-0.2228,-0.2267,-0.2539,-0.332,-0.3088,-0.301,-0.3359,-0.2111,-0.1017,-0.0431,-0.0313,-0.0039,0.0573,0.1001,0.1192,0.1132,0.1095,0.109,0.1085,0.1822,0.26,0.349,0.4523,0.5121,0.5318,0.5983,0.63,0.8291,0.8458,0.8973,1.0123,1.0446,1.0674,1.1435,0.0,0.0,0.0,0.0,1.1591,1.1591,1.1654,1.1685,1.1622,1.1654,0.0,0.0,0.0,1.1851,1.2039,1.2465,0.0,0.0,0.0,0.0,0.0,0.0,1.3492,1.3492,1.3492,1.3236,1.2709,1.2673,1.2268,1.1335,1.0201,0.9485,0.915,0.805,0.7484,0.7484,0.7484,0.7249,0.0,0.0,0.0,0.4068,0.3483,0.2627,0.1729,0.1533,0.1375,0.1296,0.1296,0.1296,0.1296,0.1296,0.1296,0.1296,0.1296,0.1296,0.1296,0.1296,0.1296,0.1296,0.1296,0.1296,0.1296,0.1296,0.1296,0.1296,0.1296,0.1296,0.1257,0.11,0.0982,0.0904,0.0904,0.0157,-0.047,-0.047,-0.0783,-0.1056,-0.1134,-0.1173,-0.1369,-0.1916,-0.2033,-0.2033,-0.1993,-0.1057,-0.0235,0.0392,0.0431,0.0621,0.1024,0.1146,0.1153,0.1088,0.1398,0.1745,0.2207,0.2776,0.3474,0.4338,0.5198,0.5592,0.5592,0.6064,0.63,0.8909,0.923,0.9684,1.018,1.0376,1.0674,1.1435,0.0,0.0,0.0,0.0,1.1591,1.1591,1.1685,0.0,0.0,0.0,0.0,1.1802,1.2009,1.2195,1.2243,0.0,0.0,0.0,0.0,0.0,0.0,0.0,1.3492,1.3492,1.3492,1.3455,1.3309,1.32,1.2261,1.0438,0.9604,0.9221,0.9226,0.805,0.7484,0.7484,0.7484,0.7484,0.7446,0.0,0.0,0.5118,0.4185,0.3095,0.2082,0.1846,0.1571,0.1296,0.1296,0.1296,0.1296,0.1296,0.1296,0.1296,0.1296,0.1296,0.1296,0.1296,0.1296,0.1296,0.1296,0.1296,0.1296,0.1296,0.1296,0.1296,0.1296,0.1296,0.1296,0.1296,0.1139,0.1021,0.1257,0.055,-0.0039,-0.0039,0.0078,0.0157,-0.0039,-0.0039,-0.0118,-0.0274,-0.0978,-0.1173,-0.0392,-0.0196,0.0274,0.1218,0.1292,0.1276,0.1207,0.1217,0.1187,0.1115,0.1741,0.2558,0.3523,0.3758,0.4308,0.5198,0.5944,0.63,0.63,0.63,0.6377,0.955,1.0098,1.0737,1.0401,1.0307,1.0566,1.1397,0.0,0.0,0.0,0.0,0.0,0.0,1.1622,1.1622,0.0,0.0,1.2042,0.0,0.0,1.3182,0.0,0.0,0.0,0.0,0.0,0.0,0.0,0.0,1.3492,1.3492,1.3492,1.3193,1.2526,1.1818,1.0999,0.9997,1.0164,1.0265,1.0265,0.8389,0.7484,0.7484,0.7484,0.7484,0.7484,0.0,0.6822,0.6009,0.5654,0.4491,0.2898,0.2702,0.2078,0.1296,0.1296,0.1296,0.1296,0.1296,0.1296,0.1296,0.1296,0.1296,0.1296,0.1296,0.1296,0.1296,0.1296,0.1296,0.1296,0.1296,0.1296,0.1296,0.1296,0.1296,0.1296,0.1296,0.1257,0.1257,0.1296,0.1178,0.1061,0.106,0.1099,0.1099,0.106,0.106,0.0746,-0.0196,0.0157,0.0275,-0.0235,0.0314,0.0864,0.1257,0.1234,0.1206,0.1212,0.1206,0.1177,0.1119,0.1789,0.2643,0.3634,0.4316,0.5109,0.6103,0.6222,0.63,0.63,0.63,0.6683,1.0199,1.0516,1.0989,1.118,1.1125,1.1195,1.1911,0.0,0.0,0.0,0.0,0.0,0.0,0.0,1.1903,1.1965,0.0,1.2205,1.2887,1.3151,0.0,0.0,0.0,0.0,0.0,0.0,0.0,0.0,0.0,0.0,1.3492,1.3492,1.3346,1.2973,1.2599,1.2003,1.1186,1.0832,1.0153,0.9188,0.805,0.7484,0.7484,0.7484,0.7484,0.7484,0.0,0.7019,0.6202,0.6083,0.5154,0.3756,0.3171,0.2547,0.1884,0.1453,0.1296,0.1296,0.1296,0.1296,0.1296,0.1296,0.1296,0.1296,0.1296,0.1296,0.1296,0.1296,0.1296,0.1296,0.1296,0.1296,0.1296,0.1296,0.1296,0.1414,0.1845,0.161,0.1414,0.1845,0.161,0.1296,0.1296,0.1296,0.1296,0.1296,0.1296,0.1139,0.0628,0.0903,0.0982,0.0588,0.0903,0.1178,0.1296,0.1345,0.1304,0.1144,0.1162,0.1484,0.2216,0.2173,0.2977,0.4694,0.4737,0.5195,0.6135,0.6674,0.6949,0.6949,0.7407,0.7787,1.0593,1.0713,1.1021,1.1655,0.0,0.0,0.0,0.0,0.0,0.0,0.0,0.0,0.0,1.2359,0.0,1.2274,1.2336,1.2605,1.326,0.0,0.0,0.0,0.0,0.0,0.0,0.0,0.0,0.0,0.0,0.0,1.3265,1.3265,1.3265,1.3265,1.3158,1.2824,1.2198,1.1242,1.0002,0.8365,0.7829,0.7561,0.7484,0.7484,0.7484,0.7484,0.7484,0.7134,0.6511,0.6511,0.5815,0.4691,0.3949,0.3327,0.2704,0.1884,0.1571,0.1571,0.1375,0.1296,0.1296,0.1296,0.1296,0.1296,0.1296,0.1296,0.1296,0.1296,0.1296,0.1296,0.1296,0.1296,0.1296,0.1296,0.1453,0.1766,0.2354,0.2157,0.2,0.2431,0.2002,0.1532,0.1335,0.1296,0.1296,0.1296,0.1296,0.1296,0.1296,0.1296,0.1296,0.1296,0.1335,0.1446,0.1622,0.1698,0.1714,0.1703,0.1664,0.2147,0.3282,0.2915,0.3565,0.541,0.5225,0.5434,0.6142,0.7091,0.7557,0.7595,0.836,0.8818,1.0593,1.0846,1.109,1.1153,1.1247,0.0,1.3108,1.2917,0.0,1.329,0.0,0.0,0.0,1.3485,1.3274,1.2266,1.2728,1.3472,0.0,0.0,0.0,0.0,0.0,0.0,0.0,0.0,0.0,0.0,0.0,0.0,1.2558,1.2558,1.2558,1.2558,1.2137,1.1891,1.1855,1.115,1.0265,0.9188,0.825,0.7684,0.7484,0.7484,0.7484,0.7484,0.7484,0.7446,0.7403,0.7403,0.678,0.577,0.5503,0.4727,0.3599,0.2743,0.2433,0.2315,0.1571,0.1296,0.1296,0.1296,0.1296,0.1296,0.1296,0.1296,0.1296,0.1296,0.1296,0.1296,0.1296,0.1296,0.1296,0.1296,0.1884,0.2433,0.247,0.3093,0.3404,0.2627,0.247,0.2158,0.1414,0.1296,0.1296,0.1296,0.1296,0.1296,0.1296,0.1296,0.1296,0.1296,0.1454,0.1888,0.264,0.2534,0.2742,0.3462,0.3387,0.3418,0.3644,0.4154,0.4616,0.5017,0.5863,0.6386,0.6552,0.7391,0.7783,0.7783,0.8394,0.9193,1.0713,1.117,1.1686,1.1818,1.1942,0.0,0.0,1.2978,1.2818,1.3893,1.3773,0.0,0.0,0.0,1.4064,1.3662,1.3842,1.4142,0.0,0.0,0.0,0.0,0.0,0.0,0.0,0.0,0.0,0.0,0.0,0.0,1.2485,1.2485,1.2485,1.2485,1.2328,1.2006,1.1479,1.1227,1.0604,0.9608,0.8876,0.825,0.7684,0.7561,0.7484,0.7484,0.7484,0.7484,0.7484,0.7484,0.7173,0.663,0.5735,0.4763,0.3677,0.2821,0.286,0.3132,0.1766,0.161,0.1962,0.1453,0.1296,0.1296,0.1296,0.1296,0.1296,0.1296,0.1296,0.1296,0.1296,0.1296,0.1296,0.1296,0.1923,0.2666,0.321,0.356,0.3869,0.4029,0.364,0.3209,0.2898,0.2857,0.2663,0.2119,0.2508,0.2468,0.1453,0.1727,0.1845,0.1336,0.1819,0.2529,0.3459,0.3893,0.4304,0.4719,0.4046,0.3849,0.4378,0.4616,0.4976,0.5538,0.6007,0.6309,0.647,0.7881,0.8599,0.8765,0.9976,1.0769,1.1076,1.1748,1.2412,1.2543,0.0,0.0,1.3653,1.3282,1.3183,1.4519,1.4469,1.4222,1.4264,0.0,0.0,0.0,1.4617,0.0,0.0,0.0,0.0,0.0,0.0,0.0,0.0,0.0,0.0,0.0,0.0,0.0,0.0,1.2219,1.2219,1.2219,1.2314,1.2097,1.1512,1.1642,1.1211,1.028,0.9843,0.9015,0.7917,0.779,0.7626,0.7407,0.746,0.7484,0.7484,0.7484,0.733,0.7022,0.6086,0.5231,0.4496,0.36,0.3679,0.3988,0.2585,0.2275,0.2393,0.1845,0.1492,0.1296,0.1296,0.1296,0.1296,0.1296,0.1296,0.1296,0.1296,0.1296,0.1296,0.1296,0.2118,0.3093,0.3675,0.4222,0.4652,0.4963,0.4574,0.4105,0.383,0.3791,0.3599,0.3015,0.3404,0.3404,0.2234,0.2586,0.2735,0.225,0.2687,0.3391,0.4344,0.4853,0.5282,0.5686,0.4978,0.4779,0.5282,0.5249,0.5613,0.6379,0.6527,0.6839,0.7296,0.8743,0.9553,0.9787,1.1105,1.1744,1.1803,1.2481,1.3191,1.3191,0.0,0.0,1.435,1.3992,1.3863,1.5147,1.5575,1.5546,1.5002,1.5565,0.0,1.4421,0.0,0.0,0.0,0.0,0.0,0.0,0.0,0.0,0.0,0.0,0.0,0.0,0.0,0.0,0.0,1.1591,1.1591,1.1591,1.1867,1.1996,1.1996,1.2317,1.2098,1.13,1.1095,1.0014,0.8212,0.8256,0.7881,0.7232,0.7407,0.748,0.748,0.7484,0.7249,0.6865,0.6676,0.649,0.6183,0.5318,0.5004,0.4885,0.4066,0.3249,0.2511,0.2511,0.1962,0.1296,0.1296,0.1296,0.1296,0.1296,0.1296,0.1296,0.1296,0.1296,0.1296,0.1296,0.2585,0.3791,0.3791,0.5121,0.6064,0.516,0.5004,0.4768,0.3949,0.383,0.383,0.383,0.383,0.383,0.383,0.3791,0.3872,0.4082,0.4127,0.4448,0.5337,0.5235,0.5488,0.635,0.6387,0.642,0.642,0.628,0.6605,0.7489,0.763,0.8216,0.92,1.0016,1.0523,1.0807,1.1409,1.1818,1.1803,1.2565,0.0,1.3381,0.0,0.0,0.0,1.4499,0.0,0.0,1.5865,1.5941,1.5787,0.0,0.0,1.5797,0.0,0.0,0.0,0.0,0.0,0.0,0.0,0.0,0.0,0.0,0.0,0.0,0.0,0.0,0.0,1.1654,1.1591,1.1591,1.1687,1.1738,1.1738,1.1826,1.1749,1.1518,1.1325,1.0506,0.9149,0.8518,0.8058,0.7753,0.7442,0.7301,0.7313,0.7435,0.7249,0.6903,0.6826,0.6602,0.6183,0.5318,0.5395,0.5712,0.43,0.3988,0.4068,0.2899,0.2353,0.2041,0.1453,0.1296,0.1296,0.1296,0.1296,0.1296,0.1296,0.1296,0.1453,0.2002,0.2976,0.3949,0.4533,0.5512,0.6222,0.5948,0.5906,0.5828,0.5592,0.5553,0.5356,0.473,0.516,0.5318,0.473,0.416,0.4027,0.4675,0.4778,0.5161,0.6027,0.6049,0.6119,0.6383,0.6387,0.6646,0.7167,0.7129,0.7451,0.8199,0.8234,0.8484,0.8924,0.9921,1.0497,1.0767,1.1691,1.215,1.2596,1.3416,0.0,1.4213,1.4617,1.504,1.5206,0.0,0.0,0.0,1.6038,1.6114,1.621,1.6316,0.0,0.0,0.0,0.0,0.0,0.0,0.0,0.0,0.0,0.0,0.0,0.0,0.0,0.0,0.0,0.0,0.0,1.1716,1.1654,1.1591,1.1591,1.1591,1.1591,1.1591,1.1591,1.1591,1.1466,1.101,1.0257,0.907,0.8468,0.8379,0.7785,0.7412,0.7195,0.7258,0.7152,0.7022,0.683,0.6641,0.6335,0.5747,0.5867,0.6141,0.516,0.4885,0.4846,0.3834,0.3056,0.2393,0.1923,0.1571,0.1296,0.1296,0.1296,0.1296,0.1296,0.1532,0.1884,0.2393,0.3171,0.4025,0.4807,0.567,0.63,0.63,0.63,0.63,0.63,0.63,0.6141,0.5592,0.5948,0.6118,0.559,0.5168,0.5081,0.5495,0.5885,0.6329,0.6781,0.707,0.7228,0.7228,0.7228,0.7549,0.8264,0.7782,0.7944,0.8877,0.8909,0.9163,0.9689,1.0427,1.0944,1.1192,1.2267,1.2776,1.3816,1.4658,1.5323,1.5381,1.5546,0.0,1.6028,1.6019,1.5972,1.6095,0.0,1.6181,1.6374,1.6413,1.6413,0.0,0.0,0.0,0.0,0.0,0.0,0.0,0.0,0.0,0.0,0.0,0.0,0.0,0.0,0.0,0.0,1.1833,1.1747,1.1622,1.1622,1.1591,1.1591,1.1591,1.1591,1.1591,1.1591,1.1498,1.1286,0.9765,0.9058,0.8957,0.8344,0.7776,0.7274,0.7081,0.7072,0.7119,0.6773,0.6626,0.6602,0.6412,0.6338,0.6338,0.63,0.5789,0.5121,0.5043,0.3951,0.2705,0.2627,0.2041,0.1414,0.1414,0.1414,0.1414,0.1414,0.2002,0.2626,0.2698,0.3322,0.4144,0.4927,0.5747,0.63,0.63,0.63,0.63,0.63,0.63,0.63,0.63,0.6286,0.6263,0.6302,0.6448,0.6542,0.651,0.721,0.7664,0.7601,0.8134,0.849,0.849,0.849,0.8812,0.9486,0.8328,0.8296,0.9582,0.9614,1.0097,1.1021,1.1303,1.1598,1.1943,1.3014,1.3564,1.3816,1.4341,0.0,1.5264,1.5633,1.5904,1.6056,1.6192,1.6288,1.6316,1.6345,1.6345,1.6374,1.6413,0.0,0.0,0.0,0.0,0.0,0.0,0.0,0.0,0.0,0.0,0.0,0.0,0.0,0.0,0.0,0.0,1.2995,1.2228,1.1778,1.1771,1.1654,1.1591,1.1591,1.1591,1.1591,0.0,1.1591,1.1591,1.1498,1.0308,0.945,0.8822,0.8701,0.8334,0.7825,0.7785,0.7434,0.6974,0.6862,0.6829,0.6826,0.6602,0.6525,0.6525,0.6335,0.618,0.5906,0.5237,0.4768,0.4341,0.3715,0.2938,0.2237,0.2237,0.2237,0.2237,0.2237,0.2859,0.3659,0.4199,0.4548,0.4963,0.5828,0.618,0.63,0.63,0.63,0.63,0.63,0.63,0.63,0.63,0.6159,0.6139,0.6288,0.6255,0.6456,0.7125,0.7383,0.7733,0.8236,0.8425,0.849,0.849,0.849,0.8812,0.9486,0.923,0.9518,1.0516,1.0516,1.0708,1.1094,1.161,1.1908,1.2019,1.3306,1.4199,1.4282,0.0,0.0,1.5507,0.0,1.5972,1.6192,1.6316,1.6413,1.6413,1.6413,1.6413,1.6413,1.6413,0.0,0.0,0.0,0.0,0.0,0.0,0.0,0.0,0.0,0.0,0.0,0.0,0.0,0.0,0.0,1.3359,1.3299,1.2505,1.1957,1.1809,1.174,1.1654,1.1591,1.1591,1.1591,1.1591,1.1591,1.156,1.1428,1.0825,0.988,0.8777,0.9041,0.8846,0.8344,0.7998,0.7699,0.7377,0.7032,0.6895,0.687,0.68,0.6676,0.6602,0.649,0.6374,0.6222,0.5786,0.5356,0.4927,0.4494,0.3793,0.3132,0.3132,0.3132,0.3086,0.3013,0.3615,0.4351,0.4617,0.4793,0.5129,0.5904,0.6078,0.6078,0.6078,0.6078,0.6078,0.6078,0.6078,0.6078,0.6078,0.5973,0.5967,0.6183,0.6414,0.6814,0.7392,0.8038,0.8587,0.8941,0.9294,0.9492,0.9492,0.9492,0.9652,1.0009,1.0098,1.0351,1.08,1.1163,1.1445,1.1538,1.2288,1.2783,1.305,1.4601,1.5584,1.4843,1.5196,1.5478,1.5827,1.5885,0.0,1.6327,1.6413,1.6413,1.6413,1.6413,1.6413,1.6413,0.0,0.0,0.0,0.0,0.0,0.0,0.0,0.0,0.0,0.0,0.0,0.0,0.0,0.0,0.0,0.0,1.3713,1.3511,1.285,1.2297,1.1895,1.1833,1.1747,1.1654,1.1622,1.1591,1.1591,1.1591,1.1498,1.1341,1.1216,1.0383,0.909,0.9518,0.9385,0.8858,0.8255,0.7971,0.7897,0.7279,0.6992,0.6929,0.6912,0.6785,0.6605,0.6591,0.6447,0.63,0.63,0.5828,0.5237,0.5237,0.4652,0.4023,0.4005,0.4001,0.394,0.3772,0.4345,0.4947,0.4792,0.484,0.5108,0.5676,0.58,0.58,0.58,0.58,0.58,0.58,0.58,0.58,0.58,0.5815,0.5863,0.6087,0.6686,0.7277,0.7634,0.878,0.955,0.9678,1.0326,1.0744,1.0744,1.087,1.0926,1.0926,1.1083,1.117,1.117,1.1741,1.2135,1.2258,1.3113,1.3727,1.423,1.5863,1.6959,1.4941,0.0,1.5478,0.0,1.5885,1.5972,0.0,0.0,1.6413,0.0,1.6413,1.6413,0.0,0.0,0.0,0.0,0.0,0.0,0.0,0.0,0.0,0.0,0.0,0.0,0.0,0.0,0.0,0.0,1.5565,1.4903,1.438,1.3593,1.2873,1.2243,1.1957,1.1802,1.1771,1.1654,1.1591,1.1591,1.1591,1.1591,1.156,1.1365,1.0989,1.0516,1.046,1.006,0.9411,0.9315,0.8645,0.7713,0.7637,0.7338,0.6973,0.6925,0.6768,0.6603,0.6594,0.6447,0.63,0.63,0.6222,0.6141,0.6141,0.5515,0.4825,0.4839,0.4771,0.4667,0.4621,0.5138,0.5649,0.551,0.5494,0.5534,0.5743,0.58,0.58,0.58,0.58,0.58,0.58,0.58,0.58,0.58,0.5797,0.588,0.6073,0.6739,0.7508,0.8296,0.9037,0.9748,1.0396,1.1021,1.1389,1.1389,1.1934,1.2235,1.2235,1.2543,1.2704,1.2704,1.242,1.2604,1.329,1.3732,1.4136,1.4567,1.5734,1.7168,1.5029,1.5254,1.5449,0.0,1.5827,1.5972,1.6192,1.6316,1.6413,1.6413,1.6413,1.6413,0.0,0.0,0.0,0.0,0.0,0.0,0.0,0.0,0.0,0.0,0.0,0.0,0.0,0.0,0.0,0.0,1.5478,1.4795,1.4499,1.348,1.2736,1.2305,1.2151,1.2027,1.1965,1.1809,1.1685,1.1591,1.1591,1.1591,1.1591,1.1404,1.1178,1.0965,1.0776,1.0491,1.0072,0.9678,0.9197,0.8695,0.8433,0.7932,0.7416,0.7499,0.7138,0.6576,0.6496,0.6337,0.6155,0.604,0.6003,0.604,0.6155,0.5929,0.5615,0.5695,0.5676,0.5603,0.5425,0.5569,0.5745,0.5528,0.5494,0.5515,0.5576,0.559,0.559,0.559,0.559,0.559,0.559,0.559,0.559,0.559,0.563,0.5888,0.6459,0.7269,0.8086,0.8967,0.9684,1.039,1.1052,1.1365,1.167,1.2027,1.2328,1.2543,1.2673,1.2887,1.3213,1.3666,1.3575,1.3704,1.4052,1.4553,1.4998,1.5497,1.6959,1.8217,0.0,0.0,1.54,1.5643,1.5798,1.5943,0.0,0.0,1.6609,0.0,1.6751,0.0,0.0,0.0,0.0,0.0,0.0,0.0,0.0,0.0,0.0,0.0,0.0,0.0,0.0,0.0,0.0,0.0,1.5507,1.4824,1.4529,1.361,1.2858,1.2398,1.2336,1.2243,1.2151,1.1934,1.1747,1.1654,1.1622,1.1591,1.1591,1.1428,1.1279,1.1153,1.0965,1.0807,1.0681,1.0066,0.9741,0.9542,0.9151,0.8531,0.7918,0.8132,0.7614,0.6781,0.6754,0.6484,0.6129,0.5946,0.5911,0.5946,0.6058,0.6133,0.6158,0.6289,0.6278,0.6205,0.5971,0.5863,0.577,0.5586,0.5524,0.5495,0.5428,0.5395,0.5395,0.5395,0.5395,0.5395,0.5395,0.5395,0.5425,0.5458,0.5587,0.5976,0.6859,0.773,0.8603,0.9422,1.0295,1.1028,1.1452,1.1849,1.2274,1.2757,1.3,1.3191,1.3351,1.3502,1.3825,1.443,1.4815,1.4942,1.4804,1.5274,1.5812,1.6447,1.7828,1.8918,0.0,1.5117,0.0,1.5624,1.5798,1.5943,0.0,0.0,0.0,0.0,1.7715,0.0,0.0,0.0,0.0,0.0,0.0,0.0,0.0,0.0,0.0,0.0,0.0,0.0,0.0,0.0,0.0,0.0,1.6345,1.5778,1.4558,1.444,1.3842,1.2621,1.2406,1.2305,1.2274,1.1957,1.1802,1.1778,1.1654,1.1591,1.1591,1.1591,1.1466,1.1272,1.1153,1.109,1.1066,1.0839,1.0351,0.9773,0.9536,0.9055,0.8473,0.8686,0.8156,0.7395,0.7553,0.7051,0.6269,0.6129,0.6165,0.6269,0.6133,0.6201,0.6307,0.6364,0.6253,0.6112,0.6174,0.6032,0.5899,0.5892,0.5859,0.5789,0.5462,0.5395,0.5395,0.5395,0.5395,0.5395,0.5395,0.5395,0.5458,0.5583,0.5752,0.621,0.7083,0.7934,0.8742,0.9422,1.0661,1.1459,1.1483,1.2773,1.3593,1.3631,1.4419,1.4882,1.4882,1.5,1.5117,1.5156,1.596,1.6161,1.5643,1.5672,1.6251,1.7339,1.7419,1.8636,0.0,0.0,0.0,1.5459,1.5989,1.6503,1.6549,1.7185,1.7781,1.7781,1.8043,0.0,0.0,0.0,0.0,0.0,0.0,0.0,0.0,0.0,0.0,0.0,0.0,0.0,0.0,0.0,0.0,0.0,0.0,1.5565,1.5089,1.4282,1.3662,1.3186,1.2736,1.2436,1.2305,1.2089,1.1934,1.1802,1.1654,1.1591,1.1591,1.1591,1.156,1.1498,1.1435,1.131,1.109,1.087,1.0674,1.0415,1.0263,0.9779,0.9145,0.9238,0.8777,0.8032,0.7545,0.7164,0.6793,0.6165,0.5999,0.6063,0.6131,0.6196,0.6252,0.6362,0.6346,0.6264,0.623,0.6148,0.6053,0.5921,0.5888,0.5859,0.576,0.5727,0.5727,0.5727,0.5624,0.5521,0.5521,0.5521,0.5554,0.5583,0.6235,0.699,0.7739,0.8613,0.9422,1.0136,1.0706,1.1389,1.2251,1.2895,1.3623,1.4478,1.4823,1.5039,1.5127,1.5186,1.5469,1.6017,1.635,1.6407,1.6218,1.668,1.7121,1.7537,1.8283,1.9063,1.4843,0.0,0.0,0.0,1.5902,1.6503,1.6736,0.0,1.8093,1.8348,1.8658,0.0,0.0,0.0,0.0,0.0,0.0,0.0,0.0,0.0,0.0,0.0,0.0,0.0,0.0,0.0,0.0,0.0,0.0,0.0,1.541,1.4401,1.3631,1.3216,1.2797,1.2529,1.2406,1.2189,1.2027,1.1903,1.1685,1.1591,1.1591,1.1591,1.1591,1.1591,1.1591,1.1466,1.1247,1.1059,1.0933,1.0902,1.0713,1.0326,0.9875,0.9875,0.9422,0.871,0.7929,0.7474,0.7153,0.628,0.602,0.6086,0.6181,0.6408,0.6638,0.6741,0.6937,0.7097,0.6994,0.6802,0.6671,0.6736,0.6609,0.6445,0.6445,0.6152,0.5888,0.5888,0.5785,0.5686,0.5686,0.5686,0.5815,0.6104,0.6756,0.754,0.8517,0.9198,0.9875,1.0586,1.1178,1.1911,1.2795,1.3403,1.4112,1.5,1.5313,1.5478,1.5565,1.5768,1.6151,1.6793,1.7045,1.7202,1.7246,1.755,1.7825,1.8093,1.885,1.9494,0.0,0.0,0.0,0.0,1.5469,0.0,1.6634,0.0,1.8108,1.8842,1.9512,0.0,0.0,0.0,0.0,0.0,0.0,0.0,0.0,0.0,0.0,0.0,0.0,0.0,0.0,0.0,0.0,0.0,1.6599,1.6257,1.5468,1.4854,1.3911,1.2652,1.259,1.259,1.259,1.2282,1.2096,1.2096,1.1747,1.1591,1.1591,1.1591,1.1591,1.1591,1.1591,1.1591,1.1591,1.1365,1.1216,1.109,1.087,1.0713,1.0624,1.0593,1.0136,0.9422,0.878,0.8102,0.7423,0.6539,0.6346,0.6449,0.6313,0.6868,0.7521,0.7521,0.8004,0.849,0.849,0.8004,0.7684,0.8361,0.8004,0.7521,0.7521,0.6708,0.5954,0.5921,0.5925,0.5925,0.5925,0.5921,0.6214,0.7083,0.7246,0.7795,0.932,0.9678,1.0066,1.0737,1.2128,1.2978,1.3009,1.435,1.5186,1.5215,1.5892,1.6312,1.6312,1.6894,1.7285,1.7435,1.8147,1.8566,1.8741,1.8205,1.8325,1.9013,1.904,1.9877,1.4656,0.0,0.0,0.0,0.0,0.0,1.6549,1.7285,1.807,1.8647,1.9121,0.0,0.0,0.0,0.0,0.0,0.0,0.0,0.0,0.0,0.0,0.0,0.0,0.0,0.0,0.0,0.0,0.0,1.6655,1.6467,1.6134,1.5098,1.3911,1.2652,1.259,1.259,1.259,1.2367,1.2212,1.2096,1.1872,1.1685,1.1591,1.1591,1.1591,1.1591,1.1591,1.1591,1.1591,1.1365,1.1272,1.1216,1.0926,1.0776,1.0744,1.0656,1.0466,1.0199,0.9486,0.9102,0.8844,0.8096,0.7874,0.7907,0.7874,0.8037,0.8231,0.8231,0.8361,0.849,0.849,0.8361,0.8264,0.8458,0.8361,0.8231,0.8231,0.8004,0.7484,0.6449,0.6185,0.6115,0.6115,0.6502,0.6924,0.7181,0.8151,0.9032,0.9454,1.0098,1.0579,1.0776,1.181,1.2665,1.31,1.4103,1.4893,1.5332,1.6036,1.6425,1.6425,1.7118,1.777,1.834,1.8528,1.8939,1.9501,1.9345,1.9371,1.9604,1.9978,2.06,0.0,0.0,0.0,0.0,0.0,0.0,1.6747,1.7296,1.7945,0.0,1.9174,0.0,0.0,0.0,0.0,0.0,0.0,0.0,0.0,0.0,0.0,0.0,0.0,0.0,0.0,1.7183,1.7032,1.6818,1.6722,1.6381,1.5662,1.4883,1.3911,1.2652,1.259,1.259,1.259,1.2406,1.2243,1.2096,1.1903,1.1716,1.1591,1.1591,1.1591,1.1591,1.1591,1.1591,1.1591,1.1466,1.1365,1.1272,1.1083,1.0926,1.08,1.0713,1.0656,1.0491,0.9748,0.9486,0.939,0.871,0.849,0.849,0.849,0.8683,0.8903,0.8903,0.9134,0.9364,0.9364,0.9134,0.9005,0.9294,0.9134,0.8903,0.8903,0.8903,0.8587,0.7489,0.7223,0.7158,0.7158,0.7479,0.7832,0.8118,0.8935,0.9646,1.0002,1.0787,1.132,1.1413,1.2512,1.3373,1.3704,1.443,1.503,1.5381,1.634,1.6877,1.6877,1.7836,1.8578,1.9083,1.9083,1.9423,2.0131,2.0131,2.0245,2.0497,2.0795,2.1213,0.0,0.0,0.0,0.0,1.5059,0.0,1.6849,1.7168,1.7545,1.8815,1.9186,1.9357,0.0,0.0,0.0,0.0,0.0,0.0,0.0,0.0,0.0,0.0,0.0,0.0,1.7278,1.7278,1.7127,1.6835,1.6779,1.6142,1.4677,1.4529,1.3932,1.2744,1.2621,1.259,1.259,1.2428,1.2243,1.2096,1.1934,1.1747,1.1591,1.1591,1.1591,1.1591,1.1591,1.1591,1.1591,1.1591,1.1498,1.1334,1.1303,1.1122,1.0839,1.0807,1.0713,1.0498,0.9843,0.962,0.9518,0.8941,0.8748,0.8748,0.8748,0.9134,0.962,0.962,1.0104,1.0593,1.0593,1.0104,0.9779,1.0428,1.0104,0.962,0.962,0.962,0.9454,0.8844,0.8619,0.849,0.849,0.8554,0.8812,0.9422,0.9582,0.9932,1.08,1.1562,1.2104,1.2358,1.3674,1.4499,1.4499,1.5059,1.5439,1.5497,1.6708,1.7462,1.7518,1.875,1.9486,1.9604,1.9682,2.0029,2.0684,2.0684,2.0968,2.1489,2.1489,2.1766,0.0,0.0,0.0,0.0,0.0,0.0,1.5546,1.57,1.6036,1.6905,1.7202,1.7534,0.0,0.0,0.0,0.0,0.0,0.0,0.0,0.0,0.0,0.0,0.0,0.0,1.705,1.7078,1.7022,1.6965,1.6768,1.6228,1.5264,1.4765,1.4142,1.3359,1.2858,1.259,1.259,1.256,1.2406,1.2096,1.2058,1.1903,1.1591,1.1591,1.1591,1.1591,1.1591,1.1591,1.1591,1.1591,1.1591,1.1529,1.1365,1.1185,1.1028,1.087,1.0713,1.0593,1.0428,1.0396,1.0364,1.0231,1.0206,1.0206,1.0206,1.0269,1.0396,1.0396,1.0491,1.0593,1.0593,1.0491,1.0428,1.0561,1.0491,1.0396,1.0396,1.0396,1.0364,1.0238,0.9262,0.849,0.849,0.8941,0.9358,0.9486,1.0009,1.0667,1.15,1.1826,1.2258,1.294,1.3923,1.4499,1.4499,1.5059,1.5604,1.6083,1.7024,1.777,1.8282,1.9214,1.9734,1.9759,2.0182,2.0671,2.1248,2.1248,2.1527,2.2053,2.2053,2.2301,0.0,0.0,0.0,1.4736,0.0,0.0,0.0,1.5652,1.5931,1.6606,1.6944,1.7296,1.7984,0.0,1.7435,0.0,0.0,0.0,0.0,0.0,0.0,0.0,0.0,0.0,1.6881,1.6955,1.7011,1.7011,1.6694,1.621,1.5536,1.4874,1.4201,1.3511,1.292,1.259,1.259,1.259,1.2467,1.2212,1.212,1.2003,1.184,1.1685,1.1654,1.1716,1.1622,1.1591,1.1591,1.1591,1.1591,1.1591,1.1498,1.1341,1.1185,1.0996,1.0839,1.0681,1.0624,1.0593,1.0593,1.0593,1.0593,1.0593,1.0593,1.0593,1.0593,1.0593,1.0593,1.0593,1.0593,1.0593,1.0593,1.0593,1.0593,1.0593,1.0593,1.0839,1.1052,1.1052,1.0742,1.0287,0.9646,0.9811,1.0161,1.044,1.0793,1.1389,1.2266,1.2749,1.3205,1.3795,1.4519,1.5079,1.5362,1.54,1.5806,1.6793,1.733,1.7907,1.8566,1.9371,1.9927,2.0182,2.0459,2.1017,2.1846,2.2077,2.24,2.2799,2.2867,2.3135,0.0,0.0,0.0,0.0,0.0,1.5555,0.0,0.0,0.0,1.6531,1.6803,0.0,0.0,0.0,0.0,0.0,0.0,0.0,0.0,0.0,0.0,0.0,0.0,0.0,0.0,1.6909,1.6983,1.6955,1.6666,1.6285,1.5815,1.5099,1.4401,1.3713,1.3216,1.2867,1.259,1.2713,1.2613,1.2305,1.2151,1.2096,1.2089,1.1778,1.1716,1.1802,1.1685,1.1685,1.1771,1.1654,1.1685,1.1771,1.1654,1.1466,1.1272,1.1153,1.0965,1.0776,1.0656,1.0593,1.0593,1.0593,1.0593,1.0624,1.0744,1.0688,1.0593,1.0593,1.0593,1.0593,1.0593,1.0624,1.0656,1.0656,1.0688,1.0713,1.0832,1.1233,1.1632,1.1763,1.2243,1.2235,1.1139,1.0989,1.1178,1.167,1.1756,1.2128,1.31,1.3696,1.4213,1.4647,1.5196,1.5777,1.6255,1.5968,1.6255,1.7462,1.7672,1.8097,1.8806,1.9619,2.0245,2.0696,2.0955,2.1558,2.2529,2.3025,2.3347,2.3493,2.3687,2.4,0.0,0.0,0.0,0.0,1.5787,0.0,0.0,0.0,1.5439,1.5254,0.0,1.5517,0.0,0.0,0.0,0.0,0.0,0.0,1.6124,0.0,0.0,0.0,0.0,0.0,0.0,1.6842,1.6955,1.6835,1.6881,1.6786,1.6513,1.5853,1.5157,1.441,1.4321,1.3731,1.2621,1.3125,1.3025,1.2305,1.2151,1.2096,1.2089,1.1872,1.1778,1.1802,1.1771,1.2011,1.2358,1.1833,1.1919,1.2336,1.1802,1.1466,1.1272,1.1153,1.0965,1.0776,1.0656,1.0593,1.0593,1.0593,1.0593,1.0688,1.124,1.1021,1.0593,1.0593,1.0593,1.0593,1.0593,1.0688,1.0776,1.0776,1.0902,1.1178,1.1741,1.1888,1.2104,1.2704,1.2887,1.2787,1.2358,1.2428,1.2581,1.2642,1.2734,1.313,1.3965,1.4115,1.4481,1.5206,1.5825,1.6226,1.6301,1.6726,1.7285,1.7984,1.8255,1.8697,1.9303,2.037,2.0988,2.1037,2.2266,2.3069,2.3375,2.3966,2.4101,2.3858,2.4297,2.4502,0.0,0.0,0.0,0.0,0.0,0.0,1.5381,0.0,1.5294,0.0,0.0,0.0,0.0,0.0,0.0,0.0,1.5951,0.0,0.0,0.0,1.6077,0.0,0.0,0.0,0.0,0.0,0.0,0.0,1.6705,1.6637,1.6599,1.5892,1.5342,1.503,1.4321,1.3662,1.3125,1.3359,1.3147,1.2467,1.2697,1.2636,1.2375,1.2089,1.2174,1.2466,1.1988,1.229,1.3039,1.2405,1.2497,1.307,1.2803,1.2197,1.149,1.16,1.1358,1.0933,1.0688,1.0593,1.0649,1.1028,1.1389,1.1694,1.1545,1.1334,1.1052,1.0688,1.0649,1.0713,1.0713,1.0839,1.0965,1.0965,1.1296,1.1686,1.195,1.2618,1.3235,1.3515,1.3885,1.4112,1.3983,1.3373,1.3039,1.3425,1.3545,1.3885,1.4677,1.5079,1.5459,1.5882,1.6472,1.695,1.7313,1.7257,1.7672,1.8789,1.9397,1.9927,2.037,2.1135,2.1815,2.2312,2.2593,2.3164,2.4028,2.4241,2.4505,2.4831,2.4906,2.5095,1.5999,0.0,0.0,0.0,0.0,0.0,0.0,0.0,0.0,0.0,0.0,0.0,0.0,0.0,0.0,0.0,0.0,1.5556,0.0,1.5759,0.0,0.0,0.0,0.0,0.0,0.0,0.0,1.6722,1.6602,1.6534,1.6599,1.6046,1.5613,1.541,1.4667,1.4142,1.3782,1.3923,1.3722,1.3125,1.342,1.339,1.3103,1.282,1.2895,1.3274,1.2673,1.2956,1.3773,1.307,1.3161,1.3773,1.3773,1.3117,1.2143,1.2266,1.1965,1.1397,1.1083,1.0958,1.1059,1.1849,1.2274,1.2451,1.2128,1.1911,1.1694,1.1233,1.1115,1.1115,1.1296,1.124,1.1247,1.1584,1.1903,1.2228,1.2626,1.3446,1.4243,1.458,1.5021,1.542,1.5565,1.449,1.3825,1.4471,1.4619,1.4884,1.5642,1.6132,1.6436,1.6539,1.709,1.7617,1.8066,1.7875,1.8309,1.9591,2.0359,2.0881,2.1172,2.1862,2.2554,2.3194,2.3142,2.3634,2.4643,2.4645,2.498,2.5612,2.5591,2.5756,0.0,0.0,0.0,1.7127,0.0,0.0,0.0,0.0,1.5613,0.0,0.0,0.0,0.0,0.0,0.0,0.0,0.0,0.0,0.0,0.0,0.0,0.0,0.0,0.0,0.0,0.0,1.6599,1.6609,1.6722,1.6722,1.6609,1.657,1.6189,1.541,1.599,1.572,1.4469,1.5059,1.503,1.444,1.4252,1.4282,1.444,1.4213,1.4145,1.4145,1.3995,1.4222,1.4588,1.3812,1.3872,1.4469,1.4469,1.4052,1.342,1.3221,1.2787,1.2235,1.2012,1.1872,1.1957,1.323,1.313,1.2634,1.326,1.2978,1.2451,1.2451,1.2128,1.1926,1.2558,1.2035,1.1608,1.2856,1.2787,1.2848,1.4133,1.444,1.4815,1.5987,1.6244,1.6443,1.7034,1.6017,1.5323,1.5941,1.614,1.6443,1.7062,1.7146,1.7174,1.7174,1.7699,1.8093,1.8093,1.8747,1.9499,2.0321,2.087,2.1248,2.1393,2.2532,2.3157,2.3216,2.4338,2.5025,2.5275,2.5454,2.5661,2.5897,2.6346,2.6555,0.0,0.0,1.6314,1.7099,0.0,0.0,0.0,0.0,0.0,0.0,0.0,0.0,0.0,0.0,0.0,0.0,0.0,0.0,0.0,0.0,0.0,0.0,0.0,0.0,0.0,0.0,0.0,1.5991,1.6339,1.6516,1.6477,1.6477,1.6335,1.6077,1.5865,1.5536,1.5089,1.5294,1.5089,1.4499,1.4844,1.4815,1.4499,1.443,1.4579,1.4844,1.4234,1.4519,1.5313,1.4499,1.4529,1.5089,1.5089,1.4971,1.4697,1.4085,1.3455,1.2879,1.2726,1.2909,1.3342,1.3765,1.3914,1.3914,1.3713,1.3411,1.31,1.2795,1.2642,1.2681,1.2978,1.2917,1.2864,1.329,1.3623,1.3953,1.441,1.5138,1.5825,1.6226,1.6613,1.695,1.7174,1.681,1.6595,1.6793,1.6866,1.6978,1.7174,1.7534,1.7781,1.7781,1.8402,1.8975,1.9333,2.008,2.0646,2.0919,2.1516,2.1978,2.2244,2.3209,2.3831,2.4063,2.469,2.51,2.5294,2.5505,2.5712,2.5899,2.6381,2.6589,1.7172,1.692,0.0,1.7155,1.7071,0.0,1.6637,0.0,0.0,0.0,0.0,0.0,0.0,0.0,0.0,0.0,0.0,0.0,0.0,1.4582,0.0,0.0,0.0,0.0,0.0,0.0,1.5698,1.5824,1.6208,1.6413,0.0,0.0,1.6413,1.6413,1.598,1.5768,1.5768,1.5768,1.5565,1.5186,1.5565,1.5536,1.5186,1.5186,1.5332,1.5594,1.4982,1.5147,1.574,1.5167,1.5118,1.541,1.541,1.541,1.5352,1.4815,1.4213,1.3644,1.3554,1.3765,1.4124,1.4341,1.4588,1.4715,1.43,1.4091,1.3962,1.3653,1.3524,1.3485,1.3833,1.3713,1.3593,1.4073,1.4341,1.4617,1.505,1.5767,1.6425,1.6866,1.7257,1.7589,1.7781,1.7836,1.7754,1.7534,1.7506,1.7589,1.7809,1.8213,1.8494,1.8494,1.8972,1.9525,2.0105,2.0968,2.1503,2.1551,2.2123,2.2555,2.2768,2.356,2.4194,2.4666,2.4892,2.5211,2.5662,2.5634,2.5696,2.5899,2.6486,2.6725]}]]